<?xml version="1.0" encoding="UTF-8" standalone="no" ?>
<gpx xmlns="http://www.topografix.com/GPX/1/1" xmlns:xsi="http://www.w3.org/2001/XMLSchema-instance" xsi:schemaLocation="http://www.topografix.com/GPX/1/1 http://www.topografix.com/GPX/1/1/gpx.xsd" version="1.1" creator="VisuGPX - https://www.visugpx.com">
  <metadata>
    <name>91M2/19 Yerres - Montgeron -Sénart 13 km par Pascale IBP 36</name>
    <desc><![CDATA[20190123 - Yerres Montgeron Sénart (neige)]]></desc>
  </metadata>
  <trk>
    <name><![CDATA[20190123 - Yerres Montgeron Sénart (neige)]]></name>
    <desc><![CDATA[20190123 - Yerres Montgeron Sénart (neige)]]></desc>
    <trkseg>
      <trkpt lat="48.71486" lon="2.47897">
        <ele>42</ele>
        <time>2019-01-23T08:30:55Z</time>
      </trkpt>
      <trkpt lat="48.7148" lon="2.47894">
        <ele>41.6</ele>
        <time>2019-01-23T08:31:12Z</time>
      </trkpt>
      <trkpt lat="48.71476" lon="2.47895">
        <ele>41.3</ele>
        <time>2019-01-23T08:31:16Z</time>
      </trkpt>
      <trkpt lat="48.71471" lon="2.47897">
        <ele>41</ele>
        <time>2019-01-23T08:31:24Z</time>
      </trkpt>
      <trkpt lat="48.7147" lon="2.4789">
        <ele>40.8</ele>
        <time>2019-01-23T08:31:34Z</time>
      </trkpt>
      <trkpt lat="48.7147" lon="2.47882">
        <ele>40.7</ele>
        <time>2019-01-23T08:31:37Z</time>
      </trkpt>
      <trkpt lat="48.71469" lon="2.47875">
        <ele>40.5</ele>
        <time>2019-01-23T08:31:41Z</time>
      </trkpt>
      <trkpt lat="48.7147" lon="2.47868">
        <ele>40.4</ele>
        <time>2019-01-23T08:31:45Z</time>
      </trkpt>
      <trkpt lat="48.71472" lon="2.47861">
        <ele>40.3</ele>
        <time>2019-01-23T08:31:49Z</time>
      </trkpt>
      <trkpt lat="48.71472" lon="2.47854">
        <ele>40.1</ele>
        <time>2019-01-23T08:31:53Z</time>
      </trkpt>
      <trkpt lat="48.71474" lon="2.47846">
        <ele>40</ele>
        <time>2019-01-23T08:31:58Z</time>
      </trkpt>
      <trkpt lat="48.71476" lon="2.4784">
        <ele>39.9</ele>
        <time>2019-01-23T08:32:03Z</time>
      </trkpt>
      <trkpt lat="48.71478" lon="2.47832">
        <ele>39.8</ele>
        <time>2019-01-23T08:32:08Z</time>
      </trkpt>
      <trkpt lat="48.71481" lon="2.47825">
        <ele>39.7</ele>
        <time>2019-01-23T08:32:12Z</time>
      </trkpt>
      <trkpt lat="48.71484" lon="2.47819">
        <ele>39.6</ele>
        <time>2019-01-23T08:32:16Z</time>
      </trkpt>
      <trkpt lat="48.71486" lon="2.47813">
        <ele>39.6</ele>
        <time>2019-01-23T08:32:20Z</time>
      </trkpt>
      <trkpt lat="48.71489" lon="2.47805">
        <ele>39.5</ele>
        <time>2019-01-23T08:32:24Z</time>
      </trkpt>
      <trkpt lat="48.71492" lon="2.478">
        <ele>39.5</ele>
        <time>2019-01-23T08:32:29Z</time>
      </trkpt>
      <trkpt lat="48.71491" lon="2.47791">
        <ele>39.5</ele>
        <time>2019-01-23T08:32:32Z</time>
      </trkpt>
      <trkpt lat="48.7149" lon="2.47783">
        <ele>39.6</ele>
        <time>2019-01-23T08:32:36Z</time>
      </trkpt>
      <trkpt lat="48.71491" lon="2.47776">
        <ele>39.6</ele>
        <time>2019-01-23T08:32:42Z</time>
      </trkpt>
      <trkpt lat="48.71494" lon="2.47768">
        <ele>39.7</ele>
        <time>2019-01-23T08:32:53Z</time>
      </trkpt>
      <trkpt lat="48.71498" lon="2.47762">
        <ele>39.7</ele>
        <time>2019-01-23T08:32:57Z</time>
      </trkpt>
      <trkpt lat="48.715" lon="2.47755">
        <ele>39.8</ele>
        <time>2019-01-23T08:33:03Z</time>
      </trkpt>
      <trkpt lat="48.715" lon="2.47746">
        <ele>39.8</ele>
        <time>2019-01-23T08:33:07Z</time>
      </trkpt>
      <trkpt lat="48.715" lon="2.47739">
        <ele>39.8</ele>
        <time>2019-01-23T08:33:11Z</time>
      </trkpt>
      <trkpt lat="48.71501" lon="2.47731">
        <ele>39.8</ele>
        <time>2019-01-23T08:33:14Z</time>
      </trkpt>
      <trkpt lat="48.715" lon="2.47723">
        <ele>39.8</ele>
        <time>2019-01-23T08:33:18Z</time>
      </trkpt>
      <trkpt lat="48.71499" lon="2.47716">
        <ele>39.8</ele>
        <time>2019-01-23T08:33:21Z</time>
      </trkpt>
      <trkpt lat="48.71498" lon="2.47708">
        <ele>39.8</ele>
        <time>2019-01-23T08:33:25Z</time>
      </trkpt>
      <trkpt lat="48.71497" lon="2.477">
        <ele>39.8</ele>
        <time>2019-01-23T08:33:29Z</time>
      </trkpt>
      <trkpt lat="48.71496" lon="2.47693">
        <ele>39.8</ele>
        <time>2019-01-23T08:33:33Z</time>
      </trkpt>
      <trkpt lat="48.71497" lon="2.47687">
        <ele>39.8</ele>
        <time>2019-01-23T08:33:37Z</time>
      </trkpt>
      <trkpt lat="48.71496" lon="2.4768">
        <ele>39.7</ele>
        <time>2019-01-23T08:33:41Z</time>
      </trkpt>
      <trkpt lat="48.71496" lon="2.47673">
        <ele>39.7</ele>
        <time>2019-01-23T08:33:45Z</time>
      </trkpt>
      <trkpt lat="48.71496" lon="2.47665">
        <ele>39.7</ele>
        <time>2019-01-23T08:33:50Z</time>
      </trkpt>
      <trkpt lat="48.71497" lon="2.47658">
        <ele>39.6</ele>
        <time>2019-01-23T08:33:54Z</time>
      </trkpt>
      <trkpt lat="48.71494" lon="2.47649">
        <ele>39.6</ele>
        <time>2019-01-23T08:33:57Z</time>
      </trkpt>
      <trkpt lat="48.71492" lon="2.47642">
        <ele>39.5</ele>
        <time>2019-01-23T08:34:00Z</time>
      </trkpt>
      <trkpt lat="48.71491" lon="2.47635">
        <ele>39.5</ele>
        <time>2019-01-23T08:34:03Z</time>
      </trkpt>
      <trkpt lat="48.7149" lon="2.47626">
        <ele>39.5</ele>
        <time>2019-01-23T08:34:07Z</time>
      </trkpt>
      <trkpt lat="48.71489" lon="2.47619">
        <ele>39.4</ele>
        <time>2019-01-23T08:34:12Z</time>
      </trkpt>
      <trkpt lat="48.71487" lon="2.47611">
        <ele>39.4</ele>
        <time>2019-01-23T08:34:17Z</time>
      </trkpt>
      <trkpt lat="48.71486" lon="2.47604">
        <ele>39.3</ele>
        <time>2019-01-23T08:34:20Z</time>
      </trkpt>
      <trkpt lat="48.71485" lon="2.47597">
        <ele>39.3</ele>
        <time>2019-01-23T08:34:25Z</time>
      </trkpt>
      <trkpt lat="48.71482" lon="2.4759">
        <ele>39.2</ele>
        <time>2019-01-23T08:34:30Z</time>
      </trkpt>
      <trkpt lat="48.71478" lon="2.47585">
        <ele>39.1</ele>
        <time>2019-01-23T08:34:35Z</time>
      </trkpt>
      <trkpt lat="48.71476" lon="2.47579">
        <ele>39.1</ele>
        <time>2019-01-23T08:34:41Z</time>
      </trkpt>
      <trkpt lat="48.71474" lon="2.47573">
        <ele>39</ele>
        <time>2019-01-23T08:34:46Z</time>
      </trkpt>
      <trkpt lat="48.71472" lon="2.47567">
        <ele>38.9</ele>
        <time>2019-01-23T08:34:52Z</time>
      </trkpt>
      <trkpt lat="48.71472" lon="2.47559">
        <ele>38.8</ele>
        <time>2019-01-23T08:34:56Z</time>
      </trkpt>
      <trkpt lat="48.71471" lon="2.47552">
        <ele>38.8</ele>
        <time>2019-01-23T08:35:08Z</time>
      </trkpt>
      <trkpt lat="48.71469" lon="2.47545">
        <ele>38.7</ele>
        <time>2019-01-23T08:35:13Z</time>
      </trkpt>
      <trkpt lat="48.71467" lon="2.47539">
        <ele>38.7</ele>
        <time>2019-01-23T08:35:16Z</time>
      </trkpt>
      <trkpt lat="48.71466" lon="2.47532">
        <ele>38.6</ele>
        <time>2019-01-23T08:35:20Z</time>
      </trkpt>
      <trkpt lat="48.71463" lon="2.47526">
        <ele>38.6</ele>
        <time>2019-01-23T08:35:22Z</time>
      </trkpt>
      <trkpt lat="48.7146" lon="2.4752">
        <ele>38.5</ele>
        <time>2019-01-23T08:35:24Z</time>
      </trkpt>
      <trkpt lat="48.71457" lon="2.47514">
        <ele>38.5</ele>
        <time>2019-01-23T08:35:26Z</time>
      </trkpt>
      <trkpt lat="48.71454" lon="2.47507">
        <ele>38.4</ele>
        <time>2019-01-23T08:35:30Z</time>
      </trkpt>
      <trkpt lat="48.71449" lon="2.47503">
        <ele>38.4</ele>
        <time>2019-01-23T08:35:34Z</time>
      </trkpt>
      <trkpt lat="48.71445" lon="2.47497">
        <ele>38.4</ele>
        <time>2019-01-23T08:35:36Z</time>
      </trkpt>
      <trkpt lat="48.71443" lon="2.47492">
        <ele>38.3</ele>
        <time>2019-01-23T08:35:38Z</time>
      </trkpt>
      <trkpt lat="48.7144" lon="2.47487">
        <ele>38.3</ele>
        <time>2019-01-23T08:35:40Z</time>
      </trkpt>
      <trkpt lat="48.71437" lon="2.47481">
        <ele>38.2</ele>
        <time>2019-01-23T08:35:43Z</time>
      </trkpt>
      <trkpt lat="48.71435" lon="2.47475">
        <ele>38.2</ele>
        <time>2019-01-23T08:35:47Z</time>
      </trkpt>
      <trkpt lat="48.71431" lon="2.4747">
        <ele>38.1</ele>
        <time>2019-01-23T08:35:50Z</time>
      </trkpt>
      <trkpt lat="48.71429" lon="2.47463">
        <ele>38.1</ele>
        <time>2019-01-23T08:35:55Z</time>
      </trkpt>
      <trkpt lat="48.71425" lon="2.47459">
        <ele>38</ele>
        <time>2019-01-23T08:36:00Z</time>
      </trkpt>
      <trkpt lat="48.71422" lon="2.47453">
        <ele>38</ele>
        <time>2019-01-23T08:36:07Z</time>
      </trkpt>
      <trkpt lat="48.71419" lon="2.47447">
        <ele>38</ele>
        <time>2019-01-23T08:36:09Z</time>
      </trkpt>
      <trkpt lat="48.71415" lon="2.47442">
        <ele>37.9</ele>
        <time>2019-01-23T08:36:13Z</time>
      </trkpt>
      <trkpt lat="48.71411" lon="2.47437">
        <ele>37.9</ele>
        <time>2019-01-23T08:36:20Z</time>
      </trkpt>
      <trkpt lat="48.71407" lon="2.47432">
        <ele>37.8</ele>
        <time>2019-01-23T08:36:25Z</time>
      </trkpt>
      <trkpt lat="48.71404" lon="2.47426">
        <ele>37.8</ele>
        <time>2019-01-23T08:36:29Z</time>
      </trkpt>
      <trkpt lat="48.71399" lon="2.47423">
        <ele>37.8</ele>
        <time>2019-01-23T08:36:39Z</time>
      </trkpt>
      <trkpt lat="48.71395" lon="2.47417">
        <ele>37.7</ele>
        <time>2019-01-23T08:36:43Z</time>
      </trkpt>
      <trkpt lat="48.71391" lon="2.47413">
        <ele>37.7</ele>
        <time>2019-01-23T08:36:45Z</time>
      </trkpt>
      <trkpt lat="48.71387" lon="2.4741">
        <ele>37.7</ele>
        <time>2019-01-23T08:36:50Z</time>
      </trkpt>
      <trkpt lat="48.71383" lon="2.47404">
        <ele>37.7</ele>
        <time>2019-01-23T08:36:53Z</time>
      </trkpt>
      <trkpt lat="48.71378" lon="2.474">
        <ele>37.6</ele>
        <time>2019-01-23T08:36:57Z</time>
      </trkpt>
      <trkpt lat="48.71374" lon="2.47396">
        <ele>37.6</ele>
        <time>2019-01-23T08:37:00Z</time>
      </trkpt>
      <trkpt lat="48.7137" lon="2.47391">
        <ele>37.6</ele>
        <time>2019-01-23T08:37:02Z</time>
      </trkpt>
      <trkpt lat="48.71366" lon="2.47387">
        <ele>37.6</ele>
        <time>2019-01-23T08:37:05Z</time>
      </trkpt>
      <trkpt lat="48.71362" lon="2.4738">
        <ele>37.5</ele>
        <time>2019-01-23T08:37:09Z</time>
      </trkpt>
      <trkpt lat="48.71358" lon="2.47373">
        <ele>37.5</ele>
        <time>2019-01-23T08:37:13Z</time>
      </trkpt>
      <trkpt lat="48.71355" lon="2.47367">
        <ele>37.5</ele>
        <time>2019-01-23T08:37:17Z</time>
      </trkpt>
      <trkpt lat="48.71354" lon="2.4736">
        <ele>37.4</ele>
        <time>2019-01-23T08:37:21Z</time>
      </trkpt>
      <trkpt lat="48.71352" lon="2.47353">
        <ele>37.4</ele>
        <time>2019-01-23T08:37:26Z</time>
      </trkpt>
      <trkpt lat="48.7135" lon="2.47347">
        <ele>37.3</ele>
        <time>2019-01-23T08:37:29Z</time>
      </trkpt>
      <trkpt lat="48.71348" lon="2.4734">
        <ele>37.3</ele>
        <time>2019-01-23T08:37:33Z</time>
      </trkpt>
      <trkpt lat="48.71346" lon="2.47332">
        <ele>37.3</ele>
        <time>2019-01-23T08:37:37Z</time>
      </trkpt>
      <trkpt lat="48.71348" lon="2.47325">
        <ele>37.2</ele>
        <time>2019-01-23T08:37:43Z</time>
      </trkpt>
      <trkpt lat="48.71352" lon="2.47321">
        <ele>37.1</ele>
        <time>2019-01-23T08:37:47Z</time>
      </trkpt>
      <trkpt lat="48.71355" lon="2.47314">
        <ele>37.1</ele>
        <time>2019-01-23T08:37:51Z</time>
      </trkpt>
      <trkpt lat="48.71355" lon="2.47307">
        <ele>37</ele>
        <time>2019-01-23T08:37:55Z</time>
      </trkpt>
      <trkpt lat="48.71354" lon="2.473">
        <ele>37</ele>
        <time>2019-01-23T08:38:02Z</time>
      </trkpt>
      <trkpt lat="48.71352" lon="2.4729">
        <ele>36.9</ele>
        <time>2019-01-23T08:38:05Z</time>
      </trkpt>
      <trkpt lat="48.71349" lon="2.47283">
        <ele>36.9</ele>
        <time>2019-01-23T08:38:08Z</time>
      </trkpt>
      <trkpt lat="48.71346" lon="2.47275">
        <ele>36.8</ele>
        <time>2019-01-23T08:38:11Z</time>
      </trkpt>
      <trkpt lat="48.71342" lon="2.47267">
        <ele>36.8</ele>
        <time>2019-01-23T08:38:14Z</time>
      </trkpt>
      <trkpt lat="48.71339" lon="2.47259">
        <ele>36.8</ele>
        <time>2019-01-23T08:38:17Z</time>
      </trkpt>
      <trkpt lat="48.71336" lon="2.47253">
        <ele>36.7</ele>
        <time>2019-01-23T08:38:19Z</time>
      </trkpt>
      <trkpt lat="48.71333" lon="2.47247">
        <ele>36.7</ele>
        <time>2019-01-23T08:38:21Z</time>
      </trkpt>
      <trkpt lat="48.71329" lon="2.47241">
        <ele>36.6</ele>
        <time>2019-01-23T08:38:24Z</time>
      </trkpt>
      <trkpt lat="48.71326" lon="2.47234">
        <ele>36.6</ele>
        <time>2019-01-23T08:38:27Z</time>
      </trkpt>
      <trkpt lat="48.71324" lon="2.47227">
        <ele>36.5</ele>
        <time>2019-01-23T08:38:34Z</time>
      </trkpt>
      <trkpt lat="48.71322" lon="2.4722">
        <ele>36.5</ele>
        <time>2019-01-23T08:38:37Z</time>
      </trkpt>
      <trkpt lat="48.7132" lon="2.47214">
        <ele>36.4</ele>
        <time>2019-01-23T08:38:40Z</time>
      </trkpt>
      <trkpt lat="48.71318" lon="2.47208">
        <ele>36.4</ele>
        <time>2019-01-23T08:38:42Z</time>
      </trkpt>
      <trkpt lat="48.71314" lon="2.472">
        <ele>36.3</ele>
        <time>2019-01-23T08:38:45Z</time>
      </trkpt>
      <trkpt lat="48.71312" lon="2.47194">
        <ele>36.2</ele>
        <time>2019-01-23T08:38:48Z</time>
      </trkpt>
      <trkpt lat="48.7131" lon="2.47187">
        <ele>36.2</ele>
        <time>2019-01-23T08:38:52Z</time>
      </trkpt>
      <trkpt lat="48.71307" lon="2.47182">
        <ele>36.1</ele>
        <time>2019-01-23T08:38:56Z</time>
      </trkpt>
      <trkpt lat="48.71304" lon="2.47177">
        <ele>36.1</ele>
        <time>2019-01-23T08:39:01Z</time>
      </trkpt>
      <trkpt lat="48.713" lon="2.47171">
        <ele>36</ele>
        <time>2019-01-23T08:39:05Z</time>
      </trkpt>
      <trkpt lat="48.71298" lon="2.47164">
        <ele>36</ele>
        <time>2019-01-23T08:39:11Z</time>
      </trkpt>
      <trkpt lat="48.71296" lon="2.47158">
        <ele>35.9</ele>
        <time>2019-01-23T08:39:14Z</time>
      </trkpt>
      <trkpt lat="48.71295" lon="2.4715">
        <ele>35.9</ele>
        <time>2019-01-23T08:39:19Z</time>
      </trkpt>
      <trkpt lat="48.71292" lon="2.47144">
        <ele>35.8</ele>
        <time>2019-01-23T08:39:23Z</time>
      </trkpt>
      <trkpt lat="48.7129" lon="2.47137">
        <ele>35.8</ele>
        <time>2019-01-23T08:39:27Z</time>
      </trkpt>
      <trkpt lat="48.71288" lon="2.47129">
        <ele>35.7</ele>
        <time>2019-01-23T08:39:32Z</time>
      </trkpt>
      <trkpt lat="48.71287" lon="2.47121">
        <ele>35.7</ele>
        <time>2019-01-23T08:39:36Z</time>
      </trkpt>
      <trkpt lat="48.71286" lon="2.47113">
        <ele>35.7</ele>
        <time>2019-01-23T08:39:40Z</time>
      </trkpt>
      <trkpt lat="48.71284" lon="2.47106">
        <ele>35.7</ele>
        <time>2019-01-23T08:39:43Z</time>
      </trkpt>
      <trkpt lat="48.71283" lon="2.47099">
        <ele>35.6</ele>
        <time>2019-01-23T08:39:46Z</time>
      </trkpt>
      <trkpt lat="48.71282" lon="2.47092">
        <ele>35.6</ele>
        <time>2019-01-23T08:39:51Z</time>
      </trkpt>
      <trkpt lat="48.71279" lon="2.47085">
        <ele>35.6</ele>
        <time>2019-01-23T08:39:57Z</time>
      </trkpt>
      <trkpt lat="48.71277" lon="2.47078">
        <ele>35.6</ele>
        <time>2019-01-23T08:40:02Z</time>
      </trkpt>
      <trkpt lat="48.71276" lon="2.47071">
        <ele>35.5</ele>
        <time>2019-01-23T08:40:06Z</time>
      </trkpt>
      <trkpt lat="48.71274" lon="2.47064">
        <ele>35.5</ele>
        <time>2019-01-23T08:40:09Z</time>
      </trkpt>
      <trkpt lat="48.71272" lon="2.47058">
        <ele>35.5</ele>
        <time>2019-01-23T08:40:12Z</time>
      </trkpt>
      <trkpt lat="48.7127" lon="2.47052">
        <ele>35.5</ele>
        <time>2019-01-23T08:40:15Z</time>
      </trkpt>
      <trkpt lat="48.71268" lon="2.47046">
        <ele>35.5</ele>
        <time>2019-01-23T08:40:18Z</time>
      </trkpt>
      <trkpt lat="48.71264" lon="2.47039">
        <ele>35.5</ele>
        <time>2019-01-23T08:40:22Z</time>
      </trkpt>
      <trkpt lat="48.71261" lon="2.47033">
        <ele>35.4</ele>
        <time>2019-01-23T08:40:26Z</time>
      </trkpt>
      <trkpt lat="48.71257" lon="2.47028">
        <ele>35.4</ele>
        <time>2019-01-23T08:40:29Z</time>
      </trkpt>
      <trkpt lat="48.71253" lon="2.4702">
        <ele>35.4</ele>
        <time>2019-01-23T08:40:33Z</time>
      </trkpt>
      <trkpt lat="48.71251" lon="2.47013">
        <ele>35.4</ele>
        <time>2019-01-23T08:40:38Z</time>
      </trkpt>
      <trkpt lat="48.71248" lon="2.47007">
        <ele>35.4</ele>
        <time>2019-01-23T08:40:42Z</time>
      </trkpt>
      <trkpt lat="48.71246" lon="2.47">
        <ele>35.4</ele>
        <time>2019-01-23T08:40:47Z</time>
      </trkpt>
      <trkpt lat="48.71243" lon="2.46993">
        <ele>35.4</ele>
        <time>2019-01-23T08:41:01Z</time>
      </trkpt>
      <trkpt lat="48.71242" lon="2.46987">
        <ele>35.4</ele>
        <time>2019-01-23T08:41:05Z</time>
      </trkpt>
      <trkpt lat="48.71239" lon="2.4698">
        <ele>35.4</ele>
        <time>2019-01-23T08:41:09Z</time>
      </trkpt>
      <trkpt lat="48.71237" lon="2.46973">
        <ele>35.4</ele>
        <time>2019-01-23T08:41:14Z</time>
      </trkpt>
      <trkpt lat="48.71234" lon="2.46968">
        <ele>35.4</ele>
        <time>2019-01-23T08:41:20Z</time>
      </trkpt>
      <trkpt lat="48.71231" lon="2.46962">
        <ele>35.4</ele>
        <time>2019-01-23T08:41:24Z</time>
      </trkpt>
      <trkpt lat="48.71227" lon="2.46957">
        <ele>35.4</ele>
        <time>2019-01-23T08:41:28Z</time>
      </trkpt>
      <trkpt lat="48.71221" lon="2.46951">
        <ele>35.4</ele>
        <time>2019-01-23T08:41:31Z</time>
      </trkpt>
      <trkpt lat="48.71217" lon="2.46947">
        <ele>35.4</ele>
        <time>2019-01-23T08:41:34Z</time>
      </trkpt>
      <trkpt lat="48.71213" lon="2.46942">
        <ele>35.4</ele>
        <time>2019-01-23T08:41:37Z</time>
      </trkpt>
      <trkpt lat="48.71209" lon="2.46937">
        <ele>35.4</ele>
        <time>2019-01-23T08:41:41Z</time>
      </trkpt>
      <trkpt lat="48.71204" lon="2.46933">
        <ele>35.4</ele>
        <time>2019-01-23T08:41:45Z</time>
      </trkpt>
      <trkpt lat="48.71201" lon="2.46928">
        <ele>35.4</ele>
        <time>2019-01-23T08:41:49Z</time>
      </trkpt>
      <trkpt lat="48.71197" lon="2.46923">
        <ele>35.4</ele>
        <time>2019-01-23T08:41:53Z</time>
      </trkpt>
      <trkpt lat="48.71195" lon="2.46916">
        <ele>35.4</ele>
        <time>2019-01-23T08:41:58Z</time>
      </trkpt>
      <trkpt lat="48.71196" lon="2.46908">
        <ele>35.4</ele>
        <time>2019-01-23T08:42:04Z</time>
      </trkpt>
      <trkpt lat="48.71199" lon="2.46902">
        <ele>35.4</ele>
        <time>2019-01-23T08:42:07Z</time>
      </trkpt>
      <trkpt lat="48.71202" lon="2.46896">
        <ele>35.4</ele>
        <time>2019-01-23T08:42:10Z</time>
      </trkpt>
      <trkpt lat="48.71205" lon="2.46889">
        <ele>35.4</ele>
        <time>2019-01-23T08:42:15Z</time>
      </trkpt>
      <trkpt lat="48.71205" lon="2.4688">
        <ele>35.4</ele>
        <time>2019-01-23T08:42:20Z</time>
      </trkpt>
      <trkpt lat="48.71201" lon="2.46875">
        <ele>35.4</ele>
        <time>2019-01-23T08:42:33Z</time>
      </trkpt>
      <trkpt lat="48.71199" lon="2.46869">
        <ele>35.4</ele>
        <time>2019-01-23T08:42:36Z</time>
      </trkpt>
      <trkpt lat="48.71195" lon="2.46866">
        <ele>35.4</ele>
        <time>2019-01-23T08:42:39Z</time>
      </trkpt>
      <trkpt lat="48.7119" lon="2.46867">
        <ele>35.4</ele>
        <time>2019-01-23T08:42:43Z</time>
      </trkpt>
      <trkpt lat="48.71187" lon="2.46862">
        <ele>35.4</ele>
        <time>2019-01-23T08:42:48Z</time>
      </trkpt>
      <trkpt lat="48.71182" lon="2.46857">
        <ele>35.4</ele>
        <time>2019-01-23T08:42:51Z</time>
      </trkpt>
      <trkpt lat="48.71176" lon="2.46852">
        <ele>35.4</ele>
        <time>2019-01-23T08:42:53Z</time>
      </trkpt>
      <trkpt lat="48.71172" lon="2.46848">
        <ele>35.4</ele>
        <time>2019-01-23T08:42:56Z</time>
      </trkpt>
      <trkpt lat="48.71167" lon="2.46846">
        <ele>35.4</ele>
        <time>2019-01-23T08:43:00Z</time>
      </trkpt>
      <trkpt lat="48.71163" lon="2.46844">
        <ele>35.4</ele>
        <time>2019-01-23T08:43:03Z</time>
      </trkpt>
      <trkpt lat="48.71159" lon="2.4684">
        <ele>35.4</ele>
        <time>2019-01-23T08:43:07Z</time>
      </trkpt>
      <trkpt lat="48.71155" lon="2.46835">
        <ele>35.4</ele>
        <time>2019-01-23T08:43:11Z</time>
      </trkpt>
      <trkpt lat="48.7115" lon="2.46833">
        <ele>35.4</ele>
        <time>2019-01-23T08:43:15Z</time>
      </trkpt>
      <trkpt lat="48.71146" lon="2.4683">
        <ele>35.4</ele>
        <time>2019-01-23T08:43:20Z</time>
      </trkpt>
      <trkpt lat="48.71144" lon="2.46824">
        <ele>35.4</ele>
        <time>2019-01-23T08:43:33Z</time>
      </trkpt>
      <trkpt lat="48.71139" lon="2.46819">
        <ele>35.4</ele>
        <time>2019-01-23T08:43:42Z</time>
      </trkpt>
      <trkpt lat="48.71137" lon="2.46812">
        <ele>35.4</ele>
        <time>2019-01-23T08:43:45Z</time>
      </trkpt>
      <trkpt lat="48.71135" lon="2.46803">
        <ele>35.4</ele>
        <time>2019-01-23T08:43:48Z</time>
      </trkpt>
      <trkpt lat="48.71132" lon="2.46797">
        <ele>35.3</ele>
        <time>2019-01-23T08:43:50Z</time>
      </trkpt>
      <trkpt lat="48.7113" lon="2.46789">
        <ele>35.3</ele>
        <time>2019-01-23T08:43:53Z</time>
      </trkpt>
      <trkpt lat="48.71128" lon="2.46782">
        <ele>35.3</ele>
        <time>2019-01-23T08:43:55Z</time>
      </trkpt>
      <trkpt lat="48.71125" lon="2.46773">
        <ele>35.3</ele>
        <time>2019-01-23T08:43:58Z</time>
      </trkpt>
      <trkpt lat="48.71123" lon="2.46766">
        <ele>35.3</ele>
        <time>2019-01-23T08:44:01Z</time>
      </trkpt>
      <trkpt lat="48.71123" lon="2.46757">
        <ele>35.3</ele>
        <time>2019-01-23T08:44:05Z</time>
      </trkpt>
      <trkpt lat="48.71122" lon="2.46748">
        <ele>35.3</ele>
        <time>2019-01-23T08:44:08Z</time>
      </trkpt>
      <trkpt lat="48.71121" lon="2.46741">
        <ele>35.3</ele>
        <time>2019-01-23T08:44:11Z</time>
      </trkpt>
      <trkpt lat="48.7112" lon="2.46734">
        <ele>35.3</ele>
        <time>2019-01-23T08:44:14Z</time>
      </trkpt>
      <trkpt lat="48.71118" lon="2.46726">
        <ele>35.3</ele>
        <time>2019-01-23T08:44:17Z</time>
      </trkpt>
      <trkpt lat="48.71118" lon="2.46718">
        <ele>35.3</ele>
        <time>2019-01-23T08:44:19Z</time>
      </trkpt>
      <trkpt lat="48.71117" lon="2.46711">
        <ele>35.3</ele>
        <time>2019-01-23T08:44:22Z</time>
      </trkpt>
      <trkpt lat="48.71116" lon="2.46704">
        <ele>35.3</ele>
        <time>2019-01-23T08:44:25Z</time>
      </trkpt>
      <trkpt lat="48.71116" lon="2.46697">
        <ele>35.3</ele>
        <time>2019-01-23T08:44:29Z</time>
      </trkpt>
      <trkpt lat="48.71115" lon="2.46688">
        <ele>35.2</ele>
        <time>2019-01-23T08:44:33Z</time>
      </trkpt>
      <trkpt lat="48.71113" lon="2.4668">
        <ele>35.2</ele>
        <time>2019-01-23T08:44:37Z</time>
      </trkpt>
      <trkpt lat="48.71114" lon="2.46673">
        <ele>35.2</ele>
        <time>2019-01-23T08:44:40Z</time>
      </trkpt>
      <trkpt lat="48.71114" lon="2.46664">
        <ele>35.2</ele>
        <time>2019-01-23T08:44:43Z</time>
      </trkpt>
      <trkpt lat="48.71114" lon="2.46655">
        <ele>35.2</ele>
        <time>2019-01-23T08:44:49Z</time>
      </trkpt>
      <trkpt lat="48.71114" lon="2.46648">
        <ele>35.2</ele>
        <time>2019-01-23T08:44:53Z</time>
      </trkpt>
      <trkpt lat="48.71112" lon="2.4664">
        <ele>35.2</ele>
        <time>2019-01-23T08:44:57Z</time>
      </trkpt>
      <trkpt lat="48.7111" lon="2.46632">
        <ele>35.2</ele>
        <time>2019-01-23T08:45:01Z</time>
      </trkpt>
      <trkpt lat="48.7111" lon="2.46623">
        <ele>35.2</ele>
        <time>2019-01-23T08:45:06Z</time>
      </trkpt>
      <trkpt lat="48.71109" lon="2.46615">
        <ele>35.2</ele>
        <time>2019-01-23T08:45:10Z</time>
      </trkpt>
      <trkpt lat="48.71107" lon="2.46608">
        <ele>35.2</ele>
        <time>2019-01-23T08:45:13Z</time>
      </trkpt>
      <trkpt lat="48.71107" lon="2.46601">
        <ele>35.2</ele>
        <time>2019-01-23T08:45:17Z</time>
      </trkpt>
      <trkpt lat="48.71108" lon="2.46594">
        <ele>35.1</ele>
        <time>2019-01-23T08:45:23Z</time>
      </trkpt>
      <trkpt lat="48.71108" lon="2.46587">
        <ele>35.1</ele>
        <time>2019-01-23T08:45:28Z</time>
      </trkpt>
      <trkpt lat="48.71107" lon="2.46579">
        <ele>35.1</ele>
        <time>2019-01-23T08:45:32Z</time>
      </trkpt>
      <trkpt lat="48.71107" lon="2.46572">
        <ele>35.1</ele>
        <time>2019-01-23T08:45:36Z</time>
      </trkpt>
      <trkpt lat="48.71106" lon="2.46564">
        <ele>35.1</ele>
        <time>2019-01-23T08:45:40Z</time>
      </trkpt>
      <trkpt lat="48.71107" lon="2.46555">
        <ele>35.1</ele>
        <time>2019-01-23T08:45:46Z</time>
      </trkpt>
      <trkpt lat="48.71106" lon="2.46546">
        <ele>35.1</ele>
        <time>2019-01-23T08:45:50Z</time>
      </trkpt>
      <trkpt lat="48.71108" lon="2.46539">
        <ele>35.1</ele>
        <time>2019-01-23T08:45:55Z</time>
      </trkpt>
      <trkpt lat="48.71108" lon="2.46531">
        <ele>35</ele>
        <time>2019-01-23T08:46:00Z</time>
      </trkpt>
      <trkpt lat="48.71106" lon="2.46524">
        <ele>35</ele>
        <time>2019-01-23T08:46:03Z</time>
      </trkpt>
      <trkpt lat="48.71104" lon="2.46518">
        <ele>35</ele>
        <time>2019-01-23T08:46:07Z</time>
      </trkpt>
      <trkpt lat="48.71104" lon="2.46509">
        <ele>35</ele>
        <time>2019-01-23T08:46:12Z</time>
      </trkpt>
      <trkpt lat="48.71105" lon="2.46502">
        <ele>35</ele>
        <time>2019-01-23T08:46:16Z</time>
      </trkpt>
      <trkpt lat="48.71106" lon="2.46493">
        <ele>35</ele>
        <time>2019-01-23T08:46:21Z</time>
      </trkpt>
      <trkpt lat="48.71107" lon="2.46486">
        <ele>35</ele>
        <time>2019-01-23T08:46:26Z</time>
      </trkpt>
      <trkpt lat="48.71107" lon="2.46478">
        <ele>35</ele>
        <time>2019-01-23T08:46:32Z</time>
      </trkpt>
      <trkpt lat="48.71107" lon="2.4647">
        <ele>34.9</ele>
        <time>2019-01-23T08:46:36Z</time>
      </trkpt>
      <trkpt lat="48.71106" lon="2.46463">
        <ele>34.9</ele>
        <time>2019-01-23T08:46:39Z</time>
      </trkpt>
      <trkpt lat="48.71101" lon="2.46457">
        <ele>34.9</ele>
        <time>2019-01-23T08:46:43Z</time>
      </trkpt>
      <trkpt lat="48.71096" lon="2.46454">
        <ele>34.9</ele>
        <time>2019-01-23T08:46:47Z</time>
      </trkpt>
      <trkpt lat="48.71091" lon="2.46452">
        <ele>34.9</ele>
        <time>2019-01-23T08:46:54Z</time>
      </trkpt>
      <trkpt lat="48.71086" lon="2.46452">
        <ele>34.9</ele>
        <time>2019-01-23T08:46:59Z</time>
      </trkpt>
      <trkpt lat="48.71081" lon="2.46452">
        <ele>34.9</ele>
        <time>2019-01-23T08:47:04Z</time>
      </trkpt>
      <trkpt lat="48.71076" lon="2.4645">
        <ele>34.9</ele>
        <time>2019-01-23T08:47:08Z</time>
      </trkpt>
      <trkpt lat="48.71071" lon="2.46448">
        <ele>34.9</ele>
        <time>2019-01-23T08:47:11Z</time>
      </trkpt>
      <trkpt lat="48.71072" lon="2.46441">
        <ele>34.9</ele>
        <time>2019-01-23T08:47:17Z</time>
      </trkpt>
      <trkpt lat="48.71072" lon="2.46432">
        <ele>34.9</ele>
        <time>2019-01-23T08:47:22Z</time>
      </trkpt>
      <trkpt lat="48.71072" lon="2.46425">
        <ele>34.9</ele>
        <time>2019-01-23T08:47:26Z</time>
      </trkpt>
      <trkpt lat="48.71072" lon="2.46417">
        <ele>34.8</ele>
        <time>2019-01-23T08:47:30Z</time>
      </trkpt>
      <trkpt lat="48.71073" lon="2.46408">
        <ele>34.8</ele>
        <time>2019-01-23T08:47:35Z</time>
      </trkpt>
      <trkpt lat="48.71072" lon="2.46401">
        <ele>34.8</ele>
        <time>2019-01-23T08:47:40Z</time>
      </trkpt>
      <trkpt lat="48.71072" lon="2.46392">
        <ele>34.8</ele>
        <time>2019-01-23T08:47:45Z</time>
      </trkpt>
      <trkpt lat="48.71072" lon="2.46385">
        <ele>34.8</ele>
        <time>2019-01-23T08:47:48Z</time>
      </trkpt>
      <trkpt lat="48.7107" lon="2.46377">
        <ele>34.8</ele>
        <time>2019-01-23T08:47:51Z</time>
      </trkpt>
      <trkpt lat="48.7107" lon="2.4637">
        <ele>34.8</ele>
        <time>2019-01-23T08:47:55Z</time>
      </trkpt>
      <trkpt lat="48.7107" lon="2.46363">
        <ele>34.8</ele>
        <time>2019-01-23T08:47:58Z</time>
      </trkpt>
      <trkpt lat="48.7107" lon="2.46355">
        <ele>34.7</ele>
        <time>2019-01-23T08:48:02Z</time>
      </trkpt>
      <trkpt lat="48.71069" lon="2.46348">
        <ele>34.7</ele>
        <time>2019-01-23T08:48:05Z</time>
      </trkpt>
      <trkpt lat="48.71069" lon="2.4634">
        <ele>34.7</ele>
        <time>2019-01-23T08:48:09Z</time>
      </trkpt>
      <trkpt lat="48.71069" lon="2.46333">
        <ele>34.7</ele>
        <time>2019-01-23T08:48:14Z</time>
      </trkpt>
      <trkpt lat="48.71069" lon="2.46324">
        <ele>34.7</ele>
        <time>2019-01-23T08:48:18Z</time>
      </trkpt>
      <trkpt lat="48.7107" lon="2.46315">
        <ele>34.6</ele>
        <time>2019-01-23T08:48:22Z</time>
      </trkpt>
      <trkpt lat="48.7107" lon="2.46307">
        <ele>34.6</ele>
        <time>2019-01-23T08:48:26Z</time>
      </trkpt>
      <trkpt lat="48.71072" lon="2.46299">
        <ele>34.6</ele>
        <time>2019-01-23T08:48:31Z</time>
      </trkpt>
      <trkpt lat="48.71074" lon="2.46291">
        <ele>34.6</ele>
        <time>2019-01-23T08:48:36Z</time>
      </trkpt>
      <trkpt lat="48.71075" lon="2.46283">
        <ele>34.6</ele>
        <time>2019-01-23T08:48:42Z</time>
      </trkpt>
      <trkpt lat="48.71078" lon="2.46277">
        <ele>34.6</ele>
        <time>2019-01-23T08:48:45Z</time>
      </trkpt>
      <trkpt lat="48.71078" lon="2.46269">
        <ele>34.5</ele>
        <time>2019-01-23T08:48:49Z</time>
      </trkpt>
      <trkpt lat="48.7108" lon="2.46262">
        <ele>34.5</ele>
        <time>2019-01-23T08:48:54Z</time>
      </trkpt>
      <trkpt lat="48.71082" lon="2.46254">
        <ele>34.5</ele>
        <time>2019-01-23T08:48:57Z</time>
      </trkpt>
      <trkpt lat="48.71084" lon="2.46248">
        <ele>34.5</ele>
        <time>2019-01-23T08:49:01Z</time>
      </trkpt>
      <trkpt lat="48.71087" lon="2.46241">
        <ele>34.5</ele>
        <time>2019-01-23T08:49:05Z</time>
      </trkpt>
      <trkpt lat="48.71088" lon="2.46232">
        <ele>34.5</ele>
        <time>2019-01-23T08:49:09Z</time>
      </trkpt>
      <trkpt lat="48.71092" lon="2.46226">
        <ele>34.5</ele>
        <time>2019-01-23T08:49:13Z</time>
      </trkpt>
      <trkpt lat="48.71093" lon="2.46219">
        <ele>34.5</ele>
        <time>2019-01-23T08:49:17Z</time>
      </trkpt>
      <trkpt lat="48.71095" lon="2.46211">
        <ele>34.5</ele>
        <time>2019-01-23T08:49:21Z</time>
      </trkpt>
      <trkpt lat="48.71097" lon="2.46204">
        <ele>34.5</ele>
        <time>2019-01-23T08:49:25Z</time>
      </trkpt>
      <trkpt lat="48.71099" lon="2.46197">
        <ele>34.5</ele>
        <time>2019-01-23T08:49:30Z</time>
      </trkpt>
      <trkpt lat="48.71101" lon="2.46189">
        <ele>34.5</ele>
        <time>2019-01-23T08:49:36Z</time>
      </trkpt>
      <trkpt lat="48.71103" lon="2.46183">
        <ele>34.5</ele>
        <time>2019-01-23T08:49:41Z</time>
      </trkpt>
      <trkpt lat="48.71106" lon="2.46177">
        <ele>34.5</ele>
        <time>2019-01-23T08:49:44Z</time>
      </trkpt>
      <trkpt lat="48.71107" lon="2.46168">
        <ele>34.5</ele>
        <time>2019-01-23T08:49:48Z</time>
      </trkpt>
      <trkpt lat="48.71107" lon="2.4616">
        <ele>34.4</ele>
        <time>2019-01-23T08:49:52Z</time>
      </trkpt>
      <trkpt lat="48.71108" lon="2.46152">
        <ele>34.4</ele>
        <time>2019-01-23T08:49:55Z</time>
      </trkpt>
      <trkpt lat="48.71108" lon="2.46145">
        <ele>34.4</ele>
        <time>2019-01-23T08:49:58Z</time>
      </trkpt>
      <trkpt lat="48.71109" lon="2.46138">
        <ele>34.4</ele>
        <time>2019-01-23T08:50:01Z</time>
      </trkpt>
      <trkpt lat="48.71111" lon="2.46131">
        <ele>34.4</ele>
        <time>2019-01-23T08:50:03Z</time>
      </trkpt>
      <trkpt lat="48.7111" lon="2.46124">
        <ele>34.4</ele>
        <time>2019-01-23T08:50:08Z</time>
      </trkpt>
      <trkpt lat="48.71112" lon="2.46116">
        <ele>34.4</ele>
        <time>2019-01-23T08:50:13Z</time>
      </trkpt>
      <trkpt lat="48.71114" lon="2.46109">
        <ele>34.4</ele>
        <time>2019-01-23T08:50:18Z</time>
      </trkpt>
      <trkpt lat="48.71115" lon="2.46102">
        <ele>34.4</ele>
        <time>2019-01-23T08:50:21Z</time>
      </trkpt>
      <trkpt lat="48.71116" lon="2.46095">
        <ele>34.4</ele>
        <time>2019-01-23T08:50:25Z</time>
      </trkpt>
      <trkpt lat="48.71118" lon="2.46088">
        <ele>34.4</ele>
        <time>2019-01-23T08:50:28Z</time>
      </trkpt>
      <trkpt lat="48.71119" lon="2.4608">
        <ele>34.4</ele>
        <time>2019-01-23T08:50:32Z</time>
      </trkpt>
      <trkpt lat="48.7112" lon="2.46072">
        <ele>34.4</ele>
        <time>2019-01-23T08:50:37Z</time>
      </trkpt>
      <trkpt lat="48.71123" lon="2.46065">
        <ele>34.3</ele>
        <time>2019-01-23T08:50:42Z</time>
      </trkpt>
      <trkpt lat="48.71126" lon="2.46059">
        <ele>34.3</ele>
        <time>2019-01-23T08:50:46Z</time>
      </trkpt>
      <trkpt lat="48.71128" lon="2.46053">
        <ele>34.3</ele>
        <time>2019-01-23T08:50:50Z</time>
      </trkpt>
      <trkpt lat="48.71131" lon="2.46046">
        <ele>34.3</ele>
        <time>2019-01-23T08:50:54Z</time>
      </trkpt>
      <trkpt lat="48.71134" lon="2.46041">
        <ele>34.3</ele>
        <time>2019-01-23T08:50:59Z</time>
      </trkpt>
      <trkpt lat="48.71137" lon="2.46035">
        <ele>34.3</ele>
        <time>2019-01-23T08:51:03Z</time>
      </trkpt>
      <trkpt lat="48.71139" lon="2.46027">
        <ele>34.3</ele>
        <time>2019-01-23T08:51:07Z</time>
      </trkpt>
      <trkpt lat="48.71141" lon="2.46019">
        <ele>34.3</ele>
        <time>2019-01-23T08:51:11Z</time>
      </trkpt>
      <trkpt lat="48.71141" lon="2.46011">
        <ele>34.3</ele>
        <time>2019-01-23T08:51:17Z</time>
      </trkpt>
      <trkpt lat="48.71142" lon="2.46003">
        <ele>34.3</ele>
        <time>2019-01-23T08:51:21Z</time>
      </trkpt>
      <trkpt lat="48.71144" lon="2.45995">
        <ele>34.3</ele>
        <time>2019-01-23T08:51:25Z</time>
      </trkpt>
      <trkpt lat="48.71144" lon="2.45987">
        <ele>34.3</ele>
        <time>2019-01-23T08:51:31Z</time>
      </trkpt>
      <trkpt lat="48.71145" lon="2.4598">
        <ele>34.3</ele>
        <time>2019-01-23T08:51:35Z</time>
      </trkpt>
      <trkpt lat="48.71148" lon="2.45973">
        <ele>34.3</ele>
        <time>2019-01-23T08:51:38Z</time>
      </trkpt>
      <trkpt lat="48.71149" lon="2.45964">
        <ele>34.3</ele>
        <time>2019-01-23T08:51:41Z</time>
      </trkpt>
      <trkpt lat="48.71149" lon="2.45957">
        <ele>34.3</ele>
        <time>2019-01-23T08:51:45Z</time>
      </trkpt>
      <trkpt lat="48.7115" lon="2.4595">
        <ele>34.2</ele>
        <time>2019-01-23T08:51:49Z</time>
      </trkpt>
      <trkpt lat="48.71152" lon="2.45943">
        <ele>34.2</ele>
        <time>2019-01-23T08:51:54Z</time>
      </trkpt>
      <trkpt lat="48.71154" lon="2.45936">
        <ele>34.2</ele>
        <time>2019-01-23T08:51:59Z</time>
      </trkpt>
      <trkpt lat="48.71158" lon="2.4593">
        <ele>34.2</ele>
        <time>2019-01-23T08:52:04Z</time>
      </trkpt>
      <trkpt lat="48.71162" lon="2.45922">
        <ele>34.2</ele>
        <time>2019-01-23T08:52:10Z</time>
      </trkpt>
      <trkpt lat="48.71163" lon="2.45915">
        <ele>34.2</ele>
        <time>2019-01-23T08:52:13Z</time>
      </trkpt>
      <trkpt lat="48.71165" lon="2.45908">
        <ele>34.1</ele>
        <time>2019-01-23T08:52:17Z</time>
      </trkpt>
      <trkpt lat="48.71166" lon="2.459">
        <ele>34.1</ele>
        <time>2019-01-23T08:52:21Z</time>
      </trkpt>
      <trkpt lat="48.71165" lon="2.45892">
        <ele>34.1</ele>
        <time>2019-01-23T08:52:26Z</time>
      </trkpt>
      <trkpt lat="48.71167" lon="2.45884">
        <ele>34.1</ele>
        <time>2019-01-23T08:52:30Z</time>
      </trkpt>
      <trkpt lat="48.71169" lon="2.45876">
        <ele>34.1</ele>
        <time>2019-01-23T08:52:34Z</time>
      </trkpt>
      <trkpt lat="48.71172" lon="2.4587">
        <ele>34</ele>
        <time>2019-01-23T08:52:37Z</time>
      </trkpt>
      <trkpt lat="48.71171" lon="2.45863">
        <ele>34</ele>
        <time>2019-01-23T08:52:41Z</time>
      </trkpt>
      <trkpt lat="48.71166" lon="2.45855">
        <ele>34</ele>
        <time>2019-01-23T08:52:44Z</time>
      </trkpt>
      <trkpt lat="48.71163" lon="2.4585">
        <ele>34</ele>
        <time>2019-01-23T08:52:46Z</time>
      </trkpt>
      <trkpt lat="48.71158" lon="2.45845">
        <ele>34</ele>
        <time>2019-01-23T08:52:49Z</time>
      </trkpt>
      <trkpt lat="48.71155" lon="2.4584">
        <ele>33.9</ele>
        <time>2019-01-23T08:52:53Z</time>
      </trkpt>
      <trkpt lat="48.7115" lon="2.45834">
        <ele>33.9</ele>
        <time>2019-01-23T08:52:58Z</time>
      </trkpt>
      <trkpt lat="48.71146" lon="2.4583">
        <ele>33.9</ele>
        <time>2019-01-23T08:53:01Z</time>
      </trkpt>
      <trkpt lat="48.71143" lon="2.45825">
        <ele>33.9</ele>
        <time>2019-01-23T08:53:05Z</time>
      </trkpt>
      <trkpt lat="48.71138" lon="2.4582">
        <ele>33.9</ele>
        <time>2019-01-23T08:53:09Z</time>
      </trkpt>
      <trkpt lat="48.71134" lon="2.45817">
        <ele>33.9</ele>
        <time>2019-01-23T08:53:14Z</time>
      </trkpt>
      <trkpt lat="48.71129" lon="2.45814">
        <ele>33.9</ele>
        <time>2019-01-23T08:53:18Z</time>
      </trkpt>
      <trkpt lat="48.71124" lon="2.45807">
        <ele>33.9</ele>
        <time>2019-01-23T08:53:23Z</time>
      </trkpt>
      <trkpt lat="48.7112" lon="2.45804">
        <ele>33.9</ele>
        <time>2019-01-23T08:53:27Z</time>
      </trkpt>
      <trkpt lat="48.71115" lon="2.458">
        <ele>33.9</ele>
        <time>2019-01-23T08:53:31Z</time>
      </trkpt>
      <trkpt lat="48.71112" lon="2.45794">
        <ele>33.9</ele>
        <time>2019-01-23T08:53:35Z</time>
      </trkpt>
      <trkpt lat="48.71108" lon="2.45788">
        <ele>33.9</ele>
        <time>2019-01-23T08:53:40Z</time>
      </trkpt>
      <trkpt lat="48.71104" lon="2.45783">
        <ele>33.9</ele>
        <time>2019-01-23T08:53:45Z</time>
      </trkpt>
      <trkpt lat="48.71105" lon="2.45775">
        <ele>33.8</ele>
        <time>2019-01-23T08:53:50Z</time>
      </trkpt>
      <trkpt lat="48.71108" lon="2.4577">
        <ele>33.8</ele>
        <time>2019-01-23T08:53:53Z</time>
      </trkpt>
      <trkpt lat="48.71112" lon="2.45765">
        <ele>33.8</ele>
        <time>2019-01-23T08:53:56Z</time>
      </trkpt>
      <trkpt lat="48.71116" lon="2.45763">
        <ele>33.8</ele>
        <time>2019-01-23T08:54:00Z</time>
      </trkpt>
      <trkpt lat="48.71121" lon="2.45759">
        <ele>33.8</ele>
        <time>2019-01-23T08:54:07Z</time>
      </trkpt>
      <trkpt lat="48.71125" lon="2.45757">
        <ele>33.8</ele>
        <time>2019-01-23T08:54:12Z</time>
      </trkpt>
      <trkpt lat="48.71129" lon="2.45754">
        <ele>33.8</ele>
        <time>2019-01-23T08:54:19Z</time>
      </trkpt>
      <trkpt lat="48.71136" lon="2.45757">
        <ele>33.8</ele>
        <time>2019-01-23T08:54:22Z</time>
      </trkpt>
      <trkpt lat="48.7114" lon="2.45758">
        <ele>33.8</ele>
        <time>2019-01-23T08:54:25Z</time>
      </trkpt>
      <trkpt lat="48.71145" lon="2.45757">
        <ele>33.8</ele>
        <time>2019-01-23T08:54:29Z</time>
      </trkpt>
      <trkpt lat="48.7115" lon="2.45756">
        <ele>33.8</ele>
        <time>2019-01-23T08:54:32Z</time>
      </trkpt>
      <trkpt lat="48.71155" lon="2.45756">
        <ele>33.8</ele>
        <time>2019-01-23T08:54:35Z</time>
      </trkpt>
      <trkpt lat="48.7116" lon="2.45758">
        <ele>33.8</ele>
        <time>2019-01-23T08:54:38Z</time>
      </trkpt>
      <trkpt lat="48.71165" lon="2.45759">
        <ele>33.8</ele>
        <time>2019-01-23T08:54:43Z</time>
      </trkpt>
      <trkpt lat="48.7117" lon="2.45761">
        <ele>33.7</ele>
        <time>2019-01-23T08:54:46Z</time>
      </trkpt>
      <trkpt lat="48.71175" lon="2.45762">
        <ele>33.7</ele>
        <time>2019-01-23T08:54:50Z</time>
      </trkpt>
      <trkpt lat="48.7118" lon="2.45763">
        <ele>33.7</ele>
        <time>2019-01-23T08:54:57Z</time>
      </trkpt>
      <trkpt lat="48.71185" lon="2.45764">
        <ele>33.7</ele>
        <time>2019-01-23T08:55:04Z</time>
      </trkpt>
      <trkpt lat="48.7119" lon="2.45762">
        <ele>33.7</ele>
        <time>2019-01-23T08:55:08Z</time>
      </trkpt>
      <trkpt lat="48.71195" lon="2.45761">
        <ele>33.7</ele>
        <time>2019-01-23T08:55:15Z</time>
      </trkpt>
      <trkpt lat="48.71201" lon="2.45761">
        <ele>33.7</ele>
        <time>2019-01-23T08:55:19Z</time>
      </trkpt>
      <trkpt lat="48.71208" lon="2.45762">
        <ele>33.7</ele>
        <time>2019-01-23T08:55:24Z</time>
      </trkpt>
      <trkpt lat="48.71213" lon="2.45765">
        <ele>33.7</ele>
        <time>2019-01-23T08:55:26Z</time>
      </trkpt>
      <trkpt lat="48.7122" lon="2.45764">
        <ele>33.6</ele>
        <time>2019-01-23T08:55:29Z</time>
      </trkpt>
      <trkpt lat="48.71225" lon="2.45763">
        <ele>33.6</ele>
        <time>2019-01-23T08:55:33Z</time>
      </trkpt>
      <trkpt lat="48.7123" lon="2.4576">
        <ele>33.6</ele>
        <time>2019-01-23T08:55:37Z</time>
      </trkpt>
      <trkpt lat="48.71235" lon="2.45759">
        <ele>33.6</ele>
        <time>2019-01-23T08:55:42Z</time>
      </trkpt>
      <trkpt lat="48.71241" lon="2.45759">
        <ele>33.6</ele>
        <time>2019-01-23T08:55:45Z</time>
      </trkpt>
      <trkpt lat="48.71245" lon="2.45759">
        <ele>33.6</ele>
        <time>2019-01-23T08:55:48Z</time>
      </trkpt>
      <trkpt lat="48.71251" lon="2.45757">
        <ele>33.6</ele>
        <time>2019-01-23T08:55:54Z</time>
      </trkpt>
      <trkpt lat="48.71256" lon="2.45755">
        <ele>33.6</ele>
        <time>2019-01-23T08:55:58Z</time>
      </trkpt>
      <trkpt lat="48.7126" lon="2.45751">
        <ele>33.6</ele>
        <time>2019-01-23T08:56:02Z</time>
      </trkpt>
      <trkpt lat="48.71265" lon="2.45745">
        <ele>33.6</ele>
        <time>2019-01-23T08:56:05Z</time>
      </trkpt>
      <trkpt lat="48.71269" lon="2.45741">
        <ele>33.5</ele>
        <time>2019-01-23T08:56:08Z</time>
      </trkpt>
      <trkpt lat="48.71271" lon="2.45735">
        <ele>33.5</ele>
        <time>2019-01-23T08:56:12Z</time>
      </trkpt>
      <trkpt lat="48.71274" lon="2.45729">
        <ele>33.5</ele>
        <time>2019-01-23T08:56:18Z</time>
      </trkpt>
      <trkpt lat="48.71278" lon="2.45725">
        <ele>33.5</ele>
        <time>2019-01-23T08:56:21Z</time>
      </trkpt>
      <trkpt lat="48.71283" lon="2.4572">
        <ele>33.5</ele>
        <time>2019-01-23T08:56:26Z</time>
      </trkpt>
      <trkpt lat="48.71287" lon="2.45716">
        <ele>33.5</ele>
        <time>2019-01-23T08:56:29Z</time>
      </trkpt>
      <trkpt lat="48.7129" lon="2.45712">
        <ele>33.5</ele>
        <time>2019-01-23T08:56:33Z</time>
      </trkpt>
      <trkpt lat="48.71291" lon="2.45704">
        <ele>33.5</ele>
        <time>2019-01-23T08:56:38Z</time>
      </trkpt>
      <trkpt lat="48.71292" lon="2.45697">
        <ele>33.5</ele>
        <time>2019-01-23T08:56:43Z</time>
      </trkpt>
      <trkpt lat="48.71294" lon="2.4569">
        <ele>33.4</ele>
        <time>2019-01-23T08:56:49Z</time>
      </trkpt>
      <trkpt lat="48.71296" lon="2.45684">
        <ele>33.4</ele>
        <time>2019-01-23T08:56:52Z</time>
      </trkpt>
      <trkpt lat="48.71299" lon="2.45676">
        <ele>33.4</ele>
        <time>2019-01-23T08:56:57Z</time>
      </trkpt>
      <trkpt lat="48.71303" lon="2.4567">
        <ele>33.4</ele>
        <time>2019-01-23T08:57:01Z</time>
      </trkpt>
      <trkpt lat="48.71305" lon="2.45663">
        <ele>33.4</ele>
        <time>2019-01-23T08:57:05Z</time>
      </trkpt>
      <trkpt lat="48.71309" lon="2.45656">
        <ele>33.4</ele>
        <time>2019-01-23T08:57:10Z</time>
      </trkpt>
      <trkpt lat="48.71312" lon="2.4565">
        <ele>33.4</ele>
        <time>2019-01-23T08:57:15Z</time>
      </trkpt>
      <trkpt lat="48.71316" lon="2.45647">
        <ele>33.4</ele>
        <time>2019-01-23T08:57:19Z</time>
      </trkpt>
      <trkpt lat="48.71319" lon="2.45642">
        <ele>33.4</ele>
        <time>2019-01-23T08:57:24Z</time>
      </trkpt>
      <trkpt lat="48.71324" lon="2.45643">
        <ele>33.4</ele>
        <time>2019-01-23T08:57:29Z</time>
      </trkpt>
      <trkpt lat="48.71329" lon="2.45646">
        <ele>33.4</ele>
        <time>2019-01-23T08:57:32Z</time>
      </trkpt>
      <trkpt lat="48.7133" lon="2.45652">
        <ele>33.3</ele>
        <time>2019-01-23T08:57:39Z</time>
      </trkpt>
      <trkpt lat="48.7133" lon="2.45659">
        <ele>33.3</ele>
        <time>2019-01-23T08:57:46Z</time>
      </trkpt>
      <trkpt lat="48.71325" lon="2.4566">
        <ele>33.3</ele>
        <time>2019-01-23T08:58:04Z</time>
      </trkpt>
      <trkpt lat="48.71326" lon="2.45668">
        <ele>33.3</ele>
        <time>2019-01-23T08:58:07Z</time>
      </trkpt>
      <trkpt lat="48.71329" lon="2.45673">
        <ele>33.3</ele>
        <time>2019-01-23T08:58:10Z</time>
      </trkpt>
      <trkpt lat="48.71333" lon="2.45678">
        <ele>33.3</ele>
        <time>2019-01-23T08:58:12Z</time>
      </trkpt>
      <trkpt lat="48.71337" lon="2.45683">
        <ele>33.3</ele>
        <time>2019-01-23T08:58:16Z</time>
      </trkpt>
      <trkpt lat="48.7134" lon="2.45687">
        <ele>33.3</ele>
        <time>2019-01-23T08:58:24Z</time>
      </trkpt>
      <trkpt lat="48.71344" lon="2.45693">
        <ele>33.2</ele>
        <time>2019-01-23T08:58:28Z</time>
      </trkpt>
      <trkpt lat="48.71349" lon="2.45697">
        <ele>33.2</ele>
        <time>2019-01-23T08:58:31Z</time>
      </trkpt>
      <trkpt lat="48.71355" lon="2.457">
        <ele>33.2</ele>
        <time>2019-01-23T08:58:34Z</time>
      </trkpt>
      <trkpt lat="48.7136" lon="2.45703">
        <ele>33.2</ele>
        <time>2019-01-23T08:58:37Z</time>
      </trkpt>
      <trkpt lat="48.71366" lon="2.45707">
        <ele>33.2</ele>
        <time>2019-01-23T08:58:40Z</time>
      </trkpt>
      <trkpt lat="48.71372" lon="2.45709">
        <ele>33.2</ele>
        <time>2019-01-23T08:58:43Z</time>
      </trkpt>
      <trkpt lat="48.71376" lon="2.45712">
        <ele>33.2</ele>
        <time>2019-01-23T08:58:47Z</time>
      </trkpt>
      <trkpt lat="48.7138" lon="2.45716">
        <ele>33.2</ele>
        <time>2019-01-23T08:58:51Z</time>
      </trkpt>
      <trkpt lat="48.71384" lon="2.4572">
        <ele>33.2</ele>
        <time>2019-01-23T08:58:55Z</time>
      </trkpt>
      <trkpt lat="48.71388" lon="2.45724">
        <ele>33.2</ele>
        <time>2019-01-23T08:58:58Z</time>
      </trkpt>
      <trkpt lat="48.71393" lon="2.45728">
        <ele>33.2</ele>
        <time>2019-01-23T08:59:02Z</time>
      </trkpt>
      <trkpt lat="48.71398" lon="2.45733">
        <ele>33.2</ele>
        <time>2019-01-23T08:59:06Z</time>
      </trkpt>
      <trkpt lat="48.71403" lon="2.45737">
        <ele>33.2</ele>
        <time>2019-01-23T08:59:11Z</time>
      </trkpt>
      <trkpt lat="48.71408" lon="2.4574">
        <ele>33.1</ele>
        <time>2019-01-23T08:59:14Z</time>
      </trkpt>
      <trkpt lat="48.71413" lon="2.45742">
        <ele>33.1</ele>
        <time>2019-01-23T08:59:18Z</time>
      </trkpt>
      <trkpt lat="48.71418" lon="2.45746">
        <ele>33.1</ele>
        <time>2019-01-23T08:59:23Z</time>
      </trkpt>
      <trkpt lat="48.71422" lon="2.45751">
        <ele>33.1</ele>
        <time>2019-01-23T08:59:28Z</time>
      </trkpt>
      <trkpt lat="48.71426" lon="2.45755">
        <ele>33.1</ele>
        <time>2019-01-23T08:59:32Z</time>
      </trkpt>
      <trkpt lat="48.71432" lon="2.45758">
        <ele>33.1</ele>
        <time>2019-01-23T08:59:35Z</time>
      </trkpt>
      <trkpt lat="48.71436" lon="2.45763">
        <ele>33</ele>
        <time>2019-01-23T08:59:39Z</time>
      </trkpt>
      <trkpt lat="48.7144" lon="2.45768">
        <ele>33</ele>
        <time>2019-01-23T08:59:44Z</time>
      </trkpt>
      <trkpt lat="48.71445" lon="2.4577">
        <ele>33</ele>
        <time>2019-01-23T08:59:47Z</time>
      </trkpt>
      <trkpt lat="48.71449" lon="2.45775">
        <ele>33</ele>
        <time>2019-01-23T08:59:50Z</time>
      </trkpt>
      <trkpt lat="48.71456" lon="2.45776">
        <ele>33</ele>
        <time>2019-01-23T08:59:54Z</time>
      </trkpt>
      <trkpt lat="48.71462" lon="2.45775">
        <ele>32.9</ele>
        <time>2019-01-23T08:59:56Z</time>
      </trkpt>
      <trkpt lat="48.71467" lon="2.45773">
        <ele>32.9</ele>
        <time>2019-01-23T08:59:58Z</time>
      </trkpt>
      <trkpt lat="48.71472" lon="2.4577">
        <ele>32.9</ele>
        <time>2019-01-23T09:00:01Z</time>
      </trkpt>
      <trkpt lat="48.71477" lon="2.45767">
        <ele>32.9</ele>
        <time>2019-01-23T09:00:04Z</time>
      </trkpt>
      <trkpt lat="48.71482" lon="2.45765">
        <ele>32.9</ele>
        <time>2019-01-23T09:00:07Z</time>
      </trkpt>
      <trkpt lat="48.71488" lon="2.45763">
        <ele>32.8</ele>
        <time>2019-01-23T09:00:10Z</time>
      </trkpt>
      <trkpt lat="48.71492" lon="2.45759">
        <ele>32.8</ele>
        <time>2019-01-23T09:00:15Z</time>
      </trkpt>
      <trkpt lat="48.71498" lon="2.45763">
        <ele>32.8</ele>
        <time>2019-01-23T09:00:21Z</time>
      </trkpt>
      <trkpt lat="48.71501" lon="2.45768">
        <ele>32.8</ele>
        <time>2019-01-23T09:00:33Z</time>
      </trkpt>
      <trkpt lat="48.71505" lon="2.45772">
        <ele>32.7</ele>
        <time>2019-01-23T09:00:42Z</time>
      </trkpt>
      <trkpt lat="48.71508" lon="2.45777">
        <ele>32.7</ele>
        <time>2019-01-23T09:00:47Z</time>
      </trkpt>
      <trkpt lat="48.71512" lon="2.45782">
        <ele>32.7</ele>
        <time>2019-01-23T09:00:50Z</time>
      </trkpt>
      <trkpt lat="48.71515" lon="2.45788">
        <ele>32.6</ele>
        <time>2019-01-23T09:00:59Z</time>
      </trkpt>
      <trkpt lat="48.71519" lon="2.45793">
        <ele>32.6</ele>
        <time>2019-01-23T09:01:04Z</time>
      </trkpt>
      <trkpt lat="48.71522" lon="2.458">
        <ele>32.6</ele>
        <time>2019-01-23T09:01:09Z</time>
      </trkpt>
      <trkpt lat="48.71527" lon="2.45806">
        <ele>32.6</ele>
        <time>2019-01-23T09:01:14Z</time>
      </trkpt>
      <trkpt lat="48.71533" lon="2.4581">
        <ele>32.5</ele>
        <time>2019-01-23T09:01:17Z</time>
      </trkpt>
      <trkpt lat="48.71537" lon="2.45813">
        <ele>32.5</ele>
        <time>2019-01-23T09:01:21Z</time>
      </trkpt>
      <trkpt lat="48.7154" lon="2.45819">
        <ele>32.5</ele>
        <time>2019-01-23T09:01:26Z</time>
      </trkpt>
      <trkpt lat="48.71543" lon="2.45825">
        <ele>32.4</ele>
        <time>2019-01-23T09:01:30Z</time>
      </trkpt>
      <trkpt lat="48.71546" lon="2.45831">
        <ele>32.4</ele>
        <time>2019-01-23T09:01:35Z</time>
      </trkpt>
      <trkpt lat="48.71549" lon="2.45838">
        <ele>32.4</ele>
        <time>2019-01-23T09:01:40Z</time>
      </trkpt>
      <trkpt lat="48.71552" lon="2.45843">
        <ele>32.4</ele>
        <time>2019-01-23T09:01:46Z</time>
      </trkpt>
      <trkpt lat="48.71557" lon="2.45846">
        <ele>32.3</ele>
        <time>2019-01-23T09:01:52Z</time>
      </trkpt>
      <trkpt lat="48.71561" lon="2.4585">
        <ele>32.3</ele>
        <time>2019-01-23T09:01:56Z</time>
      </trkpt>
      <trkpt lat="48.71566" lon="2.45852">
        <ele>32.3</ele>
        <time>2019-01-23T09:02:04Z</time>
      </trkpt>
      <trkpt lat="48.7157" lon="2.45854">
        <ele>32.3</ele>
        <time>2019-01-23T09:02:33Z</time>
      </trkpt>
      <trkpt lat="48.71575" lon="2.45857">
        <ele>32.2</ele>
        <time>2019-01-23T09:02:41Z</time>
      </trkpt>
      <trkpt lat="48.71578" lon="2.45862">
        <ele>32.2</ele>
        <time>2019-01-23T09:02:49Z</time>
      </trkpt>
      <trkpt lat="48.71583" lon="2.45865">
        <ele>32.2</ele>
        <time>2019-01-23T09:02:56Z</time>
      </trkpt>
      <trkpt lat="48.71589" lon="2.45865">
        <ele>32.2</ele>
        <time>2019-01-23T09:03:01Z</time>
      </trkpt>
      <trkpt lat="48.71593" lon="2.45862">
        <ele>32.2</ele>
        <time>2019-01-23T09:03:05Z</time>
      </trkpt>
      <trkpt lat="48.71598" lon="2.45857">
        <ele>32.1</ele>
        <time>2019-01-23T09:03:11Z</time>
      </trkpt>
      <trkpt lat="48.71602" lon="2.45854">
        <ele>32.1</ele>
        <time>2019-01-23T09:03:16Z</time>
      </trkpt>
      <trkpt lat="48.71607" lon="2.45848">
        <ele>32.1</ele>
        <time>2019-01-23T09:03:21Z</time>
      </trkpt>
      <trkpt lat="48.71611" lon="2.45844">
        <ele>32.1</ele>
        <time>2019-01-23T09:03:26Z</time>
      </trkpt>
      <trkpt lat="48.71615" lon="2.4584">
        <ele>32.1</ele>
        <time>2019-01-23T09:03:31Z</time>
      </trkpt>
      <trkpt lat="48.71619" lon="2.45836">
        <ele>32.1</ele>
        <time>2019-01-23T09:03:35Z</time>
      </trkpt>
      <trkpt lat="48.71621" lon="2.45829">
        <ele>32.1</ele>
        <time>2019-01-23T09:03:41Z</time>
      </trkpt>
      <trkpt lat="48.7162" lon="2.45821">
        <ele>32.1</ele>
        <time>2019-01-23T09:03:47Z</time>
      </trkpt>
      <trkpt lat="48.71626" lon="2.45821">
        <ele>32.1</ele>
        <time>2019-01-23T09:03:58Z</time>
      </trkpt>
      <trkpt lat="48.71632" lon="2.45819">
        <ele>32.1</ele>
        <time>2019-01-23T09:04:01Z</time>
      </trkpt>
      <trkpt lat="48.71637" lon="2.45819">
        <ele>32.1</ele>
        <time>2019-01-23T09:04:03Z</time>
      </trkpt>
      <trkpt lat="48.71642" lon="2.45818">
        <ele>32.1</ele>
        <time>2019-01-23T09:04:05Z</time>
      </trkpt>
      <trkpt lat="48.71646" lon="2.45816">
        <ele>32.1</ele>
        <time>2019-01-23T09:04:09Z</time>
      </trkpt>
      <trkpt lat="48.7165" lon="2.45812">
        <ele>32.1</ele>
        <time>2019-01-23T09:04:20Z</time>
      </trkpt>
      <trkpt lat="48.71654" lon="2.45807">
        <ele>32.1</ele>
        <time>2019-01-23T09:04:26Z</time>
      </trkpt>
      <trkpt lat="48.71659" lon="2.45802">
        <ele>32.1</ele>
        <time>2019-01-23T09:04:31Z</time>
      </trkpt>
      <trkpt lat="48.71663" lon="2.45798">
        <ele>32.1</ele>
        <time>2019-01-23T09:04:37Z</time>
      </trkpt>
      <trkpt lat="48.71667" lon="2.45795">
        <ele>32.1</ele>
        <time>2019-01-23T09:04:41Z</time>
      </trkpt>
      <trkpt lat="48.71671" lon="2.45791">
        <ele>32.1</ele>
        <time>2019-01-23T09:04:44Z</time>
      </trkpt>
      <trkpt lat="48.71676" lon="2.45786">
        <ele>32.1</ele>
        <time>2019-01-23T09:04:48Z</time>
      </trkpt>
      <trkpt lat="48.7168" lon="2.45782">
        <ele>32.1</ele>
        <time>2019-01-23T09:04:51Z</time>
      </trkpt>
      <trkpt lat="48.71684" lon="2.45778">
        <ele>32.1</ele>
        <time>2019-01-23T09:04:55Z</time>
      </trkpt>
      <trkpt lat="48.71689" lon="2.45776">
        <ele>32.1</ele>
        <time>2019-01-23T09:05:00Z</time>
      </trkpt>
      <trkpt lat="48.71693" lon="2.45772">
        <ele>32.1</ele>
        <time>2019-01-23T09:05:04Z</time>
      </trkpt>
      <trkpt lat="48.71697" lon="2.45768">
        <ele>32.1</ele>
        <time>2019-01-23T09:05:10Z</time>
      </trkpt>
      <trkpt lat="48.71702" lon="2.45765">
        <ele>32.1</ele>
        <time>2019-01-23T09:05:15Z</time>
      </trkpt>
      <trkpt lat="48.71706" lon="2.45761">
        <ele>32.1</ele>
        <time>2019-01-23T09:05:18Z</time>
      </trkpt>
      <trkpt lat="48.71712" lon="2.45756">
        <ele>32.1</ele>
        <time>2019-01-23T09:05:21Z</time>
      </trkpt>
      <trkpt lat="48.71715" lon="2.45749">
        <ele>32.1</ele>
        <time>2019-01-23T09:05:25Z</time>
      </trkpt>
      <trkpt lat="48.71718" lon="2.45745">
        <ele>32.1</ele>
        <time>2019-01-23T09:05:29Z</time>
      </trkpt>
      <trkpt lat="48.71723" lon="2.45741">
        <ele>32.1</ele>
        <time>2019-01-23T09:05:35Z</time>
      </trkpt>
      <trkpt lat="48.71726" lon="2.45734">
        <ele>32.1</ele>
        <time>2019-01-23T09:05:40Z</time>
      </trkpt>
      <trkpt lat="48.7173" lon="2.45731">
        <ele>32.1</ele>
        <time>2019-01-23T09:05:43Z</time>
      </trkpt>
      <trkpt lat="48.71734" lon="2.45727">
        <ele>32.1</ele>
        <time>2019-01-23T09:05:46Z</time>
      </trkpt>
      <trkpt lat="48.71739" lon="2.45722">
        <ele>32.1</ele>
        <time>2019-01-23T09:05:50Z</time>
      </trkpt>
      <trkpt lat="48.71744" lon="2.45719">
        <ele>32.1</ele>
        <time>2019-01-23T09:05:53Z</time>
      </trkpt>
      <trkpt lat="48.71748" lon="2.45715">
        <ele>32.1</ele>
        <time>2019-01-23T09:05:57Z</time>
      </trkpt>
      <trkpt lat="48.71752" lon="2.4571">
        <ele>32.1</ele>
        <time>2019-01-23T09:06:02Z</time>
      </trkpt>
      <trkpt lat="48.71756" lon="2.45704">
        <ele>32.1</ele>
        <time>2019-01-23T09:06:07Z</time>
      </trkpt>
      <trkpt lat="48.71759" lon="2.45698">
        <ele>32.1</ele>
        <time>2019-01-23T09:06:12Z</time>
      </trkpt>
      <trkpt lat="48.71763" lon="2.45693">
        <ele>32.1</ele>
        <time>2019-01-23T09:06:17Z</time>
      </trkpt>
      <trkpt lat="48.71767" lon="2.4569">
        <ele>32.1</ele>
        <time>2019-01-23T09:06:21Z</time>
      </trkpt>
      <trkpt lat="48.71771" lon="2.45685">
        <ele>32.1</ele>
        <time>2019-01-23T09:06:24Z</time>
      </trkpt>
      <trkpt lat="48.71775" lon="2.45681">
        <ele>32.1</ele>
        <time>2019-01-23T09:06:28Z</time>
      </trkpt>
      <trkpt lat="48.71779" lon="2.45677">
        <ele>32.1</ele>
        <time>2019-01-23T09:06:33Z</time>
      </trkpt>
      <trkpt lat="48.71783" lon="2.45671">
        <ele>32.1</ele>
        <time>2019-01-23T09:06:39Z</time>
      </trkpt>
      <trkpt lat="48.71787" lon="2.45667">
        <ele>32.2</ele>
        <time>2019-01-23T09:06:42Z</time>
      </trkpt>
      <trkpt lat="48.71791" lon="2.45663">
        <ele>32.2</ele>
        <time>2019-01-23T09:06:44Z</time>
      </trkpt>
      <trkpt lat="48.71795" lon="2.45659">
        <ele>32.2</ele>
        <time>2019-01-23T09:06:48Z</time>
      </trkpt>
      <trkpt lat="48.71799" lon="2.45655">
        <ele>32.2</ele>
        <time>2019-01-23T09:06:52Z</time>
      </trkpt>
      <trkpt lat="48.71805" lon="2.45654">
        <ele>32.2</ele>
        <time>2019-01-23T09:06:58Z</time>
      </trkpt>
      <trkpt lat="48.7181" lon="2.45651">
        <ele>32.2</ele>
        <time>2019-01-23T09:07:02Z</time>
      </trkpt>
      <trkpt lat="48.71814" lon="2.45648">
        <ele>32.2</ele>
        <time>2019-01-23T09:07:05Z</time>
      </trkpt>
      <trkpt lat="48.71818" lon="2.45645">
        <ele>32.3</ele>
        <time>2019-01-23T09:07:08Z</time>
      </trkpt>
      <trkpt lat="48.71821" lon="2.45639">
        <ele>32.3</ele>
        <time>2019-01-23T09:07:12Z</time>
      </trkpt>
      <trkpt lat="48.71824" lon="2.45633">
        <ele>32.3</ele>
        <time>2019-01-23T09:07:20Z</time>
      </trkpt>
      <trkpt lat="48.71828" lon="2.45629">
        <ele>32.3</ele>
        <time>2019-01-23T09:07:27Z</time>
      </trkpt>
      <trkpt lat="48.71832" lon="2.45625">
        <ele>32.3</ele>
        <time>2019-01-23T09:07:30Z</time>
      </trkpt>
      <trkpt lat="48.71836" lon="2.45622">
        <ele>32.4</ele>
        <time>2019-01-23T09:07:33Z</time>
      </trkpt>
      <trkpt lat="48.71838" lon="2.45614">
        <ele>32.4</ele>
        <time>2019-01-23T09:07:38Z</time>
      </trkpt>
      <trkpt lat="48.71842" lon="2.45608">
        <ele>32.4</ele>
        <time>2019-01-23T09:07:42Z</time>
      </trkpt>
      <trkpt lat="48.71847" lon="2.45604">
        <ele>32.4</ele>
        <time>2019-01-23T09:07:46Z</time>
      </trkpt>
      <trkpt lat="48.71851" lon="2.45602">
        <ele>32.4</ele>
        <time>2019-01-23T09:07:55Z</time>
      </trkpt>
      <trkpt lat="48.7185" lon="2.45595">
        <ele>32.4</ele>
        <time>2019-01-23T09:07:59Z</time>
      </trkpt>
      <trkpt lat="48.71849" lon="2.45587">
        <ele>32.4</ele>
        <time>2019-01-23T09:08:05Z</time>
      </trkpt>
      <trkpt lat="48.71845" lon="2.4558">
        <ele>32.5</ele>
        <time>2019-01-23T09:08:09Z</time>
      </trkpt>
      <trkpt lat="48.71843" lon="2.45573">
        <ele>32.5</ele>
        <time>2019-01-23T09:08:12Z</time>
      </trkpt>
      <trkpt lat="48.71843" lon="2.45565">
        <ele>32.5</ele>
        <time>2019-01-23T09:08:15Z</time>
      </trkpt>
      <trkpt lat="48.71842" lon="2.45558">
        <ele>32.5</ele>
        <time>2019-01-23T09:08:18Z</time>
      </trkpt>
      <trkpt lat="48.7184" lon="2.45551">
        <ele>32.5</ele>
        <time>2019-01-23T09:08:22Z</time>
      </trkpt>
      <trkpt lat="48.7184" lon="2.45543">
        <ele>32.6</ele>
        <time>2019-01-23T09:08:27Z</time>
      </trkpt>
      <trkpt lat="48.71837" lon="2.45537">
        <ele>32.6</ele>
        <time>2019-01-23T09:08:31Z</time>
      </trkpt>
      <trkpt lat="48.71836" lon="2.45529">
        <ele>32.6</ele>
        <time>2019-01-23T09:08:36Z</time>
      </trkpt>
      <trkpt lat="48.71833" lon="2.45523">
        <ele>32.6</ele>
        <time>2019-01-23T09:08:41Z</time>
      </trkpt>
      <trkpt lat="48.7183" lon="2.45517">
        <ele>32.6</ele>
        <time>2019-01-23T09:08:46Z</time>
      </trkpt>
      <trkpt lat="48.71828" lon="2.4551">
        <ele>32.6</ele>
        <time>2019-01-23T09:08:51Z</time>
      </trkpt>
      <trkpt lat="48.71825" lon="2.45504">
        <ele>32.6</ele>
        <time>2019-01-23T09:08:54Z</time>
      </trkpt>
      <trkpt lat="48.71823" lon="2.45498">
        <ele>32.6</ele>
        <time>2019-01-23T09:08:58Z</time>
      </trkpt>
      <trkpt lat="48.71821" lon="2.45491">
        <ele>32.6</ele>
        <time>2019-01-23T09:09:02Z</time>
      </trkpt>
      <trkpt lat="48.71818" lon="2.45485">
        <ele>32.6</ele>
        <time>2019-01-23T09:09:07Z</time>
      </trkpt>
      <trkpt lat="48.71816" lon="2.45477">
        <ele>32.6</ele>
        <time>2019-01-23T09:09:10Z</time>
      </trkpt>
      <trkpt lat="48.71813" lon="2.4547">
        <ele>32.6</ele>
        <time>2019-01-23T09:09:14Z</time>
      </trkpt>
      <trkpt lat="48.71812" lon="2.45463">
        <ele>32.6</ele>
        <time>2019-01-23T09:09:19Z</time>
      </trkpt>
      <trkpt lat="48.71809" lon="2.45456">
        <ele>32.6</ele>
        <time>2019-01-23T09:09:24Z</time>
      </trkpt>
      <trkpt lat="48.71806" lon="2.4545">
        <ele>32.6</ele>
        <time>2019-01-23T09:09:28Z</time>
      </trkpt>
      <trkpt lat="48.71804" lon="2.45442">
        <ele>32.6</ele>
        <time>2019-01-23T09:09:34Z</time>
      </trkpt>
      <trkpt lat="48.71801" lon="2.45435">
        <ele>32.6</ele>
        <time>2019-01-23T09:09:38Z</time>
      </trkpt>
      <trkpt lat="48.71798" lon="2.45427">
        <ele>32.6</ele>
        <time>2019-01-23T09:09:41Z</time>
      </trkpt>
      <trkpt lat="48.71796" lon="2.4542">
        <ele>32.6</ele>
        <time>2019-01-23T09:09:44Z</time>
      </trkpt>
      <trkpt lat="48.71794" lon="2.45412">
        <ele>32.6</ele>
        <time>2019-01-23T09:09:48Z</time>
      </trkpt>
      <trkpt lat="48.71792" lon="2.45404">
        <ele>32.6</ele>
        <time>2019-01-23T09:09:52Z</time>
      </trkpt>
      <trkpt lat="48.7179" lon="2.45396">
        <ele>32.6</ele>
        <time>2019-01-23T09:09:57Z</time>
      </trkpt>
      <trkpt lat="48.71787" lon="2.45388">
        <ele>32.6</ele>
        <time>2019-01-23T09:10:01Z</time>
      </trkpt>
      <trkpt lat="48.71785" lon="2.4538">
        <ele>32.6</ele>
        <time>2019-01-23T09:10:05Z</time>
      </trkpt>
      <trkpt lat="48.71783" lon="2.45373">
        <ele>32.6</ele>
        <time>2019-01-23T09:10:09Z</time>
      </trkpt>
      <trkpt lat="48.71782" lon="2.45366">
        <ele>32.6</ele>
        <time>2019-01-23T09:10:14Z</time>
      </trkpt>
      <trkpt lat="48.7178" lon="2.45359">
        <ele>32.7</ele>
        <time>2019-01-23T09:10:20Z</time>
      </trkpt>
      <trkpt lat="48.71778" lon="2.45351">
        <ele>32.7</ele>
        <time>2019-01-23T09:10:25Z</time>
      </trkpt>
      <trkpt lat="48.71774" lon="2.45347">
        <ele>32.7</ele>
        <time>2019-01-23T09:10:32Z</time>
      </trkpt>
      <trkpt lat="48.71772" lon="2.4534">
        <ele>32.7</ele>
        <time>2019-01-23T09:10:38Z</time>
      </trkpt>
      <trkpt lat="48.7177" lon="2.45333">
        <ele>32.7</ele>
        <time>2019-01-23T09:10:44Z</time>
      </trkpt>
      <trkpt lat="48.71767" lon="2.45326">
        <ele>32.7</ele>
        <time>2019-01-23T09:10:48Z</time>
      </trkpt>
      <trkpt lat="48.71765" lon="2.45319">
        <ele>32.7</ele>
        <time>2019-01-23T09:10:52Z</time>
      </trkpt>
      <trkpt lat="48.71763" lon="2.45312">
        <ele>32.7</ele>
        <time>2019-01-23T09:10:56Z</time>
      </trkpt>
      <trkpt lat="48.71761" lon="2.45305">
        <ele>32.7</ele>
        <time>2019-01-23T09:11:00Z</time>
      </trkpt>
      <trkpt lat="48.71758" lon="2.45299">
        <ele>32.7</ele>
        <time>2019-01-23T09:11:04Z</time>
      </trkpt>
      <trkpt lat="48.71754" lon="2.45291">
        <ele>32.7</ele>
        <time>2019-01-23T09:11:08Z</time>
      </trkpt>
      <trkpt lat="48.71752" lon="2.45284">
        <ele>32.7</ele>
        <time>2019-01-23T09:11:13Z</time>
      </trkpt>
      <trkpt lat="48.71751" lon="2.45277">
        <ele>32.7</ele>
        <time>2019-01-23T09:11:18Z</time>
      </trkpt>
      <trkpt lat="48.71751" lon="2.45269">
        <ele>32.7</ele>
        <time>2019-01-23T09:11:23Z</time>
      </trkpt>
      <trkpt lat="48.71749" lon="2.45264">
        <ele>32.7</ele>
        <time>2019-01-23T09:11:28Z</time>
      </trkpt>
      <trkpt lat="48.71747" lon="2.45257">
        <ele>32.7</ele>
        <time>2019-01-23T09:11:32Z</time>
      </trkpt>
      <trkpt lat="48.71745" lon="2.45249">
        <ele>32.7</ele>
        <time>2019-01-23T09:11:37Z</time>
      </trkpt>
      <trkpt lat="48.71743" lon="2.45241">
        <ele>32.7</ele>
        <time>2019-01-23T09:11:41Z</time>
      </trkpt>
      <trkpt lat="48.7174" lon="2.45232">
        <ele>32.7</ele>
        <time>2019-01-23T09:11:46Z</time>
      </trkpt>
      <trkpt lat="48.71738" lon="2.45226">
        <ele>32.7</ele>
        <time>2019-01-23T09:11:49Z</time>
      </trkpt>
      <trkpt lat="48.71734" lon="2.4522">
        <ele>32.7</ele>
        <time>2019-01-23T09:11:53Z</time>
      </trkpt>
      <trkpt lat="48.71731" lon="2.45215">
        <ele>32.7</ele>
        <time>2019-01-23T09:11:58Z</time>
      </trkpt>
      <trkpt lat="48.71727" lon="2.45209">
        <ele>32.7</ele>
        <time>2019-01-23T09:12:04Z</time>
      </trkpt>
      <trkpt lat="48.71724" lon="2.45203">
        <ele>32.7</ele>
        <time>2019-01-23T09:12:07Z</time>
      </trkpt>
      <trkpt lat="48.71721" lon="2.45198">
        <ele>32.7</ele>
        <time>2019-01-23T09:12:10Z</time>
      </trkpt>
      <trkpt lat="48.71718" lon="2.45192">
        <ele>32.6</ele>
        <time>2019-01-23T09:12:14Z</time>
      </trkpt>
      <trkpt lat="48.71714" lon="2.45186">
        <ele>32.6</ele>
        <time>2019-01-23T09:12:18Z</time>
      </trkpt>
      <trkpt lat="48.71709" lon="2.45182">
        <ele>32.6</ele>
        <time>2019-01-23T09:12:22Z</time>
      </trkpt>
      <trkpt lat="48.71705" lon="2.45178">
        <ele>32.6</ele>
        <time>2019-01-23T09:12:28Z</time>
      </trkpt>
      <trkpt lat="48.717" lon="2.45173">
        <ele>32.6</ele>
        <time>2019-01-23T09:12:33Z</time>
      </trkpt>
      <trkpt lat="48.71695" lon="2.4517">
        <ele>32.6</ele>
        <time>2019-01-23T09:12:37Z</time>
      </trkpt>
      <trkpt lat="48.71691" lon="2.45167">
        <ele>32.6</ele>
        <time>2019-01-23T09:12:41Z</time>
      </trkpt>
      <trkpt lat="48.71686" lon="2.45165">
        <ele>32.6</ele>
        <time>2019-01-23T09:12:44Z</time>
      </trkpt>
      <trkpt lat="48.7168" lon="2.45161">
        <ele>32.6</ele>
        <time>2019-01-23T09:12:49Z</time>
      </trkpt>
      <trkpt lat="48.71675" lon="2.45159">
        <ele>32.6</ele>
        <time>2019-01-23T09:12:53Z</time>
      </trkpt>
      <trkpt lat="48.7167" lon="2.45157">
        <ele>32.6</ele>
        <time>2019-01-23T09:12:57Z</time>
      </trkpt>
      <trkpt lat="48.71666" lon="2.45154">
        <ele>32.6</ele>
        <time>2019-01-23T09:13:02Z</time>
      </trkpt>
      <trkpt lat="48.71661" lon="2.45153">
        <ele>32.6</ele>
        <time>2019-01-23T09:13:08Z</time>
      </trkpt>
      <trkpt lat="48.71655" lon="2.45151">
        <ele>32.6</ele>
        <time>2019-01-23T09:13:11Z</time>
      </trkpt>
      <trkpt lat="48.7165" lon="2.45151">
        <ele>32.6</ele>
        <time>2019-01-23T09:13:15Z</time>
      </trkpt>
      <trkpt lat="48.71644" lon="2.45148">
        <ele>32.5</ele>
        <time>2019-01-23T09:13:19Z</time>
      </trkpt>
      <trkpt lat="48.71639" lon="2.45145">
        <ele>32.5</ele>
        <time>2019-01-23T09:13:23Z</time>
      </trkpt>
      <trkpt lat="48.71635" lon="2.4514">
        <ele>32.5</ele>
        <time>2019-01-23T09:13:28Z</time>
      </trkpt>
      <trkpt lat="48.7163" lon="2.45139">
        <ele>32.5</ele>
        <time>2019-01-23T09:13:33Z</time>
      </trkpt>
      <trkpt lat="48.71624" lon="2.45137">
        <ele>32.5</ele>
        <time>2019-01-23T09:13:37Z</time>
      </trkpt>
      <trkpt lat="48.7162" lon="2.45133">
        <ele>32.5</ele>
        <time>2019-01-23T09:13:42Z</time>
      </trkpt>
      <trkpt lat="48.71615" lon="2.45129">
        <ele>32.5</ele>
        <time>2019-01-23T09:13:48Z</time>
      </trkpt>
      <trkpt lat="48.71611" lon="2.45126">
        <ele>32.5</ele>
        <time>2019-01-23T09:13:58Z</time>
      </trkpt>
      <trkpt lat="48.71604" lon="2.45122">
        <ele>32.5</ele>
        <time>2019-01-23T09:14:03Z</time>
      </trkpt>
      <trkpt lat="48.71598" lon="2.45118">
        <ele>32.5</ele>
        <time>2019-01-23T09:14:06Z</time>
      </trkpt>
      <trkpt lat="48.71594" lon="2.45116">
        <ele>32.5</ele>
        <time>2019-01-23T09:14:08Z</time>
      </trkpt>
      <trkpt lat="48.71589" lon="2.45115">
        <ele>32.4</ele>
        <time>2019-01-23T09:14:12Z</time>
      </trkpt>
      <trkpt lat="48.71583" lon="2.45113">
        <ele>32.4</ele>
        <time>2019-01-23T09:14:17Z</time>
      </trkpt>
      <trkpt lat="48.7158" lon="2.45108">
        <ele>32.4</ele>
        <time>2019-01-23T09:14:22Z</time>
      </trkpt>
      <trkpt lat="48.71577" lon="2.45102">
        <ele>32.4</ele>
        <time>2019-01-23T09:14:30Z</time>
      </trkpt>
      <trkpt lat="48.71573" lon="2.45096">
        <ele>32.4</ele>
        <time>2019-01-23T09:14:34Z</time>
      </trkpt>
      <trkpt lat="48.7157" lon="2.45088">
        <ele>32.4</ele>
        <time>2019-01-23T09:14:38Z</time>
      </trkpt>
      <trkpt lat="48.71567" lon="2.45083">
        <ele>32.4</ele>
        <time>2019-01-23T09:14:44Z</time>
      </trkpt>
      <trkpt lat="48.71564" lon="2.45076">
        <ele>32.4</ele>
        <time>2019-01-23T09:14:49Z</time>
      </trkpt>
      <trkpt lat="48.71561" lon="2.4507">
        <ele>32.4</ele>
        <time>2019-01-23T09:14:54Z</time>
      </trkpt>
      <trkpt lat="48.71557" lon="2.45068">
        <ele>32.4</ele>
        <time>2019-01-23T09:15:01Z</time>
      </trkpt>
      <trkpt lat="48.71552" lon="2.45069">
        <ele>32.4</ele>
        <time>2019-01-23T09:15:06Z</time>
      </trkpt>
      <trkpt lat="48.71547" lon="2.45071">
        <ele>32.4</ele>
        <time>2019-01-23T09:15:10Z</time>
      </trkpt>
      <trkpt lat="48.71542" lon="2.45075">
        <ele>32.4</ele>
        <time>2019-01-23T09:15:13Z</time>
      </trkpt>
      <trkpt lat="48.71537" lon="2.45079">
        <ele>32.4</ele>
        <time>2019-01-23T09:15:16Z</time>
      </trkpt>
      <trkpt lat="48.71532" lon="2.45082">
        <ele>32.5</ele>
        <time>2019-01-23T09:15:20Z</time>
      </trkpt>
      <trkpt lat="48.71526" lon="2.45083">
        <ele>32.5</ele>
        <time>2019-01-23T09:15:25Z</time>
      </trkpt>
      <trkpt lat="48.71521" lon="2.45084">
        <ele>32.5</ele>
        <time>2019-01-23T09:15:29Z</time>
      </trkpt>
      <trkpt lat="48.71517" lon="2.45084">
        <ele>32.5</ele>
        <time>2019-01-23T09:15:33Z</time>
      </trkpt>
      <trkpt lat="48.71512" lon="2.45086">
        <ele>32.5</ele>
        <time>2019-01-23T09:15:37Z</time>
      </trkpt>
      <trkpt lat="48.71507" lon="2.45085">
        <ele>32.6</ele>
        <time>2019-01-23T09:15:41Z</time>
      </trkpt>
      <trkpt lat="48.71502" lon="2.45083">
        <ele>32.7</ele>
        <time>2019-01-23T09:15:50Z</time>
      </trkpt>
      <trkpt lat="48.71497" lon="2.45082">
        <ele>32.9</ele>
        <time>2019-01-23T09:16:03Z</time>
      </trkpt>
      <trkpt lat="48.71493" lon="2.45086">
        <ele>33</ele>
        <time>2019-01-23T09:16:15Z</time>
      </trkpt>
      <trkpt lat="48.71489" lon="2.4509">
        <ele>33.2</ele>
        <time>2019-01-23T09:19:06Z</time>
      </trkpt>
      <trkpt lat="48.71484" lon="2.45089">
        <ele>33.2</ele>
        <time>2019-01-23T09:19:59Z</time>
      </trkpt>
      <trkpt lat="48.71479" lon="2.45086">
        <ele>33.3</ele>
        <time>2019-01-23T09:20:07Z</time>
      </trkpt>
      <trkpt lat="48.71476" lon="2.45081">
        <ele>33.3</ele>
        <time>2019-01-23T09:20:18Z</time>
      </trkpt>
      <trkpt lat="48.71471" lon="2.45079">
        <ele>33.3</ele>
        <time>2019-01-23T09:20:21Z</time>
      </trkpt>
      <trkpt lat="48.71466" lon="2.45078">
        <ele>33.4</ele>
        <time>2019-01-23T09:20:24Z</time>
      </trkpt>
      <trkpt lat="48.71461" lon="2.45077">
        <ele>33.4</ele>
        <time>2019-01-23T09:20:28Z</time>
      </trkpt>
      <trkpt lat="48.71455" lon="2.45078">
        <ele>33.4</ele>
        <time>2019-01-23T09:20:33Z</time>
      </trkpt>
      <trkpt lat="48.71451" lon="2.4508">
        <ele>33.5</ele>
        <time>2019-01-23T09:20:38Z</time>
      </trkpt>
      <trkpt lat="48.71448" lon="2.45085">
        <ele>33.5</ele>
        <time>2019-01-23T09:20:47Z</time>
      </trkpt>
      <trkpt lat="48.71446" lon="2.45092">
        <ele>33.5</ele>
        <time>2019-01-23T09:20:59Z</time>
      </trkpt>
      <trkpt lat="48.7144" lon="2.45094">
        <ele>33.5</ele>
        <time>2019-01-23T09:21:04Z</time>
      </trkpt>
      <trkpt lat="48.71436" lon="2.451">
        <ele>33.5</ele>
        <time>2019-01-23T09:21:17Z</time>
      </trkpt>
      <trkpt lat="48.71437" lon="2.45108">
        <ele>33.6</ele>
        <time>2019-01-23T09:21:20Z</time>
      </trkpt>
      <trkpt lat="48.71437" lon="2.45116">
        <ele>33.6</ele>
        <time>2019-01-23T09:21:28Z</time>
      </trkpt>
      <trkpt lat="48.71435" lon="2.45124">
        <ele>33.6</ele>
        <time>2019-01-23T09:21:34Z</time>
      </trkpt>
      <trkpt lat="48.71433" lon="2.45131">
        <ele>33.6</ele>
        <time>2019-01-23T09:21:38Z</time>
      </trkpt>
      <trkpt lat="48.71432" lon="2.45139">
        <ele>33.6</ele>
        <time>2019-01-23T09:21:43Z</time>
      </trkpt>
      <trkpt lat="48.7143" lon="2.45145">
        <ele>33.7</ele>
        <time>2019-01-23T09:21:47Z</time>
      </trkpt>
      <trkpt lat="48.71427" lon="2.45151">
        <ele>33.7</ele>
        <time>2019-01-23T09:21:53Z</time>
      </trkpt>
      <trkpt lat="48.71425" lon="2.45157">
        <ele>33.7</ele>
        <time>2019-01-23T09:22:26Z</time>
      </trkpt>
      <trkpt lat="48.71426" lon="2.45165">
        <ele>33.7</ele>
        <time>2019-01-23T09:22:30Z</time>
      </trkpt>
      <trkpt lat="48.71426" lon="2.45173">
        <ele>33.7</ele>
        <time>2019-01-23T09:22:34Z</time>
      </trkpt>
      <trkpt lat="48.71427" lon="2.4518">
        <ele>33.8</ele>
        <time>2019-01-23T09:22:38Z</time>
      </trkpt>
      <trkpt lat="48.71426" lon="2.45187">
        <ele>33.8</ele>
        <time>2019-01-23T09:22:44Z</time>
      </trkpt>
      <trkpt lat="48.71421" lon="2.45192">
        <ele>33.8</ele>
        <time>2019-01-23T09:22:48Z</time>
      </trkpt>
      <trkpt lat="48.71417" lon="2.45195">
        <ele>33.8</ele>
        <time>2019-01-23T09:22:52Z</time>
      </trkpt>
      <trkpt lat="48.71412" lon="2.45199">
        <ele>33.8</ele>
        <time>2019-01-23T09:22:59Z</time>
      </trkpt>
      <trkpt lat="48.71408" lon="2.45201">
        <ele>33.8</ele>
        <time>2019-01-23T09:23:04Z</time>
      </trkpt>
      <trkpt lat="48.71403" lon="2.45204">
        <ele>33.8</ele>
        <time>2019-01-23T09:23:08Z</time>
      </trkpt>
      <trkpt lat="48.71399" lon="2.45208">
        <ele>33.8</ele>
        <time>2019-01-23T09:23:15Z</time>
      </trkpt>
      <trkpt lat="48.71394" lon="2.4521">
        <ele>33.8</ele>
        <time>2019-01-23T09:23:22Z</time>
      </trkpt>
      <trkpt lat="48.71389" lon="2.45211">
        <ele>33.8</ele>
        <time>2019-01-23T09:23:26Z</time>
      </trkpt>
      <trkpt lat="48.71384" lon="2.45213">
        <ele>33.8</ele>
        <time>2019-01-23T09:23:32Z</time>
      </trkpt>
      <trkpt lat="48.7138" lon="2.45217">
        <ele>33.8</ele>
        <time>2019-01-23T09:23:35Z</time>
      </trkpt>
      <trkpt lat="48.71375" lon="2.45219">
        <ele>33.8</ele>
        <time>2019-01-23T09:23:40Z</time>
      </trkpt>
      <trkpt lat="48.71371" lon="2.45223">
        <ele>33.8</ele>
        <time>2019-01-23T09:23:44Z</time>
      </trkpt>
      <trkpt lat="48.71366" lon="2.45223">
        <ele>33.8</ele>
        <time>2019-01-23T09:23:50Z</time>
      </trkpt>
      <trkpt lat="48.71361" lon="2.45227">
        <ele>33.8</ele>
        <time>2019-01-23T09:23:56Z</time>
      </trkpt>
      <trkpt lat="48.71358" lon="2.45233">
        <ele>33.8</ele>
        <time>2019-01-23T09:24:00Z</time>
      </trkpt>
      <trkpt lat="48.71355" lon="2.45239">
        <ele>33.8</ele>
        <time>2019-01-23T09:24:07Z</time>
      </trkpt>
      <trkpt lat="48.71352" lon="2.45246">
        <ele>33.8</ele>
        <time>2019-01-23T09:24:10Z</time>
      </trkpt>
      <trkpt lat="48.71351" lon="2.45253">
        <ele>33.8</ele>
        <time>2019-01-23T09:24:12Z</time>
      </trkpt>
      <trkpt lat="48.71348" lon="2.4526">
        <ele>33.8</ele>
        <time>2019-01-23T09:24:15Z</time>
      </trkpt>
      <trkpt lat="48.71348" lon="2.45269">
        <ele>33.8</ele>
        <time>2019-01-23T09:24:20Z</time>
      </trkpt>
      <trkpt lat="48.71347" lon="2.45276">
        <ele>33.8</ele>
        <time>2019-01-23T09:24:24Z</time>
      </trkpt>
      <trkpt lat="48.71346" lon="2.45284">
        <ele>33.8</ele>
        <time>2019-01-23T09:24:30Z</time>
      </trkpt>
      <trkpt lat="48.71347" lon="2.45292">
        <ele>33.9</ele>
        <time>2019-01-23T09:24:36Z</time>
      </trkpt>
      <trkpt lat="48.71346" lon="2.453">
        <ele>33.9</ele>
        <time>2019-01-23T09:24:39Z</time>
      </trkpt>
      <trkpt lat="48.71345" lon="2.45307">
        <ele>33.9</ele>
        <time>2019-01-23T09:24:42Z</time>
      </trkpt>
      <trkpt lat="48.71345" lon="2.45315">
        <ele>33.9</ele>
        <time>2019-01-23T09:24:50Z</time>
      </trkpt>
      <trkpt lat="48.71347" lon="2.45322">
        <ele>34</ele>
        <time>2019-01-23T09:24:54Z</time>
      </trkpt>
      <trkpt lat="48.7135" lon="2.45327">
        <ele>34</ele>
        <time>2019-01-23T09:24:59Z</time>
      </trkpt>
      <trkpt lat="48.71349" lon="2.45337">
        <ele>34</ele>
        <time>2019-01-23T09:25:01Z</time>
      </trkpt>
      <trkpt lat="48.71347" lon="2.45344">
        <ele>34.1</ele>
        <time>2019-01-23T09:25:09Z</time>
      </trkpt>
      <trkpt lat="48.71344" lon="2.4535">
        <ele>34.1</ele>
        <time>2019-01-23T09:25:24Z</time>
      </trkpt>
      <trkpt lat="48.71338" lon="2.45353">
        <ele>34.2</ele>
        <time>2019-01-23T09:25:28Z</time>
      </trkpt>
      <trkpt lat="48.71332" lon="2.45355">
        <ele>34.2</ele>
        <time>2019-01-23T09:25:32Z</time>
      </trkpt>
      <trkpt lat="48.71328" lon="2.45359">
        <ele>34.3</ele>
        <time>2019-01-23T09:25:35Z</time>
      </trkpt>
      <trkpt lat="48.71323" lon="2.45365">
        <ele>34.3</ele>
        <time>2019-01-23T09:25:38Z</time>
      </trkpt>
      <trkpt lat="48.71319" lon="2.45368">
        <ele>34.5</ele>
        <time>2019-01-23T09:25:40Z</time>
      </trkpt>
      <trkpt lat="48.71313" lon="2.45367">
        <ele>34.6</ele>
        <time>2019-01-23T09:25:43Z</time>
      </trkpt>
      <trkpt lat="48.71307" lon="2.45369">
        <ele>34.9</ele>
        <time>2019-01-23T09:25:46Z</time>
      </trkpt>
      <trkpt lat="48.71303" lon="2.45369">
        <ele>35.1</ele>
        <time>2019-01-23T09:25:49Z</time>
      </trkpt>
      <trkpt lat="48.71298" lon="2.45369">
        <ele>35.5</ele>
        <time>2019-01-23T09:25:55Z</time>
      </trkpt>
      <trkpt lat="48.71293" lon="2.45367">
        <ele>35.8</ele>
        <time>2019-01-23T09:26:00Z</time>
      </trkpt>
      <trkpt lat="48.71288" lon="2.45367">
        <ele>36.1</ele>
        <time>2019-01-23T09:26:05Z</time>
      </trkpt>
      <trkpt lat="48.71282" lon="2.45366">
        <ele>36.4</ele>
        <time>2019-01-23T09:26:10Z</time>
      </trkpt>
      <trkpt lat="48.71276" lon="2.45366">
        <ele>36.7</ele>
        <time>2019-01-23T09:26:15Z</time>
      </trkpt>
      <trkpt lat="48.71273" lon="2.45371">
        <ele>36.9</ele>
        <time>2019-01-23T09:26:20Z</time>
      </trkpt>
      <trkpt lat="48.7127" lon="2.45376">
        <ele>37.1</ele>
        <time>2019-01-23T09:26:23Z</time>
      </trkpt>
      <trkpt lat="48.71268" lon="2.45383">
        <ele>37.3</ele>
        <time>2019-01-23T09:26:29Z</time>
      </trkpt>
      <trkpt lat="48.71266" lon="2.4539">
        <ele>37.4</ele>
        <time>2019-01-23T09:26:33Z</time>
      </trkpt>
      <trkpt lat="48.71265" lon="2.45397">
        <ele>37.6</ele>
        <time>2019-01-23T09:26:39Z</time>
      </trkpt>
      <trkpt lat="48.71262" lon="2.45405">
        <ele>37.7</ele>
        <time>2019-01-23T09:26:42Z</time>
      </trkpt>
      <trkpt lat="48.71258" lon="2.45411">
        <ele>37.8</ele>
        <time>2019-01-23T09:26:45Z</time>
      </trkpt>
      <trkpt lat="48.71255" lon="2.45417">
        <ele>38</ele>
        <time>2019-01-23T09:26:49Z</time>
      </trkpt>
      <trkpt lat="48.71253" lon="2.45423">
        <ele>38.1</ele>
        <time>2019-01-23T09:26:59Z</time>
      </trkpt>
      <trkpt lat="48.7125" lon="2.45429">
        <ele>38.3</ele>
        <time>2019-01-23T09:27:03Z</time>
      </trkpt>
      <trkpt lat="48.71247" lon="2.45435">
        <ele>38.4</ele>
        <time>2019-01-23T09:27:07Z</time>
      </trkpt>
      <trkpt lat="48.71245" lon="2.45442">
        <ele>38.6</ele>
        <time>2019-01-23T09:27:12Z</time>
      </trkpt>
      <trkpt lat="48.71244" lon="2.45449">
        <ele>38.7</ele>
        <time>2019-01-23T09:27:18Z</time>
      </trkpt>
      <trkpt lat="48.71242" lon="2.45456">
        <ele>38.8</ele>
        <time>2019-01-23T09:27:22Z</time>
      </trkpt>
      <trkpt lat="48.71239" lon="2.45462">
        <ele>38.9</ele>
        <time>2019-01-23T09:27:26Z</time>
      </trkpt>
      <trkpt lat="48.71235" lon="2.45469">
        <ele>39.1</ele>
        <time>2019-01-23T09:27:30Z</time>
      </trkpt>
      <trkpt lat="48.71232" lon="2.45474">
        <ele>39.2</ele>
        <time>2019-01-23T09:27:34Z</time>
      </trkpt>
      <trkpt lat="48.71229" lon="2.4548">
        <ele>39.4</ele>
        <time>2019-01-23T09:27:37Z</time>
      </trkpt>
      <trkpt lat="48.71227" lon="2.45487">
        <ele>39.6</ele>
        <time>2019-01-23T09:27:41Z</time>
      </trkpt>
      <trkpt lat="48.71225" lon="2.45494">
        <ele>39.8</ele>
        <time>2019-01-23T09:27:46Z</time>
      </trkpt>
      <trkpt lat="48.71222" lon="2.455">
        <ele>40</ele>
        <time>2019-01-23T09:27:50Z</time>
      </trkpt>
      <trkpt lat="48.7122" lon="2.45505">
        <ele>40.2</ele>
        <time>2019-01-23T09:27:55Z</time>
      </trkpt>
      <trkpt lat="48.71217" lon="2.45511">
        <ele>40.4</ele>
        <time>2019-01-23T09:28:01Z</time>
      </trkpt>
      <trkpt lat="48.71213" lon="2.45519">
        <ele>40.6</ele>
        <time>2019-01-23T09:28:06Z</time>
      </trkpt>
      <trkpt lat="48.7121" lon="2.45525">
        <ele>40.8</ele>
        <time>2019-01-23T09:28:12Z</time>
      </trkpt>
      <trkpt lat="48.71207" lon="2.45531">
        <ele>41</ele>
        <time>2019-01-23T09:28:16Z</time>
      </trkpt>
      <trkpt lat="48.71204" lon="2.45537">
        <ele>41.2</ele>
        <time>2019-01-23T09:28:20Z</time>
      </trkpt>
      <trkpt lat="48.71202" lon="2.45545">
        <ele>41.5</ele>
        <time>2019-01-23T09:28:26Z</time>
      </trkpt>
      <trkpt lat="48.71198" lon="2.45551">
        <ele>41.7</ele>
        <time>2019-01-23T09:28:34Z</time>
      </trkpt>
      <trkpt lat="48.71194" lon="2.45553">
        <ele>42</ele>
        <time>2019-01-23T09:28:41Z</time>
      </trkpt>
      <trkpt lat="48.71189" lon="2.45549">
        <ele>42.2</ele>
        <time>2019-01-23T09:28:47Z</time>
      </trkpt>
      <trkpt lat="48.71185" lon="2.45548">
        <ele>42.3</ele>
        <time>2019-01-23T09:28:53Z</time>
      </trkpt>
      <trkpt lat="48.71182" lon="2.45542">
        <ele>42.5</ele>
        <time>2019-01-23T09:29:06Z</time>
      </trkpt>
      <trkpt lat="48.71177" lon="2.45539">
        <ele>42.6</ele>
        <time>2019-01-23T09:29:13Z</time>
      </trkpt>
      <trkpt lat="48.71172" lon="2.45536">
        <ele>42.7</ele>
        <time>2019-01-23T09:29:19Z</time>
      </trkpt>
      <trkpt lat="48.71168" lon="2.45531">
        <ele>42.8</ele>
        <time>2019-01-23T09:29:24Z</time>
      </trkpt>
      <trkpt lat="48.71164" lon="2.45528">
        <ele>42.9</ele>
        <time>2019-01-23T09:29:29Z</time>
      </trkpt>
      <trkpt lat="48.71158" lon="2.45527">
        <ele>43</ele>
        <time>2019-01-23T09:29:33Z</time>
      </trkpt>
      <trkpt lat="48.71153" lon="2.45526">
        <ele>43</ele>
        <time>2019-01-23T09:29:37Z</time>
      </trkpt>
      <trkpt lat="48.71148" lon="2.45522">
        <ele>43.1</ele>
        <time>2019-01-23T09:29:42Z</time>
      </trkpt>
      <trkpt lat="48.71143" lon="2.45522">
        <ele>43.2</ele>
        <time>2019-01-23T09:29:47Z</time>
      </trkpt>
      <trkpt lat="48.71138" lon="2.45521">
        <ele>43.3</ele>
        <time>2019-01-23T09:29:53Z</time>
      </trkpt>
      <trkpt lat="48.71133" lon="2.45521">
        <ele>43.4</ele>
        <time>2019-01-23T09:29:59Z</time>
      </trkpt>
      <trkpt lat="48.71128" lon="2.45527">
        <ele>43.5</ele>
        <time>2019-01-23T09:30:04Z</time>
      </trkpt>
      <trkpt lat="48.71123" lon="2.45534">
        <ele>43.6</ele>
        <time>2019-01-23T09:30:07Z</time>
      </trkpt>
      <trkpt lat="48.71118" lon="2.45538">
        <ele>43.6</ele>
        <time>2019-01-23T09:30:12Z</time>
      </trkpt>
      <trkpt lat="48.71114" lon="2.45544">
        <ele>43.7</ele>
        <time>2019-01-23T09:30:16Z</time>
      </trkpt>
      <trkpt lat="48.7111" lon="2.4555">
        <ele>43.8</ele>
        <time>2019-01-23T09:30:21Z</time>
      </trkpt>
      <trkpt lat="48.71108" lon="2.45556">
        <ele>43.9</ele>
        <time>2019-01-23T09:30:27Z</time>
      </trkpt>
      <trkpt lat="48.71104" lon="2.45562">
        <ele>44</ele>
        <time>2019-01-23T09:30:32Z</time>
      </trkpt>
      <trkpt lat="48.71101" lon="2.45568">
        <ele>44</ele>
        <time>2019-01-23T09:30:35Z</time>
      </trkpt>
      <trkpt lat="48.71099" lon="2.45574">
        <ele>44.1</ele>
        <time>2019-01-23T09:30:42Z</time>
      </trkpt>
      <trkpt lat="48.71094" lon="2.45581">
        <ele>44.2</ele>
        <time>2019-01-23T09:30:45Z</time>
      </trkpt>
      <trkpt lat="48.71091" lon="2.45587">
        <ele>44.2</ele>
        <time>2019-01-23T09:30:47Z</time>
      </trkpt>
      <trkpt lat="48.71087" lon="2.45591">
        <ele>44.3</ele>
        <time>2019-01-23T09:30:50Z</time>
      </trkpt>
      <trkpt lat="48.71084" lon="2.45596">
        <ele>44.4</ele>
        <time>2019-01-23T09:30:58Z</time>
      </trkpt>
      <trkpt lat="48.7108" lon="2.45602">
        <ele>44.5</ele>
        <time>2019-01-23T09:31:02Z</time>
      </trkpt>
      <trkpt lat="48.71076" lon="2.45607">
        <ele>44.5</ele>
        <time>2019-01-23T09:31:06Z</time>
      </trkpt>
      <trkpt lat="48.71072" lon="2.45612">
        <ele>44.6</ele>
        <time>2019-01-23T09:31:10Z</time>
      </trkpt>
      <trkpt lat="48.71068" lon="2.45617">
        <ele>44.7</ele>
        <time>2019-01-23T09:31:17Z</time>
      </trkpt>
      <trkpt lat="48.71065" lon="2.45626">
        <ele>44.8</ele>
        <time>2019-01-23T09:31:26Z</time>
      </trkpt>
      <trkpt lat="48.71063" lon="2.45632">
        <ele>44.9</ele>
        <time>2019-01-23T09:31:32Z</time>
      </trkpt>
      <trkpt lat="48.71058" lon="2.45638">
        <ele>44.9</ele>
        <time>2019-01-23T09:31:36Z</time>
      </trkpt>
      <trkpt lat="48.71055" lon="2.45643">
        <ele>45</ele>
        <time>2019-01-23T09:31:40Z</time>
      </trkpt>
      <trkpt lat="48.71053" lon="2.45649">
        <ele>45.1</ele>
        <time>2019-01-23T09:31:43Z</time>
      </trkpt>
      <trkpt lat="48.71048" lon="2.45654">
        <ele>45.2</ele>
        <time>2019-01-23T09:31:48Z</time>
      </trkpt>
      <trkpt lat="48.71044" lon="2.4566">
        <ele>45.3</ele>
        <time>2019-01-23T09:31:54Z</time>
      </trkpt>
      <trkpt lat="48.71039" lon="2.45667">
        <ele>45.3</ele>
        <time>2019-01-23T09:31:57Z</time>
      </trkpt>
      <trkpt lat="48.71036" lon="2.45672">
        <ele>45.4</ele>
        <time>2019-01-23T09:32:00Z</time>
      </trkpt>
      <trkpt lat="48.71032" lon="2.45677">
        <ele>45.4</ele>
        <time>2019-01-23T09:32:04Z</time>
      </trkpt>
      <trkpt lat="48.71028" lon="2.45682">
        <ele>45.5</ele>
        <time>2019-01-23T09:32:08Z</time>
      </trkpt>
      <trkpt lat="48.71025" lon="2.45689">
        <ele>45.6</ele>
        <time>2019-01-23T09:32:11Z</time>
      </trkpt>
      <trkpt lat="48.71022" lon="2.45697">
        <ele>45.6</ele>
        <time>2019-01-23T09:32:15Z</time>
      </trkpt>
      <trkpt lat="48.71019" lon="2.45704">
        <ele>45.7</ele>
        <time>2019-01-23T09:32:20Z</time>
      </trkpt>
      <trkpt lat="48.71017" lon="2.4571">
        <ele>45.7</ele>
        <time>2019-01-23T09:32:24Z</time>
      </trkpt>
      <trkpt lat="48.71016" lon="2.45717">
        <ele>45.8</ele>
        <time>2019-01-23T09:32:29Z</time>
      </trkpt>
      <trkpt lat="48.71014" lon="2.45724">
        <ele>45.9</ele>
        <time>2019-01-23T09:32:32Z</time>
      </trkpt>
      <trkpt lat="48.71011" lon="2.45731">
        <ele>45.9</ele>
        <time>2019-01-23T09:32:35Z</time>
      </trkpt>
      <trkpt lat="48.71009" lon="2.45739">
        <ele>46</ele>
        <time>2019-01-23T09:32:40Z</time>
      </trkpt>
      <trkpt lat="48.71006" lon="2.45745">
        <ele>46</ele>
        <time>2019-01-23T09:32:44Z</time>
      </trkpt>
      <trkpt lat="48.71004" lon="2.45751">
        <ele>46.1</ele>
        <time>2019-01-23T09:32:48Z</time>
      </trkpt>
      <trkpt lat="48.71001" lon="2.45759">
        <ele>46.1</ele>
        <time>2019-01-23T09:32:54Z</time>
      </trkpt>
      <trkpt lat="48.71" lon="2.45765">
        <ele>46.2</ele>
        <time>2019-01-23T09:32:58Z</time>
      </trkpt>
      <trkpt lat="48.70997" lon="2.45771">
        <ele>46.2</ele>
        <time>2019-01-23T09:33:02Z</time>
      </trkpt>
      <trkpt lat="48.70996" lon="2.45778">
        <ele>46.3</ele>
        <time>2019-01-23T09:33:09Z</time>
      </trkpt>
      <trkpt lat="48.70996" lon="2.45786">
        <ele>46.4</ele>
        <time>2019-01-23T09:33:13Z</time>
      </trkpt>
      <trkpt lat="48.70994" lon="2.45793">
        <ele>46.4</ele>
        <time>2019-01-23T09:33:22Z</time>
      </trkpt>
      <trkpt lat="48.70994" lon="2.45801">
        <ele>46.5</ele>
        <time>2019-01-23T09:33:30Z</time>
      </trkpt>
      <trkpt lat="48.7099" lon="2.45805">
        <ele>46.5</ele>
        <time>2019-01-23T09:33:37Z</time>
      </trkpt>
      <trkpt lat="48.70986" lon="2.45801">
        <ele>46.5</ele>
        <time>2019-01-23T09:33:42Z</time>
      </trkpt>
      <trkpt lat="48.70982" lon="2.45796">
        <ele>46.5</ele>
        <time>2019-01-23T09:33:49Z</time>
      </trkpt>
      <trkpt lat="48.70978" lon="2.45791">
        <ele>46.5</ele>
        <time>2019-01-23T09:33:52Z</time>
      </trkpt>
      <trkpt lat="48.70972" lon="2.45792">
        <ele>46.6</ele>
        <time>2019-01-23T09:33:54Z</time>
      </trkpt>
      <trkpt lat="48.70966" lon="2.45794">
        <ele>46.6</ele>
        <time>2019-01-23T09:33:57Z</time>
      </trkpt>
      <trkpt lat="48.70961" lon="2.45793">
        <ele>46.6</ele>
        <time>2019-01-23T09:34:00Z</time>
      </trkpt>
      <trkpt lat="48.70964" lon="2.45787">
        <ele>46.6</ele>
        <time>2019-01-23T09:34:02Z</time>
      </trkpt>
      <trkpt lat="48.7096" lon="2.45779">
        <ele>46.6</ele>
        <time>2019-01-23T09:34:08Z</time>
      </trkpt>
      <trkpt lat="48.70959" lon="2.45772">
        <ele>46.6</ele>
        <time>2019-01-23T09:34:10Z</time>
      </trkpt>
      <trkpt lat="48.70956" lon="2.45764">
        <ele>46.6</ele>
        <time>2019-01-23T09:34:18Z</time>
      </trkpt>
      <trkpt lat="48.7095" lon="2.45765">
        <ele>46.6</ele>
        <time>2019-01-23T09:34:23Z</time>
      </trkpt>
      <trkpt lat="48.70946" lon="2.4576">
        <ele>46.6</ele>
        <time>2019-01-23T09:34:28Z</time>
      </trkpt>
      <trkpt lat="48.70939" lon="2.45755">
        <ele>46.6</ele>
        <time>2019-01-23T09:34:39Z</time>
      </trkpt>
      <trkpt lat="48.70936" lon="2.4575">
        <ele>46.6</ele>
        <time>2019-01-23T09:34:41Z</time>
      </trkpt>
      <trkpt lat="48.70936" lon="2.45742">
        <ele>46.6</ele>
        <time>2019-01-23T09:34:44Z</time>
      </trkpt>
      <trkpt lat="48.70935" lon="2.45734">
        <ele>46.6</ele>
        <time>2019-01-23T09:34:46Z</time>
      </trkpt>
      <trkpt lat="48.70937" lon="2.45725">
        <ele>46.6</ele>
        <time>2019-01-23T09:34:53Z</time>
      </trkpt>
      <trkpt lat="48.7094" lon="2.45719">
        <ele>46.6</ele>
        <time>2019-01-23T09:34:56Z</time>
      </trkpt>
      <trkpt lat="48.70938" lon="2.4571">
        <ele>46.6</ele>
        <time>2019-01-23T09:35:04Z</time>
      </trkpt>
      <trkpt lat="48.70936" lon="2.45701">
        <ele>46.6</ele>
        <time>2019-01-23T09:35:11Z</time>
      </trkpt>
      <trkpt lat="48.70931" lon="2.457">
        <ele>46.6</ele>
        <time>2019-01-23T09:35:15Z</time>
      </trkpt>
      <trkpt lat="48.70932" lon="2.45693">
        <ele>46.6</ele>
        <time>2019-01-23T09:35:20Z</time>
      </trkpt>
      <trkpt lat="48.70929" lon="2.45686">
        <ele>46.6</ele>
        <time>2019-01-23T09:35:23Z</time>
      </trkpt>
      <trkpt lat="48.70925" lon="2.45682">
        <ele>46.7</ele>
        <time>2019-01-23T09:35:27Z</time>
      </trkpt>
      <trkpt lat="48.7092" lon="2.45677">
        <ele>46.7</ele>
        <time>2019-01-23T09:35:34Z</time>
      </trkpt>
      <trkpt lat="48.70916" lon="2.45675">
        <ele>46.7</ele>
        <time>2019-01-23T09:35:39Z</time>
      </trkpt>
      <trkpt lat="48.70913" lon="2.45667">
        <ele>46.8</ele>
        <time>2019-01-23T09:35:41Z</time>
      </trkpt>
      <trkpt lat="48.70908" lon="2.45666">
        <ele>46.9</ele>
        <time>2019-01-23T09:35:45Z</time>
      </trkpt>
      <trkpt lat="48.70904" lon="2.45662">
        <ele>46.9</ele>
        <time>2019-01-23T09:35:49Z</time>
      </trkpt>
      <trkpt lat="48.70898" lon="2.45662">
        <ele>47</ele>
        <time>2019-01-23T09:35:52Z</time>
      </trkpt>
      <trkpt lat="48.70895" lon="2.45657">
        <ele>47.1</ele>
        <time>2019-01-23T09:36:00Z</time>
      </trkpt>
      <trkpt lat="48.7089" lon="2.45653">
        <ele>47.1</ele>
        <time>2019-01-23T09:36:04Z</time>
      </trkpt>
      <trkpt lat="48.70886" lon="2.45647">
        <ele>47.2</ele>
        <time>2019-01-23T09:36:07Z</time>
      </trkpt>
      <trkpt lat="48.70883" lon="2.45643">
        <ele>47.2</ele>
        <time>2019-01-23T09:36:13Z</time>
      </trkpt>
      <trkpt lat="48.70882" lon="2.45636">
        <ele>47.3</ele>
        <time>2019-01-23T09:36:18Z</time>
      </trkpt>
      <trkpt lat="48.70877" lon="2.45631">
        <ele>47.3</ele>
        <time>2019-01-23T09:36:24Z</time>
      </trkpt>
      <trkpt lat="48.70872" lon="2.4563">
        <ele>47.4</ele>
        <time>2019-01-23T09:36:31Z</time>
      </trkpt>
      <trkpt lat="48.70869" lon="2.45624">
        <ele>47.4</ele>
        <time>2019-01-23T09:36:35Z</time>
      </trkpt>
      <trkpt lat="48.7087" lon="2.45615">
        <ele>47.4</ele>
        <time>2019-01-23T09:36:37Z</time>
      </trkpt>
      <trkpt lat="48.7087" lon="2.45607">
        <ele>47.5</ele>
        <time>2019-01-23T09:36:39Z</time>
      </trkpt>
      <trkpt lat="48.70866" lon="2.45602">
        <ele>47.5</ele>
        <time>2019-01-23T09:36:44Z</time>
      </trkpt>
      <trkpt lat="48.70859" lon="2.456">
        <ele>47.5</ele>
        <time>2019-01-23T09:36:46Z</time>
      </trkpt>
      <trkpt lat="48.70853" lon="2.45595">
        <ele>47.6</ele>
        <time>2019-01-23T09:36:53Z</time>
      </trkpt>
      <trkpt lat="48.70849" lon="2.45592">
        <ele>47.6</ele>
        <time>2019-01-23T09:36:56Z</time>
      </trkpt>
      <trkpt lat="48.70844" lon="2.45594">
        <ele>47.6</ele>
        <time>2019-01-23T09:37:03Z</time>
      </trkpt>
      <trkpt lat="48.70838" lon="2.45592">
        <ele>47.6</ele>
        <time>2019-01-23T09:37:07Z</time>
      </trkpt>
      <trkpt lat="48.70833" lon="2.4559">
        <ele>47.7</ele>
        <time>2019-01-23T09:37:12Z</time>
      </trkpt>
      <trkpt lat="48.70828" lon="2.45587">
        <ele>47.8</ele>
        <time>2019-01-23T09:37:16Z</time>
      </trkpt>
      <trkpt lat="48.70823" lon="2.45585">
        <ele>47.9</ele>
        <time>2019-01-23T09:37:19Z</time>
      </trkpt>
      <trkpt lat="48.70822" lon="2.45578">
        <ele>48.1</ele>
        <time>2019-01-23T09:37:23Z</time>
      </trkpt>
      <trkpt lat="48.70819" lon="2.45572">
        <ele>48.2</ele>
        <time>2019-01-23T09:37:30Z</time>
      </trkpt>
      <trkpt lat="48.70815" lon="2.4557">
        <ele>48.4</ele>
        <time>2019-01-23T09:37:35Z</time>
      </trkpt>
      <trkpt lat="48.7081" lon="2.45564">
        <ele>48.6</ele>
        <time>2019-01-23T09:37:38Z</time>
      </trkpt>
      <trkpt lat="48.70804" lon="2.45561">
        <ele>48.9</ele>
        <time>2019-01-23T09:37:40Z</time>
      </trkpt>
      <trkpt lat="48.708" lon="2.45558">
        <ele>49.4</ele>
        <time>2019-01-23T09:37:42Z</time>
      </trkpt>
      <trkpt lat="48.70797" lon="2.45553">
        <ele>49.8</ele>
        <time>2019-01-23T09:37:47Z</time>
      </trkpt>
      <trkpt lat="48.70794" lon="2.45546">
        <ele>50.3</ele>
        <time>2019-01-23T09:37:54Z</time>
      </trkpt>
      <trkpt lat="48.70789" lon="2.45543">
        <ele>50.8</ele>
        <time>2019-01-23T09:38:02Z</time>
      </trkpt>
      <trkpt lat="48.70786" lon="2.45536">
        <ele>51.2</ele>
        <time>2019-01-23T09:38:09Z</time>
      </trkpt>
      <trkpt lat="48.70783" lon="2.45532">
        <ele>51.7</ele>
        <time>2019-01-23T09:38:12Z</time>
      </trkpt>
      <trkpt lat="48.70778" lon="2.45529">
        <ele>52.1</ele>
        <time>2019-01-23T09:38:16Z</time>
      </trkpt>
      <trkpt lat="48.70768" lon="2.45536">
        <ele>52.6</ele>
        <time>2019-01-23T09:38:25Z</time>
      </trkpt>
      <trkpt lat="48.70766" lon="2.45527">
        <ele>53</ele>
        <time>2019-01-23T09:38:28Z</time>
      </trkpt>
      <trkpt lat="48.70762" lon="2.4552">
        <ele>53.3</ele>
        <time>2019-01-23T09:38:34Z</time>
      </trkpt>
      <trkpt lat="48.70758" lon="2.45514">
        <ele>53.6</ele>
        <time>2019-01-23T09:38:35Z</time>
      </trkpt>
      <trkpt lat="48.70753" lon="2.4551">
        <ele>54</ele>
        <time>2019-01-23T09:38:38Z</time>
      </trkpt>
      <trkpt lat="48.70751" lon="2.45504">
        <ele>54.5</ele>
        <time>2019-01-23T09:38:43Z</time>
      </trkpt>
      <trkpt lat="48.70745" lon="2.45503">
        <ele>55</ele>
        <time>2019-01-23T09:38:48Z</time>
      </trkpt>
      <trkpt lat="48.70741" lon="2.45501">
        <ele>55.5</ele>
        <time>2019-01-23T09:38:51Z</time>
      </trkpt>
      <trkpt lat="48.70736" lon="2.45499">
        <ele>56.1</ele>
        <time>2019-01-23T09:38:57Z</time>
      </trkpt>
      <trkpt lat="48.70731" lon="2.45502">
        <ele>56.7</ele>
        <time>2019-01-23T09:39:02Z</time>
      </trkpt>
      <trkpt lat="48.70726" lon="2.45507">
        <ele>57.3</ele>
        <time>2019-01-23T09:39:05Z</time>
      </trkpt>
      <trkpt lat="48.70723" lon="2.45513">
        <ele>57.8</ele>
        <time>2019-01-23T09:39:09Z</time>
      </trkpt>
      <trkpt lat="48.70721" lon="2.45524">
        <ele>58.3</ele>
        <time>2019-01-23T09:39:17Z</time>
      </trkpt>
      <trkpt lat="48.70718" lon="2.4553">
        <ele>58.7</ele>
        <time>2019-01-23T09:39:21Z</time>
      </trkpt>
      <trkpt lat="48.70718" lon="2.45537">
        <ele>59</ele>
        <time>2019-01-23T09:39:29Z</time>
      </trkpt>
      <trkpt lat="48.70712" lon="2.45541">
        <ele>59.4</ele>
        <time>2019-01-23T09:39:34Z</time>
      </trkpt>
      <trkpt lat="48.70709" lon="2.45545">
        <ele>59.8</ele>
        <time>2019-01-23T09:39:37Z</time>
      </trkpt>
      <trkpt lat="48.70706" lon="2.45552">
        <ele>60.3</ele>
        <time>2019-01-23T09:39:40Z</time>
      </trkpt>
      <trkpt lat="48.70702" lon="2.45556">
        <ele>60.8</ele>
        <time>2019-01-23T09:39:45Z</time>
      </trkpt>
      <trkpt lat="48.70698" lon="2.45561">
        <ele>61.5</ele>
        <time>2019-01-23T09:39:50Z</time>
      </trkpt>
      <trkpt lat="48.70695" lon="2.45566">
        <ele>62.1</ele>
        <time>2019-01-23T09:39:54Z</time>
      </trkpt>
      <trkpt lat="48.70693" lon="2.45573">
        <ele>62.8</ele>
        <time>2019-01-23T09:39:59Z</time>
      </trkpt>
      <trkpt lat="48.70691" lon="2.45579">
        <ele>63.3</ele>
        <time>2019-01-23T09:40:02Z</time>
      </trkpt>
      <trkpt lat="48.7069" lon="2.45587">
        <ele>64</ele>
        <time>2019-01-23T09:40:13Z</time>
      </trkpt>
      <trkpt lat="48.70687" lon="2.45592">
        <ele>64.5</ele>
        <time>2019-01-23T09:40:20Z</time>
      </trkpt>
      <trkpt lat="48.70683" lon="2.45597">
        <ele>64.9</ele>
        <time>2019-01-23T09:40:24Z</time>
      </trkpt>
      <trkpt lat="48.70679" lon="2.456">
        <ele>65.3</ele>
        <time>2019-01-23T09:40:28Z</time>
      </trkpt>
      <trkpt lat="48.70674" lon="2.45605">
        <ele>65.8</ele>
        <time>2019-01-23T09:40:34Z</time>
      </trkpt>
      <trkpt lat="48.70669" lon="2.45606">
        <ele>66.3</ele>
        <time>2019-01-23T09:40:39Z</time>
      </trkpt>
      <trkpt lat="48.70664" lon="2.45608">
        <ele>66.7</ele>
        <time>2019-01-23T09:40:42Z</time>
      </trkpt>
      <trkpt lat="48.70659" lon="2.45609">
        <ele>67.1</ele>
        <time>2019-01-23T09:40:46Z</time>
      </trkpt>
      <trkpt lat="48.70654" lon="2.45613">
        <ele>67.5</ele>
        <time>2019-01-23T09:40:56Z</time>
      </trkpt>
      <trkpt lat="48.70654" lon="2.45621">
        <ele>67.8</ele>
        <time>2019-01-23T09:41:00Z</time>
      </trkpt>
      <trkpt lat="48.70653" lon="2.45628">
        <ele>68</ele>
        <time>2019-01-23T09:41:04Z</time>
      </trkpt>
      <trkpt lat="48.7065" lon="2.45634">
        <ele>68.3</ele>
        <time>2019-01-23T09:41:07Z</time>
      </trkpt>
      <trkpt lat="48.70647" lon="2.4564">
        <ele>68.6</ele>
        <time>2019-01-23T09:41:10Z</time>
      </trkpt>
      <trkpt lat="48.70644" lon="2.45647">
        <ele>69</ele>
        <time>2019-01-23T09:41:14Z</time>
      </trkpt>
      <trkpt lat="48.7064" lon="2.45651">
        <ele>69.4</ele>
        <time>2019-01-23T09:41:17Z</time>
      </trkpt>
      <trkpt lat="48.70635" lon="2.45654">
        <ele>69.8</ele>
        <time>2019-01-23T09:41:21Z</time>
      </trkpt>
      <trkpt lat="48.70632" lon="2.45662">
        <ele>70.2</ele>
        <time>2019-01-23T09:41:27Z</time>
      </trkpt>
      <trkpt lat="48.70628" lon="2.45667">
        <ele>70.5</ele>
        <time>2019-01-23T09:41:33Z</time>
      </trkpt>
      <trkpt lat="48.70625" lon="2.45671">
        <ele>70.9</ele>
        <time>2019-01-23T09:41:39Z</time>
      </trkpt>
      <trkpt lat="48.7062" lon="2.45673">
        <ele>71.2</ele>
        <time>2019-01-23T09:41:45Z</time>
      </trkpt>
      <trkpt lat="48.70618" lon="2.4568">
        <ele>71.4</ele>
        <time>2019-01-23T09:41:50Z</time>
      </trkpt>
      <trkpt lat="48.70616" lon="2.45687">
        <ele>71.6</ele>
        <time>2019-01-23T09:41:56Z</time>
      </trkpt>
      <trkpt lat="48.70613" lon="2.45694">
        <ele>71.8</ele>
        <time>2019-01-23T09:42:02Z</time>
      </trkpt>
      <trkpt lat="48.7061" lon="2.45698">
        <ele>72</ele>
        <time>2019-01-23T09:42:06Z</time>
      </trkpt>
      <trkpt lat="48.70606" lon="2.45702">
        <ele>72.2</ele>
        <time>2019-01-23T09:42:10Z</time>
      </trkpt>
      <trkpt lat="48.70601" lon="2.45707">
        <ele>72.3</ele>
        <time>2019-01-23T09:42:16Z</time>
      </trkpt>
      <trkpt lat="48.70597" lon="2.45712">
        <ele>72.6</ele>
        <time>2019-01-23T09:42:22Z</time>
      </trkpt>
      <trkpt lat="48.70592" lon="2.45711">
        <ele>72.8</ele>
        <time>2019-01-23T09:42:30Z</time>
      </trkpt>
      <trkpt lat="48.7059" lon="2.45704">
        <ele>73</ele>
        <time>2019-01-23T09:42:36Z</time>
      </trkpt>
      <trkpt lat="48.70586" lon="2.45699">
        <ele>73.2</ele>
        <time>2019-01-23T09:42:39Z</time>
      </trkpt>
      <trkpt lat="48.70583" lon="2.45694">
        <ele>73.4</ele>
        <time>2019-01-23T09:42:45Z</time>
      </trkpt>
      <trkpt lat="48.70577" lon="2.4569">
        <ele>73.5</ele>
        <time>2019-01-23T09:42:55Z</time>
      </trkpt>
      <trkpt lat="48.70573" lon="2.45689">
        <ele>73.5</ele>
        <time>2019-01-23T09:42:58Z</time>
      </trkpt>
      <trkpt lat="48.70568" lon="2.45685">
        <ele>73.5</ele>
        <time>2019-01-23T09:43:02Z</time>
      </trkpt>
      <trkpt lat="48.70565" lon="2.45677">
        <ele>73.6</ele>
        <time>2019-01-23T09:43:07Z</time>
      </trkpt>
      <trkpt lat="48.7056" lon="2.45674">
        <ele>73.6</ele>
        <time>2019-01-23T09:43:10Z</time>
      </trkpt>
      <trkpt lat="48.70555" lon="2.45674">
        <ele>73.7</ele>
        <time>2019-01-23T09:43:14Z</time>
      </trkpt>
      <trkpt lat="48.7055" lon="2.45673">
        <ele>73.7</ele>
        <time>2019-01-23T09:43:21Z</time>
      </trkpt>
      <trkpt lat="48.70549" lon="2.45665">
        <ele>73.7</ele>
        <time>2019-01-23T09:43:25Z</time>
      </trkpt>
      <trkpt lat="48.70545" lon="2.45659">
        <ele>73.7</ele>
        <time>2019-01-23T09:43:28Z</time>
      </trkpt>
      <trkpt lat="48.70542" lon="2.45653">
        <ele>73.8</ele>
        <time>2019-01-23T09:43:35Z</time>
      </trkpt>
      <trkpt lat="48.70538" lon="2.4565">
        <ele>73.8</ele>
        <time>2019-01-23T09:43:40Z</time>
      </trkpt>
      <trkpt lat="48.70532" lon="2.45647">
        <ele>73.8</ele>
        <time>2019-01-23T09:43:44Z</time>
      </trkpt>
      <trkpt lat="48.70528" lon="2.45642">
        <ele>73.8</ele>
        <time>2019-01-23T09:43:46Z</time>
      </trkpt>
      <trkpt lat="48.70525" lon="2.45636">
        <ele>73.8</ele>
        <time>2019-01-23T09:43:50Z</time>
      </trkpt>
      <trkpt lat="48.7052" lon="2.45637">
        <ele>73.8</ele>
        <time>2019-01-23T09:43:54Z</time>
      </trkpt>
      <trkpt lat="48.70516" lon="2.45633">
        <ele>73.8</ele>
        <time>2019-01-23T09:44:02Z</time>
      </trkpt>
      <trkpt lat="48.70511" lon="2.4563">
        <ele>73.8</ele>
        <time>2019-01-23T09:44:07Z</time>
      </trkpt>
      <trkpt lat="48.70507" lon="2.45626">
        <ele>73.8</ele>
        <time>2019-01-23T09:44:11Z</time>
      </trkpt>
      <trkpt lat="48.70504" lon="2.45618">
        <ele>73.8</ele>
        <time>2019-01-23T09:44:14Z</time>
      </trkpt>
      <trkpt lat="48.705" lon="2.45615">
        <ele>73.8</ele>
        <time>2019-01-23T09:44:18Z</time>
      </trkpt>
      <trkpt lat="48.70496" lon="2.4561">
        <ele>73.8</ele>
        <time>2019-01-23T09:44:21Z</time>
      </trkpt>
      <trkpt lat="48.70495" lon="2.45602">
        <ele>73.8</ele>
        <time>2019-01-23T09:44:24Z</time>
      </trkpt>
      <trkpt lat="48.7049" lon="2.456">
        <ele>73.8</ele>
        <time>2019-01-23T09:44:29Z</time>
      </trkpt>
      <trkpt lat="48.70486" lon="2.45597">
        <ele>73.8</ele>
        <time>2019-01-23T09:44:32Z</time>
      </trkpt>
      <trkpt lat="48.70481" lon="2.45592">
        <ele>73.7</ele>
        <time>2019-01-23T09:44:34Z</time>
      </trkpt>
      <trkpt lat="48.70477" lon="2.45588">
        <ele>73.7</ele>
        <time>2019-01-23T09:44:38Z</time>
      </trkpt>
      <trkpt lat="48.70472" lon="2.45585">
        <ele>73.7</ele>
        <time>2019-01-23T09:44:42Z</time>
      </trkpt>
      <trkpt lat="48.70467" lon="2.45587">
        <ele>73.7</ele>
        <time>2019-01-23T09:44:47Z</time>
      </trkpt>
      <trkpt lat="48.70464" lon="2.45578">
        <ele>73.7</ele>
        <time>2019-01-23T09:44:55Z</time>
      </trkpt>
      <trkpt lat="48.70462" lon="2.45566">
        <ele>73.7</ele>
        <time>2019-01-23T09:44:57Z</time>
      </trkpt>
      <trkpt lat="48.70459" lon="2.45561">
        <ele>73.7</ele>
        <time>2019-01-23T09:45:01Z</time>
      </trkpt>
      <trkpt lat="48.70455" lon="2.45554">
        <ele>73.7</ele>
        <time>2019-01-23T09:45:09Z</time>
      </trkpt>
      <trkpt lat="48.70451" lon="2.45549">
        <ele>73.7</ele>
        <time>2019-01-23T09:45:13Z</time>
      </trkpt>
      <trkpt lat="48.70446" lon="2.45549">
        <ele>73.8</ele>
        <time>2019-01-23T09:45:17Z</time>
      </trkpt>
      <trkpt lat="48.70441" lon="2.45547">
        <ele>73.8</ele>
        <time>2019-01-23T09:45:20Z</time>
      </trkpt>
      <trkpt lat="48.70437" lon="2.45544">
        <ele>73.8</ele>
        <time>2019-01-23T09:45:24Z</time>
      </trkpt>
      <trkpt lat="48.70432" lon="2.45546">
        <ele>73.9</ele>
        <time>2019-01-23T09:45:29Z</time>
      </trkpt>
      <trkpt lat="48.70429" lon="2.45541">
        <ele>73.9</ele>
        <time>2019-01-23T09:45:36Z</time>
      </trkpt>
      <trkpt lat="48.70425" lon="2.4554">
        <ele>73.9</ele>
        <time>2019-01-23T09:45:41Z</time>
      </trkpt>
      <trkpt lat="48.70421" lon="2.45532">
        <ele>74</ele>
        <time>2019-01-23T09:45:44Z</time>
      </trkpt>
      <trkpt lat="48.70416" lon="2.45527">
        <ele>74</ele>
        <time>2019-01-23T09:45:48Z</time>
      </trkpt>
      <trkpt lat="48.70418" lon="2.4552">
        <ele>74</ele>
        <time>2019-01-23T09:45:52Z</time>
      </trkpt>
      <trkpt lat="48.70414" lon="2.45516">
        <ele>74</ele>
        <time>2019-01-23T09:45:53Z</time>
      </trkpt>
      <trkpt lat="48.70407" lon="2.45516">
        <ele>74</ele>
        <time>2019-01-23T09:45:55Z</time>
      </trkpt>
      <trkpt lat="48.70403" lon="2.45508">
        <ele>74.1</ele>
        <time>2019-01-23T09:45:57Z</time>
      </trkpt>
      <trkpt lat="48.70403" lon="2.45501">
        <ele>74.1</ele>
        <time>2019-01-23T09:46:13Z</time>
      </trkpt>
      <trkpt lat="48.70398" lon="2.45497">
        <ele>74.2</ele>
        <time>2019-01-23T09:46:17Z</time>
      </trkpt>
      <trkpt lat="48.70393" lon="2.45499">
        <ele>74.3</ele>
        <time>2019-01-23T09:46:21Z</time>
      </trkpt>
      <trkpt lat="48.70388" lon="2.45503">
        <ele>74.3</ele>
        <time>2019-01-23T09:46:26Z</time>
      </trkpt>
      <trkpt lat="48.70384" lon="2.45506">
        <ele>74.4</ele>
        <time>2019-01-23T09:46:33Z</time>
      </trkpt>
      <trkpt lat="48.70379" lon="2.45507">
        <ele>74.5</ele>
        <time>2019-01-23T09:46:36Z</time>
      </trkpt>
      <trkpt lat="48.70374" lon="2.45505">
        <ele>74.7</ele>
        <time>2019-01-23T09:46:41Z</time>
      </trkpt>
      <trkpt lat="48.7037" lon="2.45508">
        <ele>74.8</ele>
        <time>2019-01-23T09:46:56Z</time>
      </trkpt>
      <trkpt lat="48.70365" lon="2.45512">
        <ele>74.9</ele>
        <time>2019-01-23T09:47:07Z</time>
      </trkpt>
      <trkpt lat="48.70359" lon="2.45514">
        <ele>75</ele>
        <time>2019-01-23T09:47:11Z</time>
      </trkpt>
      <trkpt lat="48.70356" lon="2.4552">
        <ele>75.1</ele>
        <time>2019-01-23T09:47:15Z</time>
      </trkpt>
      <trkpt lat="48.70353" lon="2.45526">
        <ele>75.2</ele>
        <time>2019-01-23T09:47:18Z</time>
      </trkpt>
      <trkpt lat="48.70351" lon="2.45533">
        <ele>75.3</ele>
        <time>2019-01-23T09:47:21Z</time>
      </trkpt>
      <trkpt lat="48.70348" lon="2.45541">
        <ele>75.5</ele>
        <time>2019-01-23T09:47:25Z</time>
      </trkpt>
      <trkpt lat="48.70346" lon="2.45546">
        <ele>75.6</ele>
        <time>2019-01-23T09:47:29Z</time>
      </trkpt>
      <trkpt lat="48.70343" lon="2.45552">
        <ele>75.8</ele>
        <time>2019-01-23T09:47:32Z</time>
      </trkpt>
      <trkpt lat="48.70338" lon="2.45557">
        <ele>76.1</ele>
        <time>2019-01-23T09:47:36Z</time>
      </trkpt>
      <trkpt lat="48.70334" lon="2.45561">
        <ele>76.3</ele>
        <time>2019-01-23T09:47:41Z</time>
      </trkpt>
      <trkpt lat="48.70329" lon="2.45565">
        <ele>76.5</ele>
        <time>2019-01-23T09:47:47Z</time>
      </trkpt>
      <trkpt lat="48.70325" lon="2.45569">
        <ele>76.6</ele>
        <time>2019-01-23T09:47:53Z</time>
      </trkpt>
      <trkpt lat="48.7032" lon="2.45574">
        <ele>76.8</ele>
        <time>2019-01-23T09:47:59Z</time>
      </trkpt>
      <trkpt lat="48.70316" lon="2.45578">
        <ele>76.9</ele>
        <time>2019-01-23T09:48:03Z</time>
      </trkpt>
      <trkpt lat="48.70313" lon="2.45585">
        <ele>77.1</ele>
        <time>2019-01-23T09:48:06Z</time>
      </trkpt>
      <trkpt lat="48.70309" lon="2.45588">
        <ele>77.3</ele>
        <time>2019-01-23T09:48:11Z</time>
      </trkpt>
      <trkpt lat="48.70306" lon="2.45594">
        <ele>77.5</ele>
        <time>2019-01-23T09:48:14Z</time>
      </trkpt>
      <trkpt lat="48.70301" lon="2.45598">
        <ele>77.8</ele>
        <time>2019-01-23T09:48:19Z</time>
      </trkpt>
      <trkpt lat="48.70297" lon="2.45602">
        <ele>78.4</ele>
        <time>2019-01-23T09:48:23Z</time>
      </trkpt>
      <trkpt lat="48.70293" lon="2.45603">
        <ele>78.9</ele>
        <time>2019-01-23T09:48:36Z</time>
      </trkpt>
      <trkpt lat="48.70288" lon="2.45605">
        <ele>79.3</ele>
        <time>2019-01-23T09:48:52Z</time>
      </trkpt>
      <trkpt lat="48.70284" lon="2.45606">
        <ele>79.8</ele>
        <time>2019-01-23T09:56:21Z</time>
      </trkpt>
      <trkpt lat="48.7028" lon="2.4561">
        <ele>80</ele>
        <time>2019-01-23T09:58:39Z</time>
      </trkpt>
      <trkpt lat="48.70275" lon="2.45613">
        <ele>80.1</ele>
        <time>2019-01-23T09:58:47Z</time>
      </trkpt>
      <trkpt lat="48.70272" lon="2.45617">
        <ele>80.1</ele>
        <time>2019-01-23T09:58:54Z</time>
      </trkpt>
      <trkpt lat="48.70267" lon="2.45621">
        <ele>80.2</ele>
        <time>2019-01-23T09:58:59Z</time>
      </trkpt>
      <trkpt lat="48.70264" lon="2.45625">
        <ele>80.3</ele>
        <time>2019-01-23T09:59:03Z</time>
      </trkpt>
      <trkpt lat="48.70259" lon="2.4563">
        <ele>80.3</ele>
        <time>2019-01-23T09:59:08Z</time>
      </trkpt>
      <trkpt lat="48.70254" lon="2.45632">
        <ele>80.4</ele>
        <time>2019-01-23T09:59:23Z</time>
      </trkpt>
      <trkpt lat="48.70249" lon="2.45634">
        <ele>80.4</ele>
        <time>2019-01-23T09:59:29Z</time>
      </trkpt>
      <trkpt lat="48.70244" lon="2.45639">
        <ele>80.5</ele>
        <time>2019-01-23T09:59:34Z</time>
      </trkpt>
      <trkpt lat="48.7024" lon="2.45642">
        <ele>80.5</ele>
        <time>2019-01-23T09:59:40Z</time>
      </trkpt>
      <trkpt lat="48.70235" lon="2.45647">
        <ele>80.5</ele>
        <time>2019-01-23T09:59:48Z</time>
      </trkpt>
      <trkpt lat="48.7023" lon="2.45651">
        <ele>80.6</ele>
        <time>2019-01-23T09:59:50Z</time>
      </trkpt>
      <trkpt lat="48.70226" lon="2.45655">
        <ele>80.6</ele>
        <time>2019-01-23T09:59:53Z</time>
      </trkpt>
      <trkpt lat="48.70224" lon="2.45662">
        <ele>80.6</ele>
        <time>2019-01-23T10:00:02Z</time>
      </trkpt>
      <trkpt lat="48.70218" lon="2.45665">
        <ele>80.6</ele>
        <time>2019-01-23T10:00:07Z</time>
      </trkpt>
      <trkpt lat="48.70214" lon="2.45671">
        <ele>80.7</ele>
        <time>2019-01-23T10:00:11Z</time>
      </trkpt>
      <trkpt lat="48.7021" lon="2.45679">
        <ele>80.7</ele>
        <time>2019-01-23T10:00:14Z</time>
      </trkpt>
      <trkpt lat="48.70206" lon="2.45684">
        <ele>80.7</ele>
        <time>2019-01-23T10:00:16Z</time>
      </trkpt>
      <trkpt lat="48.70201" lon="2.45688">
        <ele>80.7</ele>
        <time>2019-01-23T10:00:19Z</time>
      </trkpt>
      <trkpt lat="48.70196" lon="2.4569">
        <ele>80.7</ele>
        <time>2019-01-23T10:00:23Z</time>
      </trkpt>
      <trkpt lat="48.70191" lon="2.45691">
        <ele>80.8</ele>
        <time>2019-01-23T10:00:25Z</time>
      </trkpt>
      <trkpt lat="48.70187" lon="2.45697">
        <ele>80.8</ele>
        <time>2019-01-23T10:00:29Z</time>
      </trkpt>
      <trkpt lat="48.70182" lon="2.457">
        <ele>80.8</ele>
        <time>2019-01-23T10:00:35Z</time>
      </trkpt>
      <trkpt lat="48.70178" lon="2.45705">
        <ele>80.8</ele>
        <time>2019-01-23T10:00:41Z</time>
      </trkpt>
      <trkpt lat="48.70173" lon="2.45711">
        <ele>80.9</ele>
        <time>2019-01-23T10:00:47Z</time>
      </trkpt>
      <trkpt lat="48.70169" lon="2.45717">
        <ele>80.9</ele>
        <time>2019-01-23T10:00:49Z</time>
      </trkpt>
      <trkpt lat="48.70164" lon="2.45723">
        <ele>80.9</ele>
        <time>2019-01-23T10:00:53Z</time>
      </trkpt>
      <trkpt lat="48.70158" lon="2.4573">
        <ele>80.9</ele>
        <time>2019-01-23T10:00:56Z</time>
      </trkpt>
      <trkpt lat="48.70151" lon="2.45732">
        <ele>80.9</ele>
        <time>2019-01-23T10:00:59Z</time>
      </trkpt>
      <trkpt lat="48.70146" lon="2.45738">
        <ele>80.9</ele>
        <time>2019-01-23T10:01:04Z</time>
      </trkpt>
      <trkpt lat="48.70141" lon="2.45743">
        <ele>80.9</ele>
        <time>2019-01-23T10:01:08Z</time>
      </trkpt>
      <trkpt lat="48.70136" lon="2.45748">
        <ele>81</ele>
        <time>2019-01-23T10:01:11Z</time>
      </trkpt>
      <trkpt lat="48.70133" lon="2.45755">
        <ele>81</ele>
        <time>2019-01-23T10:01:17Z</time>
      </trkpt>
      <trkpt lat="48.70128" lon="2.4576">
        <ele>81</ele>
        <time>2019-01-23T10:01:21Z</time>
      </trkpt>
      <trkpt lat="48.70124" lon="2.45764">
        <ele>81</ele>
        <time>2019-01-23T10:01:23Z</time>
      </trkpt>
      <trkpt lat="48.7012" lon="2.45768">
        <ele>81</ele>
        <time>2019-01-23T10:01:26Z</time>
      </trkpt>
      <trkpt lat="48.70116" lon="2.45772">
        <ele>81</ele>
        <time>2019-01-23T10:01:28Z</time>
      </trkpt>
      <trkpt lat="48.70112" lon="2.45777">
        <ele>81</ele>
        <time>2019-01-23T10:01:32Z</time>
      </trkpt>
      <trkpt lat="48.70108" lon="2.45781">
        <ele>81</ele>
        <time>2019-01-23T10:01:35Z</time>
      </trkpt>
      <trkpt lat="48.70104" lon="2.45788">
        <ele>81.1</ele>
        <time>2019-01-23T10:01:39Z</time>
      </trkpt>
      <trkpt lat="48.70098" lon="2.45791">
        <ele>81.1</ele>
        <time>2019-01-23T10:01:43Z</time>
      </trkpt>
      <trkpt lat="48.70094" lon="2.45795">
        <ele>81.1</ele>
        <time>2019-01-23T10:01:48Z</time>
      </trkpt>
      <trkpt lat="48.70091" lon="2.458">
        <ele>81.1</ele>
        <time>2019-01-23T10:01:56Z</time>
      </trkpt>
      <trkpt lat="48.70086" lon="2.45802">
        <ele>81.1</ele>
        <time>2019-01-23T10:02:00Z</time>
      </trkpt>
      <trkpt lat="48.70081" lon="2.45805">
        <ele>81.2</ele>
        <time>2019-01-23T10:02:03Z</time>
      </trkpt>
      <trkpt lat="48.70077" lon="2.45809">
        <ele>81.2</ele>
        <time>2019-01-23T10:02:06Z</time>
      </trkpt>
      <trkpt lat="48.70072" lon="2.45815">
        <ele>81.2</ele>
        <time>2019-01-23T10:02:09Z</time>
      </trkpt>
      <trkpt lat="48.70067" lon="2.45821">
        <ele>81.2</ele>
        <time>2019-01-23T10:02:12Z</time>
      </trkpt>
      <trkpt lat="48.70063" lon="2.45826">
        <ele>81.2</ele>
        <time>2019-01-23T10:02:17Z</time>
      </trkpt>
      <trkpt lat="48.70059" lon="2.45831">
        <ele>81.3</ele>
        <time>2019-01-23T10:02:23Z</time>
      </trkpt>
      <trkpt lat="48.70054" lon="2.45836">
        <ele>81.3</ele>
        <time>2019-01-23T10:02:29Z</time>
      </trkpt>
      <trkpt lat="48.7005" lon="2.4584">
        <ele>81.3</ele>
        <time>2019-01-23T10:02:34Z</time>
      </trkpt>
      <trkpt lat="48.70046" lon="2.45844">
        <ele>81.3</ele>
        <time>2019-01-23T10:02:38Z</time>
      </trkpt>
      <trkpt lat="48.70042" lon="2.45846">
        <ele>81.3</ele>
        <time>2019-01-23T10:02:42Z</time>
      </trkpt>
      <trkpt lat="48.70038" lon="2.45851">
        <ele>81.3</ele>
        <time>2019-01-23T10:02:45Z</time>
      </trkpt>
      <trkpt lat="48.70036" lon="2.45857">
        <ele>81.3</ele>
        <time>2019-01-23T10:02:48Z</time>
      </trkpt>
      <trkpt lat="48.70031" lon="2.45861">
        <ele>81.3</ele>
        <time>2019-01-23T10:02:56Z</time>
      </trkpt>
      <trkpt lat="48.70026" lon="2.45865">
        <ele>81.3</ele>
        <time>2019-01-23T10:03:02Z</time>
      </trkpt>
      <trkpt lat="48.70021" lon="2.45868">
        <ele>81.3</ele>
        <time>2019-01-23T10:03:06Z</time>
      </trkpt>
      <trkpt lat="48.70016" lon="2.45873">
        <ele>81.3</ele>
        <time>2019-01-23T10:03:08Z</time>
      </trkpt>
      <trkpt lat="48.70011" lon="2.45876">
        <ele>81.3</ele>
        <time>2019-01-23T10:03:11Z</time>
      </trkpt>
      <trkpt lat="48.70007" lon="2.45882">
        <ele>81.3</ele>
        <time>2019-01-23T10:03:15Z</time>
      </trkpt>
      <trkpt lat="48.70003" lon="2.45887">
        <ele>81.3</ele>
        <time>2019-01-23T10:03:20Z</time>
      </trkpt>
      <trkpt lat="48.69998" lon="2.45892">
        <ele>81.3</ele>
        <time>2019-01-23T10:03:24Z</time>
      </trkpt>
      <trkpt lat="48.69993" lon="2.45897">
        <ele>81.3</ele>
        <time>2019-01-23T10:03:27Z</time>
      </trkpt>
      <trkpt lat="48.69989" lon="2.45901">
        <ele>81.3</ele>
        <time>2019-01-23T10:03:33Z</time>
      </trkpt>
      <trkpt lat="48.69985" lon="2.45905">
        <ele>81.3</ele>
        <time>2019-01-23T10:03:39Z</time>
      </trkpt>
      <trkpt lat="48.69981" lon="2.45911">
        <ele>81.3</ele>
        <time>2019-01-23T10:03:42Z</time>
      </trkpt>
      <trkpt lat="48.69978" lon="2.45916">
        <ele>81.3</ele>
        <time>2019-01-23T10:03:44Z</time>
      </trkpt>
      <trkpt lat="48.69974" lon="2.45922">
        <ele>81.3</ele>
        <time>2019-01-23T10:03:49Z</time>
      </trkpt>
      <trkpt lat="48.6997" lon="2.45926">
        <ele>81.3</ele>
        <time>2019-01-23T10:04:00Z</time>
      </trkpt>
      <trkpt lat="48.69966" lon="2.45929">
        <ele>81.3</ele>
        <time>2019-01-23T10:04:04Z</time>
      </trkpt>
      <trkpt lat="48.69961" lon="2.45933">
        <ele>81.3</ele>
        <time>2019-01-23T10:04:09Z</time>
      </trkpt>
      <trkpt lat="48.69957" lon="2.45937">
        <ele>81.3</ele>
        <time>2019-01-23T10:04:12Z</time>
      </trkpt>
      <trkpt lat="48.69952" lon="2.4594">
        <ele>81.4</ele>
        <time>2019-01-23T10:04:15Z</time>
      </trkpt>
      <trkpt lat="48.69948" lon="2.45944">
        <ele>81.4</ele>
        <time>2019-01-23T10:04:18Z</time>
      </trkpt>
      <trkpt lat="48.69942" lon="2.45949">
        <ele>81.4</ele>
        <time>2019-01-23T10:04:22Z</time>
      </trkpt>
      <trkpt lat="48.69939" lon="2.45953">
        <ele>81.4</ele>
        <time>2019-01-23T10:04:25Z</time>
      </trkpt>
      <trkpt lat="48.69934" lon="2.45957">
        <ele>81.4</ele>
        <time>2019-01-23T10:04:29Z</time>
      </trkpt>
      <trkpt lat="48.6993" lon="2.45962">
        <ele>81.4</ele>
        <time>2019-01-23T10:04:32Z</time>
      </trkpt>
      <trkpt lat="48.69926" lon="2.45965">
        <ele>81.5</ele>
        <time>2019-01-23T10:04:40Z</time>
      </trkpt>
      <trkpt lat="48.69923" lon="2.4597">
        <ele>81.5</ele>
        <time>2019-01-23T10:04:44Z</time>
      </trkpt>
      <trkpt lat="48.69917" lon="2.45975">
        <ele>81.5</ele>
        <time>2019-01-23T10:04:48Z</time>
      </trkpt>
      <trkpt lat="48.69913" lon="2.45981">
        <ele>81.5</ele>
        <time>2019-01-23T10:04:52Z</time>
      </trkpt>
      <trkpt lat="48.69908" lon="2.45985">
        <ele>81.5</ele>
        <time>2019-01-23T10:04:57Z</time>
      </trkpt>
      <trkpt lat="48.69903" lon="2.45988">
        <ele>81.5</ele>
        <time>2019-01-23T10:05:01Z</time>
      </trkpt>
      <trkpt lat="48.69899" lon="2.45991">
        <ele>81.6</ele>
        <time>2019-01-23T10:05:07Z</time>
      </trkpt>
      <trkpt lat="48.69894" lon="2.45994">
        <ele>81.6</ele>
        <time>2019-01-23T10:05:12Z</time>
      </trkpt>
      <trkpt lat="48.69891" lon="2.45998">
        <ele>81.6</ele>
        <time>2019-01-23T10:05:16Z</time>
      </trkpt>
      <trkpt lat="48.69887" lon="2.46004">
        <ele>81.6</ele>
        <time>2019-01-23T10:05:19Z</time>
      </trkpt>
      <trkpt lat="48.69882" lon="2.46009">
        <ele>81.6</ele>
        <time>2019-01-23T10:05:24Z</time>
      </trkpt>
      <trkpt lat="48.69878" lon="2.46014">
        <ele>81.6</ele>
        <time>2019-01-23T10:05:30Z</time>
      </trkpt>
      <trkpt lat="48.69874" lon="2.46018">
        <ele>81.7</ele>
        <time>2019-01-23T10:05:35Z</time>
      </trkpt>
      <trkpt lat="48.69869" lon="2.46024">
        <ele>81.7</ele>
        <time>2019-01-23T10:05:40Z</time>
      </trkpt>
      <trkpt lat="48.69865" lon="2.46028">
        <ele>81.7</ele>
        <time>2019-01-23T10:05:46Z</time>
      </trkpt>
      <trkpt lat="48.69861" lon="2.46034">
        <ele>81.7</ele>
        <time>2019-01-23T10:05:50Z</time>
      </trkpt>
      <trkpt lat="48.69856" lon="2.46039">
        <ele>81.7</ele>
        <time>2019-01-23T10:05:54Z</time>
      </trkpt>
      <trkpt lat="48.69851" lon="2.46041">
        <ele>81.7</ele>
        <time>2019-01-23T10:05:57Z</time>
      </trkpt>
      <trkpt lat="48.69847" lon="2.46043">
        <ele>81.7</ele>
        <time>2019-01-23T10:06:05Z</time>
      </trkpt>
      <trkpt lat="48.69842" lon="2.46047">
        <ele>81.7</ele>
        <time>2019-01-23T10:06:11Z</time>
      </trkpt>
      <trkpt lat="48.69838" lon="2.46053">
        <ele>81.8</ele>
        <time>2019-01-23T10:06:25Z</time>
      </trkpt>
      <trkpt lat="48.69834" lon="2.46055">
        <ele>81.8</ele>
        <time>2019-01-23T10:06:29Z</time>
      </trkpt>
      <trkpt lat="48.69828" lon="2.46057">
        <ele>81.8</ele>
        <time>2019-01-23T10:06:33Z</time>
      </trkpt>
      <trkpt lat="48.69824" lon="2.46061">
        <ele>81.8</ele>
        <time>2019-01-23T10:06:37Z</time>
      </trkpt>
      <trkpt lat="48.6982" lon="2.46068">
        <ele>81.8</ele>
        <time>2019-01-23T10:06:45Z</time>
      </trkpt>
      <trkpt lat="48.69816" lon="2.46073">
        <ele>81.8</ele>
        <time>2019-01-23T10:06:50Z</time>
      </trkpt>
      <trkpt lat="48.69812" lon="2.46078">
        <ele>81.8</ele>
        <time>2019-01-23T10:06:55Z</time>
      </trkpt>
      <trkpt lat="48.69808" lon="2.46082">
        <ele>81.8</ele>
        <time>2019-01-23T10:06:58Z</time>
      </trkpt>
      <trkpt lat="48.69804" lon="2.46088">
        <ele>81.9</ele>
        <time>2019-01-23T10:07:00Z</time>
      </trkpt>
      <trkpt lat="48.698" lon="2.46095">
        <ele>81.9</ele>
        <time>2019-01-23T10:07:09Z</time>
      </trkpt>
      <trkpt lat="48.69796" lon="2.46099">
        <ele>81.9</ele>
        <time>2019-01-23T10:07:13Z</time>
      </trkpt>
      <trkpt lat="48.69792" lon="2.46105">
        <ele>81.9</ele>
        <time>2019-01-23T10:07:17Z</time>
      </trkpt>
      <trkpt lat="48.69787" lon="2.46109">
        <ele>81.9</ele>
        <time>2019-01-23T10:07:21Z</time>
      </trkpt>
      <trkpt lat="48.69782" lon="2.46112">
        <ele>81.9</ele>
        <time>2019-01-23T10:07:29Z</time>
      </trkpt>
      <trkpt lat="48.69777" lon="2.46106">
        <ele>81.9</ele>
        <time>2019-01-23T10:07:33Z</time>
      </trkpt>
      <trkpt lat="48.69773" lon="2.46101">
        <ele>81.9</ele>
        <time>2019-01-23T10:07:36Z</time>
      </trkpt>
      <trkpt lat="48.6977" lon="2.46095">
        <ele>81.9</ele>
        <time>2019-01-23T10:07:40Z</time>
      </trkpt>
      <trkpt lat="48.69766" lon="2.46089">
        <ele>81.9</ele>
        <time>2019-01-23T10:07:45Z</time>
      </trkpt>
      <trkpt lat="48.69761" lon="2.46083">
        <ele>81.9</ele>
        <time>2019-01-23T10:07:52Z</time>
      </trkpt>
      <trkpt lat="48.6976" lon="2.46077">
        <ele>81.9</ele>
        <time>2019-01-23T10:07:58Z</time>
      </trkpt>
      <trkpt lat="48.69759" lon="2.46069">
        <ele>81.9</ele>
        <time>2019-01-23T10:08:02Z</time>
      </trkpt>
      <trkpt lat="48.69758" lon="2.46062">
        <ele>81.9</ele>
        <time>2019-01-23T10:08:06Z</time>
      </trkpt>
      <trkpt lat="48.69755" lon="2.46057">
        <ele>82</ele>
        <time>2019-01-23T10:08:09Z</time>
      </trkpt>
      <trkpt lat="48.69751" lon="2.46054">
        <ele>82</ele>
        <time>2019-01-23T10:08:15Z</time>
      </trkpt>
      <trkpt lat="48.69746" lon="2.4605">
        <ele>82</ele>
        <time>2019-01-23T10:08:22Z</time>
      </trkpt>
      <trkpt lat="48.69743" lon="2.46043">
        <ele>82</ele>
        <time>2019-01-23T10:08:28Z</time>
      </trkpt>
      <trkpt lat="48.69742" lon="2.46036">
        <ele>82</ele>
        <time>2019-01-23T10:08:32Z</time>
      </trkpt>
      <trkpt lat="48.6974" lon="2.4603">
        <ele>82</ele>
        <time>2019-01-23T10:08:38Z</time>
      </trkpt>
      <trkpt lat="48.69738" lon="2.46024">
        <ele>82</ele>
        <time>2019-01-23T10:08:44Z</time>
      </trkpt>
      <trkpt lat="48.69735" lon="2.46016">
        <ele>82</ele>
        <time>2019-01-23T10:08:49Z</time>
      </trkpt>
      <trkpt lat="48.69733" lon="2.4601">
        <ele>82</ele>
        <time>2019-01-23T10:08:58Z</time>
      </trkpt>
      <trkpt lat="48.69731" lon="2.46002">
        <ele>81.9</ele>
        <time>2019-01-23T10:09:01Z</time>
      </trkpt>
      <trkpt lat="48.69729" lon="2.45996">
        <ele>81.9</ele>
        <time>2019-01-23T10:09:03Z</time>
      </trkpt>
      <trkpt lat="48.69725" lon="2.4599">
        <ele>81.9</ele>
        <time>2019-01-23T10:09:12Z</time>
      </trkpt>
      <trkpt lat="48.69722" lon="2.45985">
        <ele>81.9</ele>
        <time>2019-01-23T10:09:14Z</time>
      </trkpt>
      <trkpt lat="48.69718" lon="2.45976">
        <ele>81.9</ele>
        <time>2019-01-23T10:09:17Z</time>
      </trkpt>
      <trkpt lat="48.69717" lon="2.45969">
        <ele>82</ele>
        <time>2019-01-23T10:09:18Z</time>
      </trkpt>
      <trkpt lat="48.69714" lon="2.45963">
        <ele>82.1</ele>
        <time>2019-01-23T10:09:25Z</time>
      </trkpt>
      <trkpt lat="48.69711" lon="2.45956">
        <ele>82.3</ele>
        <time>2019-01-23T10:09:33Z</time>
      </trkpt>
      <trkpt lat="48.6971" lon="2.45949">
        <ele>82.5</ele>
        <time>2019-01-23T10:10:02Z</time>
      </trkpt>
      <trkpt lat="48.69707" lon="2.45943">
        <ele>82.7</ele>
        <time>2019-01-23T10:13:02Z</time>
      </trkpt>
      <trkpt lat="48.69706" lon="2.45936">
        <ele>82.8</ele>
        <time>2019-01-23T10:13:59Z</time>
      </trkpt>
      <trkpt lat="48.69709" lon="2.45929">
        <ele>82.9</ele>
        <time>2019-01-23T10:14:53Z</time>
      </trkpt>
      <trkpt lat="48.69708" lon="2.45921">
        <ele>82.9</ele>
        <time>2019-01-23T10:14:58Z</time>
      </trkpt>
      <trkpt lat="48.69705" lon="2.45913">
        <ele>82.9</ele>
        <time>2019-01-23T10:15:05Z</time>
      </trkpt>
      <trkpt lat="48.69702" lon="2.45906">
        <ele>82.9</ele>
        <time>2019-01-23T10:15:11Z</time>
      </trkpt>
      <trkpt lat="48.69699" lon="2.45899">
        <ele>82.9</ele>
        <time>2019-01-23T10:15:14Z</time>
      </trkpt>
      <trkpt lat="48.69696" lon="2.45892">
        <ele>83</ele>
        <time>2019-01-23T10:15:17Z</time>
      </trkpt>
      <trkpt lat="48.69696" lon="2.45885">
        <ele>83</ele>
        <time>2019-01-23T10:15:21Z</time>
      </trkpt>
      <trkpt lat="48.69694" lon="2.45878">
        <ele>83</ele>
        <time>2019-01-23T10:15:26Z</time>
      </trkpt>
      <trkpt lat="48.69692" lon="2.45871">
        <ele>83</ele>
        <time>2019-01-23T10:15:30Z</time>
      </trkpt>
      <trkpt lat="48.69688" lon="2.45866">
        <ele>83</ele>
        <time>2019-01-23T10:15:34Z</time>
      </trkpt>
      <trkpt lat="48.69685" lon="2.4586">
        <ele>83</ele>
        <time>2019-01-23T10:15:38Z</time>
      </trkpt>
      <trkpt lat="48.69684" lon="2.45853">
        <ele>83.1</ele>
        <time>2019-01-23T10:15:44Z</time>
      </trkpt>
      <trkpt lat="48.69682" lon="2.45846">
        <ele>83.1</ele>
        <time>2019-01-23T10:15:49Z</time>
      </trkpt>
      <trkpt lat="48.6968" lon="2.45838">
        <ele>83.1</ele>
        <time>2019-01-23T10:15:54Z</time>
      </trkpt>
      <trkpt lat="48.69679" lon="2.45831">
        <ele>83.1</ele>
        <time>2019-01-23T10:15:57Z</time>
      </trkpt>
      <trkpt lat="48.6968" lon="2.45823">
        <ele>83.1</ele>
        <time>2019-01-23T10:16:00Z</time>
      </trkpt>
      <trkpt lat="48.69676" lon="2.45818">
        <ele>83.1</ele>
        <time>2019-01-23T10:16:03Z</time>
      </trkpt>
      <trkpt lat="48.69674" lon="2.45812">
        <ele>83.1</ele>
        <time>2019-01-23T10:16:09Z</time>
      </trkpt>
      <trkpt lat="48.69672" lon="2.45805">
        <ele>83.1</ele>
        <time>2019-01-23T10:16:13Z</time>
      </trkpt>
      <trkpt lat="48.6967" lon="2.45798">
        <ele>83.1</ele>
        <time>2019-01-23T10:16:17Z</time>
      </trkpt>
      <trkpt lat="48.69668" lon="2.45791">
        <ele>83.1</ele>
        <time>2019-01-23T10:16:21Z</time>
      </trkpt>
      <trkpt lat="48.69666" lon="2.45784">
        <ele>83.1</ele>
        <time>2019-01-23T10:16:26Z</time>
      </trkpt>
      <trkpt lat="48.69665" lon="2.45777">
        <ele>83.1</ele>
        <time>2019-01-23T10:16:31Z</time>
      </trkpt>
      <trkpt lat="48.69663" lon="2.45769">
        <ele>83.2</ele>
        <time>2019-01-23T10:16:35Z</time>
      </trkpt>
      <trkpt lat="48.69661" lon="2.45762">
        <ele>83.2</ele>
        <time>2019-01-23T10:16:39Z</time>
      </trkpt>
      <trkpt lat="48.6966" lon="2.45755">
        <ele>83.2</ele>
        <time>2019-01-23T10:16:43Z</time>
      </trkpt>
      <trkpt lat="48.69659" lon="2.45749">
        <ele>83.2</ele>
        <time>2019-01-23T10:16:47Z</time>
      </trkpt>
      <trkpt lat="48.69658" lon="2.45742">
        <ele>83.2</ele>
        <time>2019-01-23T10:16:52Z</time>
      </trkpt>
      <trkpt lat="48.69655" lon="2.45736">
        <ele>83.2</ele>
        <time>2019-01-23T10:16:57Z</time>
      </trkpt>
      <trkpt lat="48.69653" lon="2.4573">
        <ele>83.2</ele>
        <time>2019-01-23T10:17:01Z</time>
      </trkpt>
      <trkpt lat="48.6965" lon="2.45723">
        <ele>83.2</ele>
        <time>2019-01-23T10:17:07Z</time>
      </trkpt>
      <trkpt lat="48.69648" lon="2.45715">
        <ele>83.2</ele>
        <time>2019-01-23T10:17:10Z</time>
      </trkpt>
      <trkpt lat="48.69645" lon="2.45708">
        <ele>83.2</ele>
        <time>2019-01-23T10:17:14Z</time>
      </trkpt>
      <trkpt lat="48.69644" lon="2.457">
        <ele>83.2</ele>
        <time>2019-01-23T10:17:20Z</time>
      </trkpt>
      <trkpt lat="48.69644" lon="2.45693">
        <ele>83.2</ele>
        <time>2019-01-23T10:17:24Z</time>
      </trkpt>
      <trkpt lat="48.69644" lon="2.45686">
        <ele>83.2</ele>
        <time>2019-01-23T10:17:32Z</time>
      </trkpt>
      <trkpt lat="48.69641" lon="2.45679">
        <ele>83.1</ele>
        <time>2019-01-23T10:17:38Z</time>
      </trkpt>
      <trkpt lat="48.6964" lon="2.45672">
        <ele>83.1</ele>
        <time>2019-01-23T10:17:41Z</time>
      </trkpt>
      <trkpt lat="48.69637" lon="2.45665">
        <ele>83.1</ele>
        <time>2019-01-23T10:17:50Z</time>
      </trkpt>
      <trkpt lat="48.69635" lon="2.45659">
        <ele>83.1</ele>
        <time>2019-01-23T10:17:56Z</time>
      </trkpt>
      <trkpt lat="48.69633" lon="2.45652">
        <ele>83.1</ele>
        <time>2019-01-23T10:18:05Z</time>
      </trkpt>
      <trkpt lat="48.6963" lon="2.45645">
        <ele>83.1</ele>
        <time>2019-01-23T10:18:13Z</time>
      </trkpt>
      <trkpt lat="48.69629" lon="2.45639">
        <ele>83.1</ele>
        <time>2019-01-23T10:18:17Z</time>
      </trkpt>
      <trkpt lat="48.69627" lon="2.45632">
        <ele>83.1</ele>
        <time>2019-01-23T10:18:21Z</time>
      </trkpt>
      <trkpt lat="48.69625" lon="2.45625">
        <ele>83.1</ele>
        <time>2019-01-23T10:18:27Z</time>
      </trkpt>
      <trkpt lat="48.69622" lon="2.45619">
        <ele>83</ele>
        <time>2019-01-23T10:18:35Z</time>
      </trkpt>
      <trkpt lat="48.69619" lon="2.45611">
        <ele>83</ele>
        <time>2019-01-23T10:18:38Z</time>
      </trkpt>
      <trkpt lat="48.69617" lon="2.45605">
        <ele>83</ele>
        <time>2019-01-23T10:18:41Z</time>
      </trkpt>
      <trkpt lat="48.69615" lon="2.45598">
        <ele>83</ele>
        <time>2019-01-23T10:18:44Z</time>
      </trkpt>
      <trkpt lat="48.69612" lon="2.4559">
        <ele>83</ele>
        <time>2019-01-23T10:18:47Z</time>
      </trkpt>
      <trkpt lat="48.69611" lon="2.45582">
        <ele>83</ele>
        <time>2019-01-23T10:18:49Z</time>
      </trkpt>
      <trkpt lat="48.69609" lon="2.45576">
        <ele>83</ele>
        <time>2019-01-23T10:18:52Z</time>
      </trkpt>
      <trkpt lat="48.69606" lon="2.45569">
        <ele>83</ele>
        <time>2019-01-23T10:18:55Z</time>
      </trkpt>
      <trkpt lat="48.69605" lon="2.45563">
        <ele>83</ele>
        <time>2019-01-23T10:18:58Z</time>
      </trkpt>
      <trkpt lat="48.69603" lon="2.45556">
        <ele>83</ele>
        <time>2019-01-23T10:19:02Z</time>
      </trkpt>
      <trkpt lat="48.69601" lon="2.45548">
        <ele>83</ele>
        <time>2019-01-23T10:19:06Z</time>
      </trkpt>
      <trkpt lat="48.69599" lon="2.4554">
        <ele>83</ele>
        <time>2019-01-23T10:19:10Z</time>
      </trkpt>
      <trkpt lat="48.69597" lon="2.45533">
        <ele>83</ele>
        <time>2019-01-23T10:19:14Z</time>
      </trkpt>
      <trkpt lat="48.69595" lon="2.45525">
        <ele>83</ele>
        <time>2019-01-23T10:19:18Z</time>
      </trkpt>
      <trkpt lat="48.69594" lon="2.45518">
        <ele>83</ele>
        <time>2019-01-23T10:19:23Z</time>
      </trkpt>
      <trkpt lat="48.69591" lon="2.45508">
        <ele>83</ele>
        <time>2019-01-23T10:19:28Z</time>
      </trkpt>
      <trkpt lat="48.6959" lon="2.45502">
        <ele>83</ele>
        <time>2019-01-23T10:19:31Z</time>
      </trkpt>
      <trkpt lat="48.69587" lon="2.45495">
        <ele>83</ele>
        <time>2019-01-23T10:19:33Z</time>
      </trkpt>
      <trkpt lat="48.69585" lon="2.45487">
        <ele>83</ele>
        <time>2019-01-23T10:19:37Z</time>
      </trkpt>
      <trkpt lat="48.69583" lon="2.4548">
        <ele>83</ele>
        <time>2019-01-23T10:19:41Z</time>
      </trkpt>
      <trkpt lat="48.69581" lon="2.45473">
        <ele>83</ele>
        <time>2019-01-23T10:19:45Z</time>
      </trkpt>
      <trkpt lat="48.6958" lon="2.45466">
        <ele>83</ele>
        <time>2019-01-23T10:19:48Z</time>
      </trkpt>
      <trkpt lat="48.69577" lon="2.45459">
        <ele>83</ele>
        <time>2019-01-23T10:19:52Z</time>
      </trkpt>
      <trkpt lat="48.69575" lon="2.45452">
        <ele>83.1</ele>
        <time>2019-01-23T10:19:56Z</time>
      </trkpt>
      <trkpt lat="48.69573" lon="2.45445">
        <ele>83.1</ele>
        <time>2019-01-23T10:20:01Z</time>
      </trkpt>
      <trkpt lat="48.69571" lon="2.45439">
        <ele>83.1</ele>
        <time>2019-01-23T10:20:05Z</time>
      </trkpt>
      <trkpt lat="48.69569" lon="2.45432">
        <ele>83.1</ele>
        <time>2019-01-23T10:20:09Z</time>
      </trkpt>
      <trkpt lat="48.69569" lon="2.45426">
        <ele>83.1</ele>
        <time>2019-01-23T10:20:13Z</time>
      </trkpt>
      <trkpt lat="48.69567" lon="2.45419">
        <ele>83.1</ele>
        <time>2019-01-23T10:20:16Z</time>
      </trkpt>
      <trkpt lat="48.69565" lon="2.45411">
        <ele>83.1</ele>
        <time>2019-01-23T10:20:20Z</time>
      </trkpt>
      <trkpt lat="48.69562" lon="2.45405">
        <ele>83.1</ele>
        <time>2019-01-23T10:20:23Z</time>
      </trkpt>
      <trkpt lat="48.6956" lon="2.45399">
        <ele>83.1</ele>
        <time>2019-01-23T10:20:26Z</time>
      </trkpt>
      <trkpt lat="48.69559" lon="2.45391">
        <ele>83.2</ele>
        <time>2019-01-23T10:20:30Z</time>
      </trkpt>
      <trkpt lat="48.69557" lon="2.45383">
        <ele>83.2</ele>
        <time>2019-01-23T10:20:36Z</time>
      </trkpt>
      <trkpt lat="48.69555" lon="2.45376">
        <ele>83.2</ele>
        <time>2019-01-23T10:20:42Z</time>
      </trkpt>
      <trkpt lat="48.69553" lon="2.4537">
        <ele>83.2</ele>
        <time>2019-01-23T10:20:47Z</time>
      </trkpt>
      <trkpt lat="48.69551" lon="2.45362">
        <ele>83.2</ele>
        <time>2019-01-23T10:20:53Z</time>
      </trkpt>
      <trkpt lat="48.6955" lon="2.45355">
        <ele>83.2</ele>
        <time>2019-01-23T10:20:57Z</time>
      </trkpt>
      <trkpt lat="48.69548" lon="2.45345">
        <ele>83.2</ele>
        <time>2019-01-23T10:21:00Z</time>
      </trkpt>
      <trkpt lat="48.69546" lon="2.45339">
        <ele>83.2</ele>
        <time>2019-01-23T10:21:02Z</time>
      </trkpt>
      <trkpt lat="48.69544" lon="2.45332">
        <ele>83.2</ele>
        <time>2019-01-23T10:21:07Z</time>
      </trkpt>
      <trkpt lat="48.69541" lon="2.45326">
        <ele>83.2</ele>
        <time>2019-01-23T10:21:13Z</time>
      </trkpt>
      <trkpt lat="48.69541" lon="2.45318">
        <ele>83.2</ele>
        <time>2019-01-23T10:21:16Z</time>
      </trkpt>
      <trkpt lat="48.69539" lon="2.45311">
        <ele>83.2</ele>
        <time>2019-01-23T10:21:19Z</time>
      </trkpt>
      <trkpt lat="48.69537" lon="2.45305">
        <ele>83.2</ele>
        <time>2019-01-23T10:21:22Z</time>
      </trkpt>
      <trkpt lat="48.69535" lon="2.45298">
        <ele>83.2</ele>
        <time>2019-01-23T10:21:26Z</time>
      </trkpt>
      <trkpt lat="48.69533" lon="2.45291">
        <ele>83.2</ele>
        <time>2019-01-23T10:21:31Z</time>
      </trkpt>
      <trkpt lat="48.69532" lon="2.45284">
        <ele>83.2</ele>
        <time>2019-01-23T10:21:35Z</time>
      </trkpt>
      <trkpt lat="48.6953" lon="2.45278">
        <ele>83.2</ele>
        <time>2019-01-23T10:21:40Z</time>
      </trkpt>
      <trkpt lat="48.69528" lon="2.45271">
        <ele>83.2</ele>
        <time>2019-01-23T10:21:45Z</time>
      </trkpt>
      <trkpt lat="48.69526" lon="2.45264">
        <ele>83.2</ele>
        <time>2019-01-23T10:21:49Z</time>
      </trkpt>
      <trkpt lat="48.69524" lon="2.45256">
        <ele>83.2</ele>
        <time>2019-01-23T10:21:54Z</time>
      </trkpt>
      <trkpt lat="48.69522" lon="2.45249">
        <ele>83.2</ele>
        <time>2019-01-23T10:21:58Z</time>
      </trkpt>
      <trkpt lat="48.69519" lon="2.45243">
        <ele>83.2</ele>
        <time>2019-01-23T10:22:02Z</time>
      </trkpt>
      <trkpt lat="48.69517" lon="2.45235">
        <ele>83.2</ele>
        <time>2019-01-23T10:22:05Z</time>
      </trkpt>
      <trkpt lat="48.69515" lon="2.45229">
        <ele>83.1</ele>
        <time>2019-01-23T10:22:08Z</time>
      </trkpt>
      <trkpt lat="48.69513" lon="2.45222">
        <ele>83.1</ele>
        <time>2019-01-23T10:22:13Z</time>
      </trkpt>
      <trkpt lat="48.69511" lon="2.45213">
        <ele>83.1</ele>
        <time>2019-01-23T10:22:18Z</time>
      </trkpt>
      <trkpt lat="48.69509" lon="2.45206">
        <ele>83.1</ele>
        <time>2019-01-23T10:22:22Z</time>
      </trkpt>
      <trkpt lat="48.69507" lon="2.45197">
        <ele>83.1</ele>
        <time>2019-01-23T10:22:26Z</time>
      </trkpt>
      <trkpt lat="48.69505" lon="2.4519">
        <ele>83.1</ele>
        <time>2019-01-23T10:22:30Z</time>
      </trkpt>
      <trkpt lat="48.69503" lon="2.45181">
        <ele>83.1</ele>
        <time>2019-01-23T10:22:34Z</time>
      </trkpt>
      <trkpt lat="48.69502" lon="2.45174">
        <ele>83</ele>
        <time>2019-01-23T10:22:38Z</time>
      </trkpt>
      <trkpt lat="48.695" lon="2.45166">
        <ele>83</ele>
        <time>2019-01-23T10:22:42Z</time>
      </trkpt>
      <trkpt lat="48.69498" lon="2.45159">
        <ele>83</ele>
        <time>2019-01-23T10:22:48Z</time>
      </trkpt>
      <trkpt lat="48.69496" lon="2.45153">
        <ele>83</ele>
        <time>2019-01-23T10:22:52Z</time>
      </trkpt>
      <trkpt lat="48.69493" lon="2.45146">
        <ele>82.9</ele>
        <time>2019-01-23T10:22:55Z</time>
      </trkpt>
      <trkpt lat="48.69491" lon="2.45139">
        <ele>82.9</ele>
        <time>2019-01-23T10:23:00Z</time>
      </trkpt>
      <trkpt lat="48.69488" lon="2.45134">
        <ele>82.9</ele>
        <time>2019-01-23T10:23:06Z</time>
      </trkpt>
      <trkpt lat="48.69486" lon="2.45127">
        <ele>82.9</ele>
        <time>2019-01-23T10:23:10Z</time>
      </trkpt>
      <trkpt lat="48.69484" lon="2.4512">
        <ele>82.9</ele>
        <time>2019-01-23T10:23:13Z</time>
      </trkpt>
      <trkpt lat="48.69482" lon="2.45113">
        <ele>82.8</ele>
        <time>2019-01-23T10:23:18Z</time>
      </trkpt>
      <trkpt lat="48.6948" lon="2.45106">
        <ele>82.8</ele>
        <time>2019-01-23T10:23:22Z</time>
      </trkpt>
      <trkpt lat="48.69478" lon="2.45099">
        <ele>82.8</ele>
        <time>2019-01-23T10:23:26Z</time>
      </trkpt>
      <trkpt lat="48.69476" lon="2.45091">
        <ele>82.8</ele>
        <time>2019-01-23T10:23:30Z</time>
      </trkpt>
      <trkpt lat="48.69475" lon="2.45082">
        <ele>82.8</ele>
        <time>2019-01-23T10:23:34Z</time>
      </trkpt>
      <trkpt lat="48.69473" lon="2.45075">
        <ele>82.7</ele>
        <time>2019-01-23T10:23:39Z</time>
      </trkpt>
      <trkpt lat="48.6947" lon="2.45068">
        <ele>82.7</ele>
        <time>2019-01-23T10:23:44Z</time>
      </trkpt>
      <trkpt lat="48.69467" lon="2.45062">
        <ele>82.7</ele>
        <time>2019-01-23T10:23:49Z</time>
      </trkpt>
      <trkpt lat="48.69465" lon="2.45054">
        <ele>82.7</ele>
        <time>2019-01-23T10:23:53Z</time>
      </trkpt>
      <trkpt lat="48.69463" lon="2.45048">
        <ele>82.7</ele>
        <time>2019-01-23T10:23:57Z</time>
      </trkpt>
      <trkpt lat="48.69461" lon="2.45041">
        <ele>82.7</ele>
        <time>2019-01-23T10:24:00Z</time>
      </trkpt>
      <trkpt lat="48.69458" lon="2.45034">
        <ele>82.7</ele>
        <time>2019-01-23T10:24:04Z</time>
      </trkpt>
      <trkpt lat="48.69456" lon="2.45028">
        <ele>82.7</ele>
        <time>2019-01-23T10:24:07Z</time>
      </trkpt>
      <trkpt lat="48.69453" lon="2.45022">
        <ele>82.7</ele>
        <time>2019-01-23T10:24:11Z</time>
      </trkpt>
      <trkpt lat="48.69451" lon="2.45016">
        <ele>82.7</ele>
        <time>2019-01-23T10:24:16Z</time>
      </trkpt>
      <trkpt lat="48.69448" lon="2.4501">
        <ele>82.7</ele>
        <time>2019-01-23T10:24:19Z</time>
      </trkpt>
      <trkpt lat="48.69445" lon="2.45004">
        <ele>82.7</ele>
        <time>2019-01-23T10:24:23Z</time>
      </trkpt>
      <trkpt lat="48.69442" lon="2.44998">
        <ele>82.6</ele>
        <time>2019-01-23T10:24:28Z</time>
      </trkpt>
      <trkpt lat="48.6944" lon="2.44992">
        <ele>82.6</ele>
        <time>2019-01-23T10:24:33Z</time>
      </trkpt>
      <trkpt lat="48.69437" lon="2.44986">
        <ele>82.6</ele>
        <time>2019-01-23T10:24:39Z</time>
      </trkpt>
      <trkpt lat="48.69434" lon="2.44979">
        <ele>82.6</ele>
        <time>2019-01-23T10:24:44Z</time>
      </trkpt>
      <trkpt lat="48.6943" lon="2.44973">
        <ele>82.6</ele>
        <time>2019-01-23T10:24:48Z</time>
      </trkpt>
      <trkpt lat="48.69427" lon="2.44967">
        <ele>82.6</ele>
        <time>2019-01-23T10:24:52Z</time>
      </trkpt>
      <trkpt lat="48.69424" lon="2.44961">
        <ele>82.5</ele>
        <time>2019-01-23T10:24:55Z</time>
      </trkpt>
      <trkpt lat="48.6942" lon="2.44955">
        <ele>82.5</ele>
        <time>2019-01-23T10:24:59Z</time>
      </trkpt>
      <trkpt lat="48.69416" lon="2.44951">
        <ele>82.5</ele>
        <time>2019-01-23T10:25:03Z</time>
      </trkpt>
      <trkpt lat="48.69413" lon="2.44945">
        <ele>82.5</ele>
        <time>2019-01-23T10:25:07Z</time>
      </trkpt>
      <trkpt lat="48.6941" lon="2.4494">
        <ele>82.5</ele>
        <time>2019-01-23T10:25:11Z</time>
      </trkpt>
      <trkpt lat="48.69407" lon="2.44933">
        <ele>82.4</ele>
        <time>2019-01-23T10:25:17Z</time>
      </trkpt>
      <trkpt lat="48.69404" lon="2.44927">
        <ele>82.4</ele>
        <time>2019-01-23T10:25:21Z</time>
      </trkpt>
      <trkpt lat="48.69401" lon="2.44922">
        <ele>82.4</ele>
        <time>2019-01-23T10:25:27Z</time>
      </trkpt>
      <trkpt lat="48.69398" lon="2.44916">
        <ele>82.4</ele>
        <time>2019-01-23T10:25:30Z</time>
      </trkpt>
      <trkpt lat="48.69395" lon="2.44911">
        <ele>82.4</ele>
        <time>2019-01-23T10:25:33Z</time>
      </trkpt>
      <trkpt lat="48.69391" lon="2.44907">
        <ele>82.4</ele>
        <time>2019-01-23T10:25:36Z</time>
      </trkpt>
      <trkpt lat="48.69388" lon="2.44901">
        <ele>82.3</ele>
        <time>2019-01-23T10:25:39Z</time>
      </trkpt>
      <trkpt lat="48.69385" lon="2.44895">
        <ele>82.3</ele>
        <time>2019-01-23T10:25:45Z</time>
      </trkpt>
      <trkpt lat="48.69382" lon="2.4489">
        <ele>82.3</ele>
        <time>2019-01-23T10:25:50Z</time>
      </trkpt>
      <trkpt lat="48.69379" lon="2.44882">
        <ele>82.2</ele>
        <time>2019-01-23T10:25:53Z</time>
      </trkpt>
      <trkpt lat="48.69377" lon="2.44875">
        <ele>82.2</ele>
        <time>2019-01-23T10:25:57Z</time>
      </trkpt>
      <trkpt lat="48.69374" lon="2.44869">
        <ele>82.2</ele>
        <time>2019-01-23T10:26:01Z</time>
      </trkpt>
      <trkpt lat="48.69371" lon="2.44863">
        <ele>82.2</ele>
        <time>2019-01-23T10:26:04Z</time>
      </trkpt>
      <trkpt lat="48.69367" lon="2.44859">
        <ele>82.1</ele>
        <time>2019-01-23T10:26:08Z</time>
      </trkpt>
      <trkpt lat="48.69362" lon="2.44852">
        <ele>82.1</ele>
        <time>2019-01-23T10:26:13Z</time>
      </trkpt>
      <trkpt lat="48.69362" lon="2.44844">
        <ele>82</ele>
        <time>2019-01-23T10:26:17Z</time>
      </trkpt>
      <trkpt lat="48.69361" lon="2.44836">
        <ele>82</ele>
        <time>2019-01-23T10:26:22Z</time>
      </trkpt>
      <trkpt lat="48.69357" lon="2.44833">
        <ele>81.8</ele>
        <time>2019-01-23T10:26:27Z</time>
      </trkpt>
      <trkpt lat="48.69352" lon="2.44828">
        <ele>81.6</ele>
        <time>2019-01-23T10:26:30Z</time>
      </trkpt>
      <trkpt lat="48.69347" lon="2.44823">
        <ele>81.3</ele>
        <time>2019-01-23T10:26:33Z</time>
      </trkpt>
      <trkpt lat="48.69343" lon="2.44819">
        <ele>80.8</ele>
        <time>2019-01-23T10:26:41Z</time>
      </trkpt>
      <trkpt lat="48.69339" lon="2.44818">
        <ele>80.4</ele>
        <time>2019-01-23T10:27:12Z</time>
      </trkpt>
      <trkpt lat="48.69333" lon="2.44815">
        <ele>79.9</ele>
        <time>2019-01-23T10:27:16Z</time>
      </trkpt>
      <trkpt lat="48.69329" lon="2.44815">
        <ele>79.5</ele>
        <time>2019-01-23T10:27:29Z</time>
      </trkpt>
      <trkpt lat="48.69325" lon="2.4482">
        <ele>79.2</ele>
        <time>2019-01-23T10:27:36Z</time>
      </trkpt>
      <trkpt lat="48.6932" lon="2.44822">
        <ele>78.9</ele>
        <time>2019-01-23T10:27:46Z</time>
      </trkpt>
      <trkpt lat="48.69315" lon="2.44823">
        <ele>78.7</ele>
        <time>2019-01-23T10:27:54Z</time>
      </trkpt>
      <trkpt lat="48.69313" lon="2.44829">
        <ele>78.5</ele>
        <time>2019-01-23T10:27:58Z</time>
      </trkpt>
      <trkpt lat="48.6931" lon="2.44836">
        <ele>78.4</ele>
        <time>2019-01-23T10:28:00Z</time>
      </trkpt>
      <trkpt lat="48.69306" lon="2.44841">
        <ele>78.2</ele>
        <time>2019-01-23T10:28:04Z</time>
      </trkpt>
      <trkpt lat="48.69303" lon="2.44845">
        <ele>78</ele>
        <time>2019-01-23T10:28:08Z</time>
      </trkpt>
      <trkpt lat="48.69299" lon="2.44851">
        <ele>77.9</ele>
        <time>2019-01-23T10:28:12Z</time>
      </trkpt>
      <trkpt lat="48.69295" lon="2.44856">
        <ele>77.7</ele>
        <time>2019-01-23T10:28:16Z</time>
      </trkpt>
      <trkpt lat="48.69291" lon="2.44863">
        <ele>77.5</ele>
        <time>2019-01-23T10:28:20Z</time>
      </trkpt>
      <trkpt lat="48.69288" lon="2.44869">
        <ele>77.3</ele>
        <time>2019-01-23T10:28:24Z</time>
      </trkpt>
      <trkpt lat="48.69285" lon="2.44876">
        <ele>77.2</ele>
        <time>2019-01-23T10:28:30Z</time>
      </trkpt>
      <trkpt lat="48.69282" lon="2.44881">
        <ele>77</ele>
        <time>2019-01-23T10:28:36Z</time>
      </trkpt>
      <trkpt lat="48.69278" lon="2.44888">
        <ele>76.9</ele>
        <time>2019-01-23T10:28:39Z</time>
      </trkpt>
      <trkpt lat="48.69276" lon="2.44895">
        <ele>76.8</ele>
        <time>2019-01-23T10:28:42Z</time>
      </trkpt>
      <trkpt lat="48.69273" lon="2.449">
        <ele>76.7</ele>
        <time>2019-01-23T10:28:45Z</time>
      </trkpt>
      <trkpt lat="48.69268" lon="2.44907">
        <ele>76.5</ele>
        <time>2019-01-23T10:28:49Z</time>
      </trkpt>
      <trkpt lat="48.69265" lon="2.44912">
        <ele>76.4</ele>
        <time>2019-01-23T10:28:52Z</time>
      </trkpt>
      <trkpt lat="48.69261" lon="2.44918">
        <ele>76.2</ele>
        <time>2019-01-23T10:28:56Z</time>
      </trkpt>
      <trkpt lat="48.69259" lon="2.44924">
        <ele>76</ele>
        <time>2019-01-23T10:29:00Z</time>
      </trkpt>
      <trkpt lat="48.69256" lon="2.4493">
        <ele>75.8</ele>
        <time>2019-01-23T10:29:05Z</time>
      </trkpt>
      <trkpt lat="48.69253" lon="2.44937">
        <ele>75.6</ele>
        <time>2019-01-23T10:29:10Z</time>
      </trkpt>
      <trkpt lat="48.69249" lon="2.44943">
        <ele>75.4</ele>
        <time>2019-01-23T10:29:16Z</time>
      </trkpt>
      <trkpt lat="48.69248" lon="2.4495">
        <ele>75.3</ele>
        <time>2019-01-23T10:29:20Z</time>
      </trkpt>
      <trkpt lat="48.69244" lon="2.44956">
        <ele>75.1</ele>
        <time>2019-01-23T10:29:25Z</time>
      </trkpt>
      <trkpt lat="48.69241" lon="2.44962">
        <ele>74.9</ele>
        <time>2019-01-23T10:29:30Z</time>
      </trkpt>
      <trkpt lat="48.69239" lon="2.44969">
        <ele>74.7</ele>
        <time>2019-01-23T10:29:35Z</time>
      </trkpt>
      <trkpt lat="48.69237" lon="2.44976">
        <ele>74.6</ele>
        <time>2019-01-23T10:29:40Z</time>
      </trkpt>
      <trkpt lat="48.69234" lon="2.44982">
        <ele>74.4</ele>
        <time>2019-01-23T10:29:45Z</time>
      </trkpt>
      <trkpt lat="48.69231" lon="2.44987">
        <ele>74.3</ele>
        <time>2019-01-23T10:29:50Z</time>
      </trkpt>
      <trkpt lat="48.69228" lon="2.44993">
        <ele>74.1</ele>
        <time>2019-01-23T10:29:54Z</time>
      </trkpt>
      <trkpt lat="48.69225" lon="2.45">
        <ele>74</ele>
        <time>2019-01-23T10:29:59Z</time>
      </trkpt>
      <trkpt lat="48.69223" lon="2.45008">
        <ele>73.9</ele>
        <time>2019-01-23T10:30:04Z</time>
      </trkpt>
      <trkpt lat="48.69222" lon="2.45014">
        <ele>73.8</ele>
        <time>2019-01-23T10:30:07Z</time>
      </trkpt>
      <trkpt lat="48.69219" lon="2.45022">
        <ele>73.7</ele>
        <time>2019-01-23T10:30:17Z</time>
      </trkpt>
      <trkpt lat="48.69217" lon="2.45029">
        <ele>73.7</ele>
        <time>2019-01-23T10:30:22Z</time>
      </trkpt>
      <trkpt lat="48.69214" lon="2.45036">
        <ele>73.6</ele>
        <time>2019-01-23T10:30:26Z</time>
      </trkpt>
      <trkpt lat="48.69212" lon="2.45043">
        <ele>73.6</ele>
        <time>2019-01-23T10:30:30Z</time>
      </trkpt>
      <trkpt lat="48.69209" lon="2.45048">
        <ele>73.5</ele>
        <time>2019-01-23T10:30:35Z</time>
      </trkpt>
      <trkpt lat="48.69206" lon="2.45054">
        <ele>73.5</ele>
        <time>2019-01-23T10:30:38Z</time>
      </trkpt>
      <trkpt lat="48.69204" lon="2.4506">
        <ele>73.5</ele>
        <time>2019-01-23T10:30:43Z</time>
      </trkpt>
      <trkpt lat="48.69201" lon="2.45066">
        <ele>73.4</ele>
        <time>2019-01-23T10:30:49Z</time>
      </trkpt>
      <trkpt lat="48.69198" lon="2.45072">
        <ele>73.4</ele>
        <time>2019-01-23T10:30:53Z</time>
      </trkpt>
      <trkpt lat="48.69195" lon="2.45078">
        <ele>73.4</ele>
        <time>2019-01-23T10:30:57Z</time>
      </trkpt>
      <trkpt lat="48.69192" lon="2.45083">
        <ele>73.4</ele>
        <time>2019-01-23T10:31:01Z</time>
      </trkpt>
      <trkpt lat="48.69188" lon="2.45088">
        <ele>73.4</ele>
        <time>2019-01-23T10:31:06Z</time>
      </trkpt>
      <trkpt lat="48.69187" lon="2.45095">
        <ele>73.4</ele>
        <time>2019-01-23T10:31:11Z</time>
      </trkpt>
      <trkpt lat="48.69184" lon="2.45101">
        <ele>73.3</ele>
        <time>2019-01-23T10:31:15Z</time>
      </trkpt>
      <trkpt lat="48.69181" lon="2.45107">
        <ele>73.3</ele>
        <time>2019-01-23T10:31:18Z</time>
      </trkpt>
      <trkpt lat="48.69178" lon="2.45114">
        <ele>73.3</ele>
        <time>2019-01-23T10:31:22Z</time>
      </trkpt>
      <trkpt lat="48.69178" lon="2.45121">
        <ele>73.3</ele>
        <time>2019-01-23T10:31:26Z</time>
      </trkpt>
      <trkpt lat="48.69175" lon="2.45126">
        <ele>73.3</ele>
        <time>2019-01-23T10:31:30Z</time>
      </trkpt>
      <trkpt lat="48.69171" lon="2.45132">
        <ele>73.3</ele>
        <time>2019-01-23T10:31:34Z</time>
      </trkpt>
      <trkpt lat="48.69168" lon="2.45138">
        <ele>73.3</ele>
        <time>2019-01-23T10:31:38Z</time>
      </trkpt>
      <trkpt lat="48.69166" lon="2.45145">
        <ele>73.4</ele>
        <time>2019-01-23T10:31:43Z</time>
      </trkpt>
      <trkpt lat="48.69163" lon="2.45152">
        <ele>73.4</ele>
        <time>2019-01-23T10:31:48Z</time>
      </trkpt>
      <trkpt lat="48.69159" lon="2.45159">
        <ele>73.4</ele>
        <time>2019-01-23T10:31:52Z</time>
      </trkpt>
      <trkpt lat="48.69156" lon="2.45165">
        <ele>73.4</ele>
        <time>2019-01-23T10:31:56Z</time>
      </trkpt>
      <trkpt lat="48.69155" lon="2.45172">
        <ele>73.4</ele>
        <time>2019-01-23T10:32:00Z</time>
      </trkpt>
      <trkpt lat="48.69153" lon="2.45179">
        <ele>73.4</ele>
        <time>2019-01-23T10:32:04Z</time>
      </trkpt>
      <trkpt lat="48.6915" lon="2.45185">
        <ele>73.4</ele>
        <time>2019-01-23T10:32:09Z</time>
      </trkpt>
      <trkpt lat="48.69147" lon="2.45191">
        <ele>73.4</ele>
        <time>2019-01-23T10:32:13Z</time>
      </trkpt>
      <trkpt lat="48.69144" lon="2.45198">
        <ele>73.4</ele>
        <time>2019-01-23T10:32:18Z</time>
      </trkpt>
      <trkpt lat="48.69142" lon="2.45204">
        <ele>73.4</ele>
        <time>2019-01-23T10:32:22Z</time>
      </trkpt>
      <trkpt lat="48.6914" lon="2.45211">
        <ele>73.4</ele>
        <time>2019-01-23T10:32:27Z</time>
      </trkpt>
      <trkpt lat="48.69138" lon="2.45218">
        <ele>73.4</ele>
        <time>2019-01-23T10:32:32Z</time>
      </trkpt>
      <trkpt lat="48.69136" lon="2.45225">
        <ele>73.5</ele>
        <time>2019-01-23T10:32:36Z</time>
      </trkpt>
      <trkpt lat="48.69133" lon="2.45231">
        <ele>73.5</ele>
        <time>2019-01-23T10:32:40Z</time>
      </trkpt>
      <trkpt lat="48.6913" lon="2.45237">
        <ele>73.5</ele>
        <time>2019-01-23T10:32:43Z</time>
      </trkpt>
      <trkpt lat="48.69127" lon="2.45244">
        <ele>73.6</ele>
        <time>2019-01-23T10:32:47Z</time>
      </trkpt>
      <trkpt lat="48.69124" lon="2.45251">
        <ele>73.6</ele>
        <time>2019-01-23T10:32:52Z</time>
      </trkpt>
      <trkpt lat="48.69121" lon="2.45258">
        <ele>73.7</ele>
        <time>2019-01-23T10:32:57Z</time>
      </trkpt>
      <trkpt lat="48.69118" lon="2.45265">
        <ele>73.7</ele>
        <time>2019-01-23T10:33:01Z</time>
      </trkpt>
      <trkpt lat="48.69115" lon="2.45272">
        <ele>73.7</ele>
        <time>2019-01-23T10:33:06Z</time>
      </trkpt>
      <trkpt lat="48.69114" lon="2.4528">
        <ele>73.7</ele>
        <time>2019-01-23T10:33:15Z</time>
      </trkpt>
      <trkpt lat="48.69111" lon="2.45286">
        <ele>73.8</ele>
        <time>2019-01-23T10:33:18Z</time>
      </trkpt>
      <trkpt lat="48.69109" lon="2.45292">
        <ele>73.8</ele>
        <time>2019-01-23T10:33:22Z</time>
      </trkpt>
      <trkpt lat="48.69108" lon="2.45301">
        <ele>73.8</ele>
        <time>2019-01-23T10:33:26Z</time>
      </trkpt>
      <trkpt lat="48.69106" lon="2.45307">
        <ele>73.8</ele>
        <time>2019-01-23T10:33:28Z</time>
      </trkpt>
      <trkpt lat="48.69103" lon="2.45314">
        <ele>73.8</ele>
        <time>2019-01-23T10:33:30Z</time>
      </trkpt>
      <trkpt lat="48.69101" lon="2.45321">
        <ele>73.8</ele>
        <time>2019-01-23T10:33:33Z</time>
      </trkpt>
      <trkpt lat="48.69098" lon="2.45326">
        <ele>73.8</ele>
        <time>2019-01-23T10:33:36Z</time>
      </trkpt>
      <trkpt lat="48.69096" lon="2.45333">
        <ele>73.9</ele>
        <time>2019-01-23T10:33:41Z</time>
      </trkpt>
      <trkpt lat="48.69094" lon="2.4534">
        <ele>73.9</ele>
        <time>2019-01-23T10:33:46Z</time>
      </trkpt>
      <trkpt lat="48.69092" lon="2.45347">
        <ele>73.9</ele>
        <time>2019-01-23T10:33:52Z</time>
      </trkpt>
      <trkpt lat="48.69088" lon="2.45352">
        <ele>73.9</ele>
        <time>2019-01-23T10:33:56Z</time>
      </trkpt>
      <trkpt lat="48.69084" lon="2.45357">
        <ele>73.9</ele>
        <time>2019-01-23T10:34:01Z</time>
      </trkpt>
      <trkpt lat="48.69079" lon="2.45361">
        <ele>73.9</ele>
        <time>2019-01-23T10:34:06Z</time>
      </trkpt>
      <trkpt lat="48.69075" lon="2.45366">
        <ele>73.9</ele>
        <time>2019-01-23T10:34:12Z</time>
      </trkpt>
      <trkpt lat="48.69071" lon="2.45369">
        <ele>73.9</ele>
        <time>2019-01-23T10:34:15Z</time>
      </trkpt>
      <trkpt lat="48.69067" lon="2.45374">
        <ele>73.9</ele>
        <time>2019-01-23T10:34:19Z</time>
      </trkpt>
      <trkpt lat="48.69062" lon="2.45379">
        <ele>73.9</ele>
        <time>2019-01-23T10:34:24Z</time>
      </trkpt>
      <trkpt lat="48.69058" lon="2.45385">
        <ele>73.9</ele>
        <time>2019-01-23T10:34:28Z</time>
      </trkpt>
      <trkpt lat="48.69053" lon="2.45389">
        <ele>73.9</ele>
        <time>2019-01-23T10:34:33Z</time>
      </trkpt>
      <trkpt lat="48.69049" lon="2.45393">
        <ele>73.9</ele>
        <time>2019-01-23T10:34:40Z</time>
      </trkpt>
      <trkpt lat="48.69044" lon="2.45397">
        <ele>74</ele>
        <time>2019-01-23T10:34:45Z</time>
      </trkpt>
      <trkpt lat="48.69039" lon="2.454">
        <ele>74</ele>
        <time>2019-01-23T10:34:47Z</time>
      </trkpt>
      <trkpt lat="48.69035" lon="2.45402">
        <ele>74</ele>
        <time>2019-01-23T10:34:54Z</time>
      </trkpt>
      <trkpt lat="48.6903" lon="2.454">
        <ele>74</ele>
        <time>2019-01-23T10:35:00Z</time>
      </trkpt>
      <trkpt lat="48.69024" lon="2.45397">
        <ele>74</ele>
        <time>2019-01-23T10:35:04Z</time>
      </trkpt>
      <trkpt lat="48.6902" lon="2.45392">
        <ele>74</ele>
        <time>2019-01-23T10:35:08Z</time>
      </trkpt>
      <trkpt lat="48.69017" lon="2.45388">
        <ele>74</ele>
        <time>2019-01-23T10:35:14Z</time>
      </trkpt>
      <trkpt lat="48.69013" lon="2.45383">
        <ele>74</ele>
        <time>2019-01-23T10:35:19Z</time>
      </trkpt>
      <trkpt lat="48.6901" lon="2.45376">
        <ele>74</ele>
        <time>2019-01-23T10:35:26Z</time>
      </trkpt>
      <trkpt lat="48.69007" lon="2.4537">
        <ele>74</ele>
        <time>2019-01-23T10:35:30Z</time>
      </trkpt>
      <trkpt lat="48.69003" lon="2.45364">
        <ele>74</ele>
        <time>2019-01-23T10:35:34Z</time>
      </trkpt>
      <trkpt lat="48.69" lon="2.45358">
        <ele>74</ele>
        <time>2019-01-23T10:35:38Z</time>
      </trkpt>
      <trkpt lat="48.68998" lon="2.45352">
        <ele>74</ele>
        <time>2019-01-23T10:35:41Z</time>
      </trkpt>
      <trkpt lat="48.68995" lon="2.45345">
        <ele>74.1</ele>
        <time>2019-01-23T10:35:45Z</time>
      </trkpt>
      <trkpt lat="48.68992" lon="2.45339">
        <ele>74.1</ele>
        <time>2019-01-23T10:35:50Z</time>
      </trkpt>
      <trkpt lat="48.68987" lon="2.4534">
        <ele>74.1</ele>
        <time>2019-01-23T10:35:58Z</time>
      </trkpt>
      <trkpt lat="48.68983" lon="2.4534">
        <ele>74</ele>
        <time>2019-01-23T10:36:06Z</time>
      </trkpt>
      <trkpt lat="48.68979" lon="2.45344">
        <ele>74</ele>
        <time>2019-01-23T10:36:10Z</time>
      </trkpt>
      <trkpt lat="48.68977" lon="2.45337">
        <ele>74</ele>
        <time>2019-01-23T10:36:18Z</time>
      </trkpt>
      <trkpt lat="48.68973" lon="2.45344">
        <ele>74</ele>
        <time>2019-01-23T10:36:23Z</time>
      </trkpt>
      <trkpt lat="48.68968" lon="2.45348">
        <ele>74</ele>
        <time>2019-01-23T10:36:26Z</time>
      </trkpt>
      <trkpt lat="48.68964" lon="2.45354">
        <ele>74</ele>
        <time>2019-01-23T10:36:28Z</time>
      </trkpt>
      <trkpt lat="48.68961" lon="2.45359">
        <ele>74</ele>
        <time>2019-01-23T10:36:30Z</time>
      </trkpt>
      <trkpt lat="48.68956" lon="2.45364">
        <ele>74</ele>
        <time>2019-01-23T10:36:33Z</time>
      </trkpt>
      <trkpt lat="48.68952" lon="2.45371">
        <ele>74</ele>
        <time>2019-01-23T10:36:36Z</time>
      </trkpt>
      <trkpt lat="48.68947" lon="2.45375">
        <ele>74</ele>
        <time>2019-01-23T10:36:39Z</time>
      </trkpt>
      <trkpt lat="48.68943" lon="2.45379">
        <ele>74</ele>
        <time>2019-01-23T10:36:44Z</time>
      </trkpt>
      <trkpt lat="48.68941" lon="2.45387">
        <ele>74</ele>
        <time>2019-01-23T10:36:48Z</time>
      </trkpt>
      <trkpt lat="48.68936" lon="2.45389">
        <ele>74</ele>
        <time>2019-01-23T10:36:53Z</time>
      </trkpt>
      <trkpt lat="48.68933" lon="2.45393">
        <ele>74</ele>
        <time>2019-01-23T10:36:57Z</time>
      </trkpt>
      <trkpt lat="48.68929" lon="2.45399">
        <ele>74</ele>
        <time>2019-01-23T10:37:01Z</time>
      </trkpt>
      <trkpt lat="48.68924" lon="2.45404">
        <ele>74</ele>
        <time>2019-01-23T10:37:04Z</time>
      </trkpt>
      <trkpt lat="48.6892" lon="2.45409">
        <ele>74</ele>
        <time>2019-01-23T10:37:09Z</time>
      </trkpt>
      <trkpt lat="48.68915" lon="2.45414">
        <ele>74</ele>
        <time>2019-01-23T10:37:14Z</time>
      </trkpt>
      <trkpt lat="48.68911" lon="2.45419">
        <ele>74</ele>
        <time>2019-01-23T10:37:18Z</time>
      </trkpt>
      <trkpt lat="48.68907" lon="2.45422">
        <ele>74</ele>
        <time>2019-01-23T10:37:21Z</time>
      </trkpt>
      <trkpt lat="48.68907" lon="2.45429">
        <ele>73.9</ele>
        <time>2019-01-23T10:37:26Z</time>
      </trkpt>
      <trkpt lat="48.68902" lon="2.45434">
        <ele>73.9</ele>
        <time>2019-01-23T10:37:32Z</time>
      </trkpt>
      <trkpt lat="48.68897" lon="2.45438">
        <ele>73.9</ele>
        <time>2019-01-23T10:37:39Z</time>
      </trkpt>
      <trkpt lat="48.68895" lon="2.45444">
        <ele>73.8</ele>
        <time>2019-01-23T10:37:46Z</time>
      </trkpt>
      <trkpt lat="48.6889" lon="2.45446">
        <ele>73.8</ele>
        <time>2019-01-23T10:37:50Z</time>
      </trkpt>
      <trkpt lat="48.68886" lon="2.45452">
        <ele>73.8</ele>
        <time>2019-01-23T10:37:54Z</time>
      </trkpt>
      <trkpt lat="48.68882" lon="2.45455">
        <ele>73.7</ele>
        <time>2019-01-23T10:37:58Z</time>
      </trkpt>
      <trkpt lat="48.68877" lon="2.4546">
        <ele>73.7</ele>
        <time>2019-01-23T10:38:02Z</time>
      </trkpt>
      <trkpt lat="48.68873" lon="2.45462">
        <ele>73.7</ele>
        <time>2019-01-23T10:38:04Z</time>
      </trkpt>
      <trkpt lat="48.68869" lon="2.45466">
        <ele>73.7</ele>
        <time>2019-01-23T10:38:08Z</time>
      </trkpt>
      <trkpt lat="48.68865" lon="2.45472">
        <ele>73.6</ele>
        <time>2019-01-23T10:38:15Z</time>
      </trkpt>
      <trkpt lat="48.68861" lon="2.45477">
        <ele>73.6</ele>
        <time>2019-01-23T10:38:21Z</time>
      </trkpt>
      <trkpt lat="48.68858" lon="2.45484">
        <ele>73.6</ele>
        <time>2019-01-23T10:38:27Z</time>
      </trkpt>
      <trkpt lat="48.68854" lon="2.45488">
        <ele>73.6</ele>
        <time>2019-01-23T10:38:34Z</time>
      </trkpt>
      <trkpt lat="48.68849" lon="2.45493">
        <ele>73.6</ele>
        <time>2019-01-23T10:38:39Z</time>
      </trkpt>
      <trkpt lat="48.68844" lon="2.45499">
        <ele>73.6</ele>
        <time>2019-01-23T10:38:42Z</time>
      </trkpt>
      <trkpt lat="48.6884" lon="2.45502">
        <ele>73.6</ele>
        <time>2019-01-23T10:38:45Z</time>
      </trkpt>
      <trkpt lat="48.68835" lon="2.45507">
        <ele>73.6</ele>
        <time>2019-01-23T10:38:49Z</time>
      </trkpt>
      <trkpt lat="48.68832" lon="2.4551">
        <ele>73.6</ele>
        <time>2019-01-23T10:38:55Z</time>
      </trkpt>
      <trkpt lat="48.68827" lon="2.45515">
        <ele>73.6</ele>
        <time>2019-01-23T10:39:02Z</time>
      </trkpt>
      <trkpt lat="48.68822" lon="2.45519">
        <ele>73.6</ele>
        <time>2019-01-23T10:39:07Z</time>
      </trkpt>
      <trkpt lat="48.68817" lon="2.45522">
        <ele>73.6</ele>
        <time>2019-01-23T10:39:10Z</time>
      </trkpt>
      <trkpt lat="48.68812" lon="2.45525">
        <ele>73.6</ele>
        <time>2019-01-23T10:39:17Z</time>
      </trkpt>
      <trkpt lat="48.68808" lon="2.4553">
        <ele>73.6</ele>
        <time>2019-01-23T10:39:20Z</time>
      </trkpt>
      <trkpt lat="48.68804" lon="2.45533">
        <ele>73.6</ele>
        <time>2019-01-23T10:39:23Z</time>
      </trkpt>
      <trkpt lat="48.68801" lon="2.4554">
        <ele>73.7</ele>
        <time>2019-01-23T10:39:29Z</time>
      </trkpt>
      <trkpt lat="48.68796" lon="2.45546">
        <ele>73.7</ele>
        <time>2019-01-23T10:39:32Z</time>
      </trkpt>
      <trkpt lat="48.68791" lon="2.45549">
        <ele>73.7</ele>
        <time>2019-01-23T10:39:40Z</time>
      </trkpt>
      <trkpt lat="48.68787" lon="2.45554">
        <ele>73.7</ele>
        <time>2019-01-23T10:39:42Z</time>
      </trkpt>
      <trkpt lat="48.68783" lon="2.45558">
        <ele>73.7</ele>
        <time>2019-01-23T10:39:46Z</time>
      </trkpt>
      <trkpt lat="48.68779" lon="2.45561">
        <ele>73.7</ele>
        <time>2019-01-23T10:39:50Z</time>
      </trkpt>
      <trkpt lat="48.68775" lon="2.45566">
        <ele>73.7</ele>
        <time>2019-01-23T10:39:54Z</time>
      </trkpt>
      <trkpt lat="48.68771" lon="2.45571">
        <ele>73.7</ele>
        <time>2019-01-23T10:39:57Z</time>
      </trkpt>
      <trkpt lat="48.68767" lon="2.45575">
        <ele>73.7</ele>
        <time>2019-01-23T10:40:01Z</time>
      </trkpt>
      <trkpt lat="48.68763" lon="2.45579">
        <ele>73.7</ele>
        <time>2019-01-23T10:40:08Z</time>
      </trkpt>
      <trkpt lat="48.68756" lon="2.45586">
        <ele>73.7</ele>
        <time>2019-01-23T10:40:14Z</time>
      </trkpt>
      <trkpt lat="48.68752" lon="2.45591">
        <ele>73.7</ele>
        <time>2019-01-23T10:40:17Z</time>
      </trkpt>
      <trkpt lat="48.68747" lon="2.45597">
        <ele>73.7</ele>
        <time>2019-01-23T10:40:20Z</time>
      </trkpt>
      <trkpt lat="48.68743" lon="2.45605">
        <ele>73.7</ele>
        <time>2019-01-23T10:40:24Z</time>
      </trkpt>
      <trkpt lat="48.68739" lon="2.45611">
        <ele>73.7</ele>
        <time>2019-01-23T10:40:30Z</time>
      </trkpt>
      <trkpt lat="48.68736" lon="2.45615">
        <ele>73.7</ele>
        <time>2019-01-23T10:40:34Z</time>
      </trkpt>
      <trkpt lat="48.68731" lon="2.4562">
        <ele>73.7</ele>
        <time>2019-01-23T10:40:39Z</time>
      </trkpt>
      <trkpt lat="48.68727" lon="2.45626">
        <ele>73.7</ele>
        <time>2019-01-23T10:40:43Z</time>
      </trkpt>
      <trkpt lat="48.68723" lon="2.4563">
        <ele>73.7</ele>
        <time>2019-01-23T10:40:48Z</time>
      </trkpt>
      <trkpt lat="48.68719" lon="2.45635">
        <ele>73.7</ele>
        <time>2019-01-23T10:40:53Z</time>
      </trkpt>
      <trkpt lat="48.68715" lon="2.4564">
        <ele>73.7</ele>
        <time>2019-01-23T10:40:57Z</time>
      </trkpt>
      <trkpt lat="48.6871" lon="2.45644">
        <ele>73.8</ele>
        <time>2019-01-23T10:41:03Z</time>
      </trkpt>
      <trkpt lat="48.68705" lon="2.45645">
        <ele>73.8</ele>
        <time>2019-01-23T10:41:07Z</time>
      </trkpt>
      <trkpt lat="48.687" lon="2.45648">
        <ele>73.8</ele>
        <time>2019-01-23T10:41:12Z</time>
      </trkpt>
      <trkpt lat="48.68695" lon="2.45653">
        <ele>73.9</ele>
        <time>2019-01-23T10:41:16Z</time>
      </trkpt>
      <trkpt lat="48.68693" lon="2.4566">
        <ele>73.9</ele>
        <time>2019-01-23T10:41:24Z</time>
      </trkpt>
      <trkpt lat="48.68688" lon="2.45663">
        <ele>73.9</ele>
        <time>2019-01-23T10:41:27Z</time>
      </trkpt>
      <trkpt lat="48.68683" lon="2.45666">
        <ele>73.9</ele>
        <time>2019-01-23T10:41:35Z</time>
      </trkpt>
      <trkpt lat="48.68679" lon="2.45671">
        <ele>73.9</ele>
        <time>2019-01-23T10:41:42Z</time>
      </trkpt>
      <trkpt lat="48.68675" lon="2.45676">
        <ele>74</ele>
        <time>2019-01-23T10:41:46Z</time>
      </trkpt>
      <trkpt lat="48.68669" lon="2.45682">
        <ele>74</ele>
        <time>2019-01-23T10:41:52Z</time>
      </trkpt>
      <trkpt lat="48.68664" lon="2.45685">
        <ele>74</ele>
        <time>2019-01-23T10:41:56Z</time>
      </trkpt>
      <trkpt lat="48.68656" lon="2.45689">
        <ele>74</ele>
        <time>2019-01-23T10:41:59Z</time>
      </trkpt>
      <trkpt lat="48.68652" lon="2.45693">
        <ele>74.1</ele>
        <time>2019-01-23T10:42:04Z</time>
      </trkpt>
      <trkpt lat="48.68649" lon="2.45698">
        <ele>74.1</ele>
        <time>2019-01-23T10:42:08Z</time>
      </trkpt>
      <trkpt lat="48.68646" lon="2.45703">
        <ele>74.1</ele>
        <time>2019-01-23T10:42:12Z</time>
      </trkpt>
      <trkpt lat="48.68642" lon="2.45707">
        <ele>74.1</ele>
        <time>2019-01-23T10:42:15Z</time>
      </trkpt>
      <trkpt lat="48.68638" lon="2.45712">
        <ele>74.1</ele>
        <time>2019-01-23T10:42:18Z</time>
      </trkpt>
      <trkpt lat="48.68632" lon="2.45717">
        <ele>74.1</ele>
        <time>2019-01-23T10:42:27Z</time>
      </trkpt>
      <trkpt lat="48.68629" lon="2.45722">
        <ele>74.1</ele>
        <time>2019-01-23T10:42:32Z</time>
      </trkpt>
      <trkpt lat="48.68625" lon="2.45727">
        <ele>74.1</ele>
        <time>2019-01-23T10:42:37Z</time>
      </trkpt>
      <trkpt lat="48.68621" lon="2.45732">
        <ele>74.1</ele>
        <time>2019-01-23T10:42:40Z</time>
      </trkpt>
      <trkpt lat="48.68617" lon="2.45733">
        <ele>74.1</ele>
        <time>2019-01-23T10:42:45Z</time>
      </trkpt>
      <trkpt lat="48.68613" lon="2.45738">
        <ele>74.1</ele>
        <time>2019-01-23T10:42:48Z</time>
      </trkpt>
      <trkpt lat="48.68608" lon="2.45742">
        <ele>74.1</ele>
        <time>2019-01-23T10:42:53Z</time>
      </trkpt>
      <trkpt lat="48.68603" lon="2.45745">
        <ele>74.1</ele>
        <time>2019-01-23T10:42:57Z</time>
      </trkpt>
      <trkpt lat="48.68597" lon="2.45752">
        <ele>74.1</ele>
        <time>2019-01-23T10:43:00Z</time>
      </trkpt>
      <trkpt lat="48.68594" lon="2.45757">
        <ele>74.1</ele>
        <time>2019-01-23T10:43:03Z</time>
      </trkpt>
      <trkpt lat="48.6859" lon="2.4576">
        <ele>74.1</ele>
        <time>2019-01-23T10:43:10Z</time>
      </trkpt>
      <trkpt lat="48.68586" lon="2.45763">
        <ele>74.1</ele>
        <time>2019-01-23T10:43:13Z</time>
      </trkpt>
      <trkpt lat="48.68582" lon="2.45767">
        <ele>74.1</ele>
        <time>2019-01-23T10:43:17Z</time>
      </trkpt>
      <trkpt lat="48.68579" lon="2.45773">
        <ele>74.1</ele>
        <time>2019-01-23T10:43:22Z</time>
      </trkpt>
      <trkpt lat="48.68573" lon="2.45777">
        <ele>74.1</ele>
        <time>2019-01-23T10:43:26Z</time>
      </trkpt>
      <trkpt lat="48.68569" lon="2.45781">
        <ele>74.2</ele>
        <time>2019-01-23T10:43:29Z</time>
      </trkpt>
      <trkpt lat="48.68564" lon="2.45785">
        <ele>74.2</ele>
        <time>2019-01-23T10:43:33Z</time>
      </trkpt>
      <trkpt lat="48.6856" lon="2.4579">
        <ele>74.2</ele>
        <time>2019-01-23T10:43:41Z</time>
      </trkpt>
      <trkpt lat="48.68556" lon="2.45794">
        <ele>74.3</ele>
        <time>2019-01-23T10:43:48Z</time>
      </trkpt>
      <trkpt lat="48.68551" lon="2.45799">
        <ele>74.3</ele>
        <time>2019-01-23T10:43:54Z</time>
      </trkpt>
      <trkpt lat="48.68547" lon="2.45802">
        <ele>74.3</ele>
        <time>2019-01-23T10:43:58Z</time>
      </trkpt>
      <trkpt lat="48.68543" lon="2.45808">
        <ele>74.3</ele>
        <time>2019-01-23T10:44:01Z</time>
      </trkpt>
      <trkpt lat="48.6854" lon="2.45813">
        <ele>74.4</ele>
        <time>2019-01-23T10:44:05Z</time>
      </trkpt>
      <trkpt lat="48.68536" lon="2.45818">
        <ele>74.4</ele>
        <time>2019-01-23T10:44:09Z</time>
      </trkpt>
      <trkpt lat="48.68531" lon="2.45822">
        <ele>74.4</ele>
        <time>2019-01-23T10:44:14Z</time>
      </trkpt>
      <trkpt lat="48.68526" lon="2.45826">
        <ele>74.4</ele>
        <time>2019-01-23T10:44:18Z</time>
      </trkpt>
      <trkpt lat="48.68522" lon="2.4583">
        <ele>74.4</ele>
        <time>2019-01-23T10:44:22Z</time>
      </trkpt>
      <trkpt lat="48.68518" lon="2.45835">
        <ele>74.4</ele>
        <time>2019-01-23T10:44:27Z</time>
      </trkpt>
      <trkpt lat="48.68513" lon="2.45836">
        <ele>74.4</ele>
        <time>2019-01-23T10:44:42Z</time>
      </trkpt>
      <trkpt lat="48.68507" lon="2.4584">
        <ele>74.4</ele>
        <time>2019-01-23T10:44:45Z</time>
      </trkpt>
      <trkpt lat="48.68501" lon="2.45844">
        <ele>74.4</ele>
        <time>2019-01-23T10:44:50Z</time>
      </trkpt>
      <trkpt lat="48.68497" lon="2.45849">
        <ele>74.3</ele>
        <time>2019-01-23T10:44:53Z</time>
      </trkpt>
      <trkpt lat="48.68493" lon="2.45854">
        <ele>74.3</ele>
        <time>2019-01-23T10:44:56Z</time>
      </trkpt>
      <trkpt lat="48.68491" lon="2.4586">
        <ele>74.3</ele>
        <time>2019-01-23T10:45:01Z</time>
      </trkpt>
      <trkpt lat="48.68488" lon="2.45864">
        <ele>74.2</ele>
        <time>2019-01-23T10:45:04Z</time>
      </trkpt>
      <trkpt lat="48.68484" lon="2.4587">
        <ele>74.2</ele>
        <time>2019-01-23T10:45:08Z</time>
      </trkpt>
      <trkpt lat="48.6848" lon="2.45876">
        <ele>74.2</ele>
        <time>2019-01-23T10:45:11Z</time>
      </trkpt>
      <trkpt lat="48.68475" lon="2.45878">
        <ele>74.2</ele>
        <time>2019-01-23T10:45:14Z</time>
      </trkpt>
      <trkpt lat="48.68472" lon="2.45883">
        <ele>74.1</ele>
        <time>2019-01-23T10:45:18Z</time>
      </trkpt>
      <trkpt lat="48.68467" lon="2.45888">
        <ele>74.1</ele>
        <time>2019-01-23T10:45:21Z</time>
      </trkpt>
      <trkpt lat="48.68462" lon="2.45892">
        <ele>74.1</ele>
        <time>2019-01-23T10:45:24Z</time>
      </trkpt>
      <trkpt lat="48.68457" lon="2.45897">
        <ele>74.1</ele>
        <time>2019-01-23T10:45:27Z</time>
      </trkpt>
      <trkpt lat="48.68452" lon="2.45902">
        <ele>74.2</ele>
        <time>2019-01-23T10:45:30Z</time>
      </trkpt>
      <trkpt lat="48.68448" lon="2.45907">
        <ele>74.2</ele>
        <time>2019-01-23T10:45:36Z</time>
      </trkpt>
      <trkpt lat="48.68444" lon="2.45912">
        <ele>74.2</ele>
        <time>2019-01-23T10:45:42Z</time>
      </trkpt>
      <trkpt lat="48.6844" lon="2.45918">
        <ele>74.3</ele>
        <time>2019-01-23T10:45:48Z</time>
      </trkpt>
      <trkpt lat="48.68434" lon="2.45922">
        <ele>74.3</ele>
        <time>2019-01-23T10:45:50Z</time>
      </trkpt>
      <trkpt lat="48.6843" lon="2.45927">
        <ele>74.4</ele>
        <time>2019-01-23T10:45:56Z</time>
      </trkpt>
      <trkpt lat="48.68428" lon="2.45933">
        <ele>74.5</ele>
        <time>2019-01-23T10:46:02Z</time>
      </trkpt>
      <trkpt lat="48.6843" lon="2.4594">
        <ele>74.5</ele>
        <time>2019-01-23T10:46:09Z</time>
      </trkpt>
      <trkpt lat="48.6843" lon="2.45949">
        <ele>74.6</ele>
        <time>2019-01-23T10:46:13Z</time>
      </trkpt>
      <trkpt lat="48.68432" lon="2.45955">
        <ele>74.6</ele>
        <time>2019-01-23T10:46:19Z</time>
      </trkpt>
      <trkpt lat="48.68435" lon="2.45962">
        <ele>74.7</ele>
        <time>2019-01-23T10:46:22Z</time>
      </trkpt>
      <trkpt lat="48.68436" lon="2.4597">
        <ele>74.7</ele>
        <time>2019-01-23T10:46:26Z</time>
      </trkpt>
      <trkpt lat="48.68438" lon="2.45976">
        <ele>74.8</ele>
        <time>2019-01-23T10:46:31Z</time>
      </trkpt>
      <trkpt lat="48.68439" lon="2.45984">
        <ele>74.9</ele>
        <time>2019-01-23T10:46:37Z</time>
      </trkpt>
      <trkpt lat="48.68437" lon="2.45991">
        <ele>75</ele>
        <time>2019-01-23T10:46:43Z</time>
      </trkpt>
      <trkpt lat="48.68436" lon="2.45998">
        <ele>75</ele>
        <time>2019-01-23T10:46:50Z</time>
      </trkpt>
      <trkpt lat="48.68441" lon="2.45998">
        <ele>75.1</ele>
        <time>2019-01-23T10:47:04Z</time>
      </trkpt>
      <trkpt lat="48.68444" lon="2.46003">
        <ele>75.1</ele>
        <time>2019-01-23T10:47:09Z</time>
      </trkpt>
      <trkpt lat="48.68447" lon="2.46009">
        <ele>75.2</ele>
        <time>2019-01-23T10:47:14Z</time>
      </trkpt>
      <trkpt lat="48.68449" lon="2.46015">
        <ele>75.2</ele>
        <time>2019-01-23T10:47:17Z</time>
      </trkpt>
      <trkpt lat="48.68452" lon="2.46021">
        <ele>75.3</ele>
        <time>2019-01-23T10:47:23Z</time>
      </trkpt>
      <trkpt lat="48.68454" lon="2.46027">
        <ele>75.3</ele>
        <time>2019-01-23T10:47:26Z</time>
      </trkpt>
      <trkpt lat="48.68456" lon="2.46035">
        <ele>75.4</ele>
        <time>2019-01-23T10:47:30Z</time>
      </trkpt>
      <trkpt lat="48.68456" lon="2.46043">
        <ele>75.5</ele>
        <time>2019-01-23T10:47:32Z</time>
      </trkpt>
      <trkpt lat="48.68459" lon="2.46051">
        <ele>75.5</ele>
        <time>2019-01-23T10:47:36Z</time>
      </trkpt>
      <trkpt lat="48.68462" lon="2.46057">
        <ele>75.6</ele>
        <time>2019-01-23T10:47:40Z</time>
      </trkpt>
      <trkpt lat="48.68463" lon="2.46065">
        <ele>75.7</ele>
        <time>2019-01-23T10:47:44Z</time>
      </trkpt>
      <trkpt lat="48.68466" lon="2.46072">
        <ele>75.8</ele>
        <time>2019-01-23T10:47:48Z</time>
      </trkpt>
      <trkpt lat="48.68469" lon="2.46078">
        <ele>75.9</ele>
        <time>2019-01-23T10:47:52Z</time>
      </trkpt>
      <trkpt lat="48.68473" lon="2.46084">
        <ele>76</ele>
        <time>2019-01-23T10:47:55Z</time>
      </trkpt>
      <trkpt lat="48.68475" lon="2.46091">
        <ele>76.2</ele>
        <time>2019-01-23T10:47:59Z</time>
      </trkpt>
      <trkpt lat="48.68478" lon="2.46098">
        <ele>76.3</ele>
        <time>2019-01-23T10:48:03Z</time>
      </trkpt>
      <trkpt lat="48.6848" lon="2.46105">
        <ele>76.5</ele>
        <time>2019-01-23T10:48:06Z</time>
      </trkpt>
      <trkpt lat="48.68482" lon="2.46112">
        <ele>76.6</ele>
        <time>2019-01-23T10:48:10Z</time>
      </trkpt>
      <trkpt lat="48.68483" lon="2.46119">
        <ele>76.8</ele>
        <time>2019-01-23T10:48:16Z</time>
      </trkpt>
      <trkpt lat="48.68485" lon="2.46126">
        <ele>77</ele>
        <time>2019-01-23T10:48:21Z</time>
      </trkpt>
      <trkpt lat="48.68488" lon="2.46134">
        <ele>77.2</ele>
        <time>2019-01-23T10:48:26Z</time>
      </trkpt>
      <trkpt lat="48.6849" lon="2.46141">
        <ele>77.3</ele>
        <time>2019-01-23T10:48:31Z</time>
      </trkpt>
      <trkpt lat="48.6849" lon="2.4615">
        <ele>77.5</ele>
        <time>2019-01-23T10:48:36Z</time>
      </trkpt>
      <trkpt lat="48.68492" lon="2.46158">
        <ele>77.6</ele>
        <time>2019-01-23T10:48:43Z</time>
      </trkpt>
      <trkpt lat="48.68495" lon="2.46164">
        <ele>77.6</ele>
        <time>2019-01-23T10:48:47Z</time>
      </trkpt>
      <trkpt lat="48.68498" lon="2.46171">
        <ele>77.7</ele>
        <time>2019-01-23T10:48:51Z</time>
      </trkpt>
      <trkpt lat="48.68504" lon="2.46175">
        <ele>77.8</ele>
        <time>2019-01-23T10:48:54Z</time>
      </trkpt>
      <trkpt lat="48.68508" lon="2.46177">
        <ele>77.9</ele>
        <time>2019-01-23T10:48:57Z</time>
      </trkpt>
      <trkpt lat="48.68509" lon="2.46185">
        <ele>77.9</ele>
        <time>2019-01-23T10:49:03Z</time>
      </trkpt>
      <trkpt lat="48.68509" lon="2.46191">
        <ele>78</ele>
        <time>2019-01-23T10:49:06Z</time>
      </trkpt>
      <trkpt lat="48.6851" lon="2.462">
        <ele>78</ele>
        <time>2019-01-23T10:49:09Z</time>
      </trkpt>
      <trkpt lat="48.68511" lon="2.46208">
        <ele>78.1</ele>
        <time>2019-01-23T10:49:12Z</time>
      </trkpt>
      <trkpt lat="48.68513" lon="2.46214">
        <ele>78.2</ele>
        <time>2019-01-23T10:49:16Z</time>
      </trkpt>
      <trkpt lat="48.68516" lon="2.46221">
        <ele>78.3</ele>
        <time>2019-01-23T10:49:20Z</time>
      </trkpt>
      <trkpt lat="48.68518" lon="2.46228">
        <ele>78.3</ele>
        <time>2019-01-23T10:49:24Z</time>
      </trkpt>
      <trkpt lat="48.68519" lon="2.46234">
        <ele>78.4</ele>
        <time>2019-01-23T10:49:28Z</time>
      </trkpt>
      <trkpt lat="48.68521" lon="2.46241">
        <ele>78.4</ele>
        <time>2019-01-23T10:49:31Z</time>
      </trkpt>
      <trkpt lat="48.68522" lon="2.46249">
        <ele>78.4</ele>
        <time>2019-01-23T10:49:35Z</time>
      </trkpt>
      <trkpt lat="48.68523" lon="2.46257">
        <ele>78.5</ele>
        <time>2019-01-23T10:49:39Z</time>
      </trkpt>
      <trkpt lat="48.68524" lon="2.46264">
        <ele>78.5</ele>
        <time>2019-01-23T10:49:41Z</time>
      </trkpt>
      <trkpt lat="48.68526" lon="2.4627">
        <ele>78.6</ele>
        <time>2019-01-23T10:49:46Z</time>
      </trkpt>
      <trkpt lat="48.68529" lon="2.46277">
        <ele>78.6</ele>
        <time>2019-01-23T10:49:52Z</time>
      </trkpt>
      <trkpt lat="48.68529" lon="2.46286">
        <ele>78.7</ele>
        <time>2019-01-23T10:49:56Z</time>
      </trkpt>
      <trkpt lat="48.6853" lon="2.46293">
        <ele>78.7</ele>
        <time>2019-01-23T10:49:59Z</time>
      </trkpt>
      <trkpt lat="48.68533" lon="2.46301">
        <ele>78.8</ele>
        <time>2019-01-23T10:50:02Z</time>
      </trkpt>
      <trkpt lat="48.68535" lon="2.46308">
        <ele>78.8</ele>
        <time>2019-01-23T10:50:07Z</time>
      </trkpt>
      <trkpt lat="48.68537" lon="2.46316">
        <ele>78.8</ele>
        <time>2019-01-23T10:50:11Z</time>
      </trkpt>
      <trkpt lat="48.68541" lon="2.46322">
        <ele>78.9</ele>
        <time>2019-01-23T10:50:16Z</time>
      </trkpt>
      <trkpt lat="48.6854" lon="2.46328">
        <ele>78.9</ele>
        <time>2019-01-23T10:50:19Z</time>
      </trkpt>
      <trkpt lat="48.68541" lon="2.46337">
        <ele>78.9</ele>
        <time>2019-01-23T10:50:24Z</time>
      </trkpt>
      <trkpt lat="48.68545" lon="2.46343">
        <ele>79</ele>
        <time>2019-01-23T10:50:27Z</time>
      </trkpt>
      <trkpt lat="48.68551" lon="2.46348">
        <ele>79</ele>
        <time>2019-01-23T10:50:32Z</time>
      </trkpt>
      <trkpt lat="48.68554" lon="2.46354">
        <ele>79</ele>
        <time>2019-01-23T10:50:35Z</time>
      </trkpt>
      <trkpt lat="48.68558" lon="2.46358">
        <ele>79</ele>
        <time>2019-01-23T10:50:38Z</time>
      </trkpt>
      <trkpt lat="48.68562" lon="2.46363">
        <ele>79.1</ele>
        <time>2019-01-23T10:50:42Z</time>
      </trkpt>
      <trkpt lat="48.68565" lon="2.46371">
        <ele>79.1</ele>
        <time>2019-01-23T10:50:45Z</time>
      </trkpt>
      <trkpt lat="48.68566" lon="2.46378">
        <ele>79.1</ele>
        <time>2019-01-23T10:50:49Z</time>
      </trkpt>
      <trkpt lat="48.6857" lon="2.46382">
        <ele>79.2</ele>
        <time>2019-01-23T10:50:53Z</time>
      </trkpt>
      <trkpt lat="48.68575" lon="2.46387">
        <ele>79.2</ele>
        <time>2019-01-23T10:50:56Z</time>
      </trkpt>
      <trkpt lat="48.6858" lon="2.46393">
        <ele>79.3</ele>
        <time>2019-01-23T10:50:59Z</time>
      </trkpt>
      <trkpt lat="48.68585" lon="2.46399">
        <ele>79.3</ele>
        <time>2019-01-23T10:51:02Z</time>
      </trkpt>
      <trkpt lat="48.68587" lon="2.46405">
        <ele>79.3</ele>
        <time>2019-01-23T10:51:07Z</time>
      </trkpt>
      <trkpt lat="48.68587" lon="2.46414">
        <ele>79.4</ele>
        <time>2019-01-23T10:51:11Z</time>
      </trkpt>
      <trkpt lat="48.68588" lon="2.46422">
        <ele>79.4</ele>
        <time>2019-01-23T10:51:14Z</time>
      </trkpt>
      <trkpt lat="48.68591" lon="2.46429">
        <ele>79.5</ele>
        <time>2019-01-23T10:51:20Z</time>
      </trkpt>
      <trkpt lat="48.68594" lon="2.46437">
        <ele>79.5</ele>
        <time>2019-01-23T10:51:24Z</time>
      </trkpt>
      <trkpt lat="48.68596" lon="2.46445">
        <ele>79.6</ele>
        <time>2019-01-23T10:51:28Z</time>
      </trkpt>
      <trkpt lat="48.68599" lon="2.46454">
        <ele>79.6</ele>
        <time>2019-01-23T10:51:33Z</time>
      </trkpt>
      <trkpt lat="48.68598" lon="2.46462">
        <ele>79.7</ele>
        <time>2019-01-23T10:51:37Z</time>
      </trkpt>
      <trkpt lat="48.68601" lon="2.46467">
        <ele>79.7</ele>
        <time>2019-01-23T10:51:42Z</time>
      </trkpt>
      <trkpt lat="48.68604" lon="2.46473">
        <ele>79.8</ele>
        <time>2019-01-23T10:51:46Z</time>
      </trkpt>
      <trkpt lat="48.68607" lon="2.46481">
        <ele>79.8</ele>
        <time>2019-01-23T10:51:51Z</time>
      </trkpt>
      <trkpt lat="48.68609" lon="2.46488">
        <ele>79.8</ele>
        <time>2019-01-23T10:51:54Z</time>
      </trkpt>
      <trkpt lat="48.68611" lon="2.46494">
        <ele>79.9</ele>
        <time>2019-01-23T10:51:58Z</time>
      </trkpt>
      <trkpt lat="48.68612" lon="2.46502">
        <ele>79.9</ele>
        <time>2019-01-23T10:52:05Z</time>
      </trkpt>
      <trkpt lat="48.68613" lon="2.46509">
        <ele>80</ele>
        <time>2019-01-23T10:52:11Z</time>
      </trkpt>
      <trkpt lat="48.68614" lon="2.46516">
        <ele>80</ele>
        <time>2019-01-23T10:52:16Z</time>
      </trkpt>
      <trkpt lat="48.68617" lon="2.46521">
        <ele>80.1</ele>
        <time>2019-01-23T10:52:20Z</time>
      </trkpt>
      <trkpt lat="48.6862" lon="2.46527">
        <ele>80.1</ele>
        <time>2019-01-23T10:52:24Z</time>
      </trkpt>
      <trkpt lat="48.68623" lon="2.46534">
        <ele>80.1</ele>
        <time>2019-01-23T10:52:30Z</time>
      </trkpt>
      <trkpt lat="48.68625" lon="2.46541">
        <ele>80.1</ele>
        <time>2019-01-23T10:52:34Z</time>
      </trkpt>
      <trkpt lat="48.68628" lon="2.46548">
        <ele>80.2</ele>
        <time>2019-01-23T10:52:39Z</time>
      </trkpt>
      <trkpt lat="48.6863" lon="2.46554">
        <ele>80.2</ele>
        <time>2019-01-23T10:52:43Z</time>
      </trkpt>
      <trkpt lat="48.68633" lon="2.46559">
        <ele>80.2</ele>
        <time>2019-01-23T10:52:47Z</time>
      </trkpt>
      <trkpt lat="48.68636" lon="2.46566">
        <ele>80.2</ele>
        <time>2019-01-23T10:52:52Z</time>
      </trkpt>
      <trkpt lat="48.6864" lon="2.46572">
        <ele>80.2</ele>
        <time>2019-01-23T10:52:57Z</time>
      </trkpt>
      <trkpt lat="48.68641" lon="2.46578">
        <ele>80.3</ele>
        <time>2019-01-23T10:53:02Z</time>
      </trkpt>
      <trkpt lat="48.68643" lon="2.46586">
        <ele>80.3</ele>
        <time>2019-01-23T10:53:05Z</time>
      </trkpt>
      <trkpt lat="48.68646" lon="2.46592">
        <ele>80.3</ele>
        <time>2019-01-23T10:53:09Z</time>
      </trkpt>
      <trkpt lat="48.68649" lon="2.46597">
        <ele>80.4</ele>
        <time>2019-01-23T10:53:13Z</time>
      </trkpt>
      <trkpt lat="48.68653" lon="2.46605">
        <ele>80.4</ele>
        <time>2019-01-23T10:53:16Z</time>
      </trkpt>
      <trkpt lat="48.68655" lon="2.46612">
        <ele>80.5</ele>
        <time>2019-01-23T10:53:20Z</time>
      </trkpt>
      <trkpt lat="48.68658" lon="2.46617">
        <ele>80.5</ele>
        <time>2019-01-23T10:53:26Z</time>
      </trkpt>
      <trkpt lat="48.68662" lon="2.46622">
        <ele>80.6</ele>
        <time>2019-01-23T10:53:30Z</time>
      </trkpt>
      <trkpt lat="48.68667" lon="2.46626">
        <ele>80.6</ele>
        <time>2019-01-23T10:53:35Z</time>
      </trkpt>
      <trkpt lat="48.68671" lon="2.46629">
        <ele>80.7</ele>
        <time>2019-01-23T10:53:41Z</time>
      </trkpt>
      <trkpt lat="48.68676" lon="2.46633">
        <ele>80.8</ele>
        <time>2019-01-23T10:53:45Z</time>
      </trkpt>
      <trkpt lat="48.68681" lon="2.46636">
        <ele>80.9</ele>
        <time>2019-01-23T10:53:52Z</time>
      </trkpt>
      <trkpt lat="48.68685" lon="2.46641">
        <ele>81.1</ele>
        <time>2019-01-23T10:53:57Z</time>
      </trkpt>
      <trkpt lat="48.6869" lon="2.46639">
        <ele>81.3</ele>
        <time>2019-01-23T10:54:07Z</time>
      </trkpt>
      <trkpt lat="48.68695" lon="2.46637">
        <ele>81.4</ele>
        <time>2019-01-23T10:54:13Z</time>
      </trkpt>
      <trkpt lat="48.68699" lon="2.46638">
        <ele>83.4</ele>
        <time>2019-01-23T10:54:35Z</time>
      </trkpt>
      <trkpt lat="48.687" lon="2.46631">
        <ele>85.3</ele>
        <time>2019-01-23T10:54:54Z</time>
      </trkpt>
      <trkpt lat="48.68703" lon="2.46626">
        <ele>86.7</ele>
        <time>2019-01-23T10:55:34Z</time>
      </trkpt>
      <trkpt lat="48.68706" lon="2.46619">
        <ele>87.8</ele>
        <time>2019-01-23T10:55:47Z</time>
      </trkpt>
      <trkpt lat="48.68702" lon="2.46631">
        <ele>89.4</ele>
        <time>2019-01-23T11:07:18Z</time>
      </trkpt>
      <trkpt lat="48.68701" lon="2.46625">
        <ele>89.7</ele>
        <time>2019-01-23T11:07:28Z</time>
      </trkpt>
      <trkpt lat="48.68705" lon="2.46627">
        <ele>89.5</ele>
        <time>2019-01-23T11:07:41Z</time>
      </trkpt>
      <trkpt lat="48.68708" lon="2.46621">
        <ele>88.3</ele>
        <time>2019-01-23T11:08:08Z</time>
      </trkpt>
      <trkpt lat="48.68709" lon="2.46628">
        <ele>87.4</ele>
        <time>2019-01-23T11:10:42Z</time>
      </trkpt>
      <trkpt lat="48.68704" lon="2.46629">
        <ele>85.9</ele>
        <time>2019-01-23T11:12:16Z</time>
      </trkpt>
      <trkpt lat="48.68707" lon="2.46623">
        <ele>83.9</ele>
        <time>2019-01-23T11:17:54Z</time>
      </trkpt>
      <trkpt lat="48.68704" lon="2.46618">
        <ele>82.2</ele>
        <time>2019-01-23T11:25:22Z</time>
      </trkpt>
      <trkpt lat="48.68706" lon="2.46625">
        <ele>81.9</ele>
        <time>2019-01-23T11:26:28Z</time>
      </trkpt>
      <trkpt lat="48.68707" lon="2.46632">
        <ele>81.7</ele>
        <time>2019-01-23T11:26:50Z</time>
      </trkpt>
      <trkpt lat="48.68709" lon="2.46625">
        <ele>81.6</ele>
        <time>2019-01-23T11:27:15Z</time>
      </trkpt>
      <trkpt lat="48.68712" lon="2.4662">
        <ele>81.4</ele>
        <time>2019-01-23T11:27:29Z</time>
      </trkpt>
      <trkpt lat="48.68713" lon="2.46629">
        <ele>81.4</ele>
        <time>2019-01-23T11:27:49Z</time>
      </trkpt>
      <trkpt lat="48.68713" lon="2.46636">
        <ele>81.3</ele>
        <time>2019-01-23T11:27:52Z</time>
      </trkpt>
      <trkpt lat="48.68711" lon="2.46628">
        <ele>81.2</ele>
        <time>2019-01-23T11:28:14Z</time>
      </trkpt>
      <trkpt lat="48.68713" lon="2.4662">
        <ele>81</ele>
        <time>2019-01-23T11:28:17Z</time>
      </trkpt>
      <trkpt lat="48.68718" lon="2.46614">
        <ele>80.7</ele>
        <time>2019-01-23T11:28:20Z</time>
      </trkpt>
      <trkpt lat="48.68722" lon="2.4661">
        <ele>80.5</ele>
        <time>2019-01-23T11:28:24Z</time>
      </trkpt>
      <trkpt lat="48.68723" lon="2.46617">
        <ele>80.2</ele>
        <time>2019-01-23T11:29:15Z</time>
      </trkpt>
      <trkpt lat="48.68723" lon="2.46625">
        <ele>79.9</ele>
        <time>2019-01-23T11:29:22Z</time>
      </trkpt>
      <trkpt lat="48.68721" lon="2.46634">
        <ele>79.8</ele>
        <time>2019-01-23T11:29:25Z</time>
      </trkpt>
      <trkpt lat="48.68718" lon="2.46641">
        <ele>79.6</ele>
        <time>2019-01-23T11:29:28Z</time>
      </trkpt>
      <trkpt lat="48.68716" lon="2.46648">
        <ele>79.5</ele>
        <time>2019-01-23T11:29:36Z</time>
      </trkpt>
      <trkpt lat="48.68716" lon="2.46655">
        <ele>79.4</ele>
        <time>2019-01-23T11:29:41Z</time>
      </trkpt>
      <trkpt lat="48.68717" lon="2.46663">
        <ele>79.3</ele>
        <time>2019-01-23T11:29:49Z</time>
      </trkpt>
      <trkpt lat="48.6872" lon="2.46668">
        <ele>79.2</ele>
        <time>2019-01-23T11:29:56Z</time>
      </trkpt>
      <trkpt lat="48.68726" lon="2.46671">
        <ele>79.1</ele>
        <time>2019-01-23T11:30:03Z</time>
      </trkpt>
      <trkpt lat="48.68731" lon="2.46674">
        <ele>79.1</ele>
        <time>2019-01-23T11:30:07Z</time>
      </trkpt>
      <trkpt lat="48.68735" lon="2.46673">
        <ele>79</ele>
        <time>2019-01-23T11:30:11Z</time>
      </trkpt>
      <trkpt lat="48.68741" lon="2.46669">
        <ele>79</ele>
        <time>2019-01-23T11:30:17Z</time>
      </trkpt>
      <trkpt lat="48.68746" lon="2.46667">
        <ele>79</ele>
        <time>2019-01-23T11:30:22Z</time>
      </trkpt>
      <trkpt lat="48.6875" lon="2.46665">
        <ele>79</ele>
        <time>2019-01-23T11:30:27Z</time>
      </trkpt>
      <trkpt lat="48.68755" lon="2.46667">
        <ele>79</ele>
        <time>2019-01-23T11:30:33Z</time>
      </trkpt>
      <trkpt lat="48.6876" lon="2.4667">
        <ele>79</ele>
        <time>2019-01-23T11:30:41Z</time>
      </trkpt>
      <trkpt lat="48.68765" lon="2.46671">
        <ele>79</ele>
        <time>2019-01-23T11:30:46Z</time>
      </trkpt>
      <trkpt lat="48.6877" lon="2.46675">
        <ele>79.1</ele>
        <time>2019-01-23T11:30:52Z</time>
      </trkpt>
      <trkpt lat="48.68775" lon="2.46678">
        <ele>79.1</ele>
        <time>2019-01-23T11:30:57Z</time>
      </trkpt>
      <trkpt lat="48.6878" lon="2.46683">
        <ele>79.1</ele>
        <time>2019-01-23T11:31:02Z</time>
      </trkpt>
      <trkpt lat="48.68784" lon="2.46684">
        <ele>79.1</ele>
        <time>2019-01-23T11:31:05Z</time>
      </trkpt>
      <trkpt lat="48.68789" lon="2.46684">
        <ele>79.1</ele>
        <time>2019-01-23T11:31:12Z</time>
      </trkpt>
      <trkpt lat="48.68794" lon="2.46685">
        <ele>79.2</ele>
        <time>2019-01-23T11:31:16Z</time>
      </trkpt>
      <trkpt lat="48.68799" lon="2.46686">
        <ele>79.2</ele>
        <time>2019-01-23T11:31:20Z</time>
      </trkpt>
      <trkpt lat="48.68804" lon="2.46688">
        <ele>79.2</ele>
        <time>2019-01-23T11:31:25Z</time>
      </trkpt>
      <trkpt lat="48.68809" lon="2.4669">
        <ele>79.2</ele>
        <time>2019-01-23T11:31:28Z</time>
      </trkpt>
      <trkpt lat="48.68814" lon="2.4669">
        <ele>79.3</ele>
        <time>2019-01-23T11:31:30Z</time>
      </trkpt>
      <trkpt lat="48.68819" lon="2.4669">
        <ele>79.4</ele>
        <time>2019-01-23T11:31:32Z</time>
      </trkpt>
      <trkpt lat="48.68825" lon="2.4669">
        <ele>79.4</ele>
        <time>2019-01-23T11:31:38Z</time>
      </trkpt>
      <trkpt lat="48.68829" lon="2.46689">
        <ele>79.5</ele>
        <time>2019-01-23T11:31:42Z</time>
      </trkpt>
      <trkpt lat="48.68835" lon="2.46691">
        <ele>79.6</ele>
        <time>2019-01-23T11:31:49Z</time>
      </trkpt>
      <trkpt lat="48.6884" lon="2.46694">
        <ele>79.6</ele>
        <time>2019-01-23T11:31:55Z</time>
      </trkpt>
      <trkpt lat="48.68845" lon="2.46698">
        <ele>79.7</ele>
        <time>2019-01-23T11:32:00Z</time>
      </trkpt>
      <trkpt lat="48.68851" lon="2.46698">
        <ele>79.8</ele>
        <time>2019-01-23T11:32:04Z</time>
      </trkpt>
      <trkpt lat="48.68855" lon="2.46703">
        <ele>79.9</ele>
        <time>2019-01-23T11:32:08Z</time>
      </trkpt>
      <trkpt lat="48.6886" lon="2.46706">
        <ele>80</ele>
        <time>2019-01-23T11:32:16Z</time>
      </trkpt>
      <trkpt lat="48.68864" lon="2.4671">
        <ele>80</ele>
        <time>2019-01-23T11:32:21Z</time>
      </trkpt>
      <trkpt lat="48.68869" lon="2.4671">
        <ele>80.1</ele>
        <time>2019-01-23T11:32:25Z</time>
      </trkpt>
      <trkpt lat="48.68875" lon="2.46711">
        <ele>80.2</ele>
        <time>2019-01-23T11:32:30Z</time>
      </trkpt>
      <trkpt lat="48.6888" lon="2.46712">
        <ele>80.3</ele>
        <time>2019-01-23T11:32:35Z</time>
      </trkpt>
      <trkpt lat="48.68886" lon="2.46714">
        <ele>80.4</ele>
        <time>2019-01-23T11:32:39Z</time>
      </trkpt>
      <trkpt lat="48.6889" lon="2.46717">
        <ele>80.5</ele>
        <time>2019-01-23T11:32:44Z</time>
      </trkpt>
      <trkpt lat="48.68895" lon="2.4672">
        <ele>80.6</ele>
        <time>2019-01-23T11:32:50Z</time>
      </trkpt>
      <trkpt lat="48.68899" lon="2.46722">
        <ele>80.7</ele>
        <time>2019-01-23T11:32:58Z</time>
      </trkpt>
      <trkpt lat="48.68904" lon="2.46724">
        <ele>80.8</ele>
        <time>2019-01-23T11:33:04Z</time>
      </trkpt>
      <trkpt lat="48.6891" lon="2.46726">
        <ele>80.9</ele>
        <time>2019-01-23T11:33:08Z</time>
      </trkpt>
      <trkpt lat="48.68915" lon="2.46728">
        <ele>81</ele>
        <time>2019-01-23T11:33:14Z</time>
      </trkpt>
      <trkpt lat="48.6892" lon="2.46728">
        <ele>81</ele>
        <time>2019-01-23T11:33:18Z</time>
      </trkpt>
      <trkpt lat="48.68926" lon="2.46728">
        <ele>81.1</ele>
        <time>2019-01-23T11:33:21Z</time>
      </trkpt>
      <trkpt lat="48.68931" lon="2.46726">
        <ele>81.2</ele>
        <time>2019-01-23T11:33:29Z</time>
      </trkpt>
      <trkpt lat="48.68937" lon="2.46725">
        <ele>81.2</ele>
        <time>2019-01-23T11:33:32Z</time>
      </trkpt>
      <trkpt lat="48.68942" lon="2.46724">
        <ele>81.3</ele>
        <time>2019-01-23T11:33:36Z</time>
      </trkpt>
      <trkpt lat="48.68948" lon="2.46726">
        <ele>81.3</ele>
        <time>2019-01-23T11:33:40Z</time>
      </trkpt>
      <trkpt lat="48.68952" lon="2.46728">
        <ele>81.4</ele>
        <time>2019-01-23T11:33:45Z</time>
      </trkpt>
      <trkpt lat="48.68957" lon="2.46731">
        <ele>81.5</ele>
        <time>2019-01-23T11:33:49Z</time>
      </trkpt>
      <trkpt lat="48.68959" lon="2.46737">
        <ele>81.5</ele>
        <time>2019-01-23T11:33:54Z</time>
      </trkpt>
      <trkpt lat="48.68961" lon="2.46744">
        <ele>81.7</ele>
        <time>2019-01-23T11:34:02Z</time>
      </trkpt>
      <trkpt lat="48.68964" lon="2.46749">
        <ele>81.8</ele>
        <time>2019-01-23T11:34:06Z</time>
      </trkpt>
      <trkpt lat="48.68969" lon="2.46752">
        <ele>82</ele>
        <time>2019-01-23T11:34:10Z</time>
      </trkpt>
      <trkpt lat="48.68974" lon="2.46753">
        <ele>82.1</ele>
        <time>2019-01-23T11:34:20Z</time>
      </trkpt>
      <trkpt lat="48.68994" lon="2.46768">
        <ele>82.2</ele>
        <time>2019-01-23T11:34:43Z</time>
      </trkpt>
      <trkpt lat="48.68999" lon="2.46765">
        <ele>82.3</ele>
        <time>2019-01-23T11:34:45Z</time>
      </trkpt>
      <trkpt lat="48.69005" lon="2.46767">
        <ele>82.4</ele>
        <time>2019-01-23T11:34:48Z</time>
      </trkpt>
      <trkpt lat="48.69009" lon="2.4677">
        <ele>82.4</ele>
        <time>2019-01-23T11:34:53Z</time>
      </trkpt>
      <trkpt lat="48.69015" lon="2.4677">
        <ele>82.4</ele>
        <time>2019-01-23T11:35:02Z</time>
      </trkpt>
      <trkpt lat="48.6902" lon="2.46776">
        <ele>82.4</ele>
        <time>2019-01-23T11:35:08Z</time>
      </trkpt>
      <trkpt lat="48.69024" lon="2.4678">
        <ele>82.4</ele>
        <time>2019-01-23T11:35:10Z</time>
      </trkpt>
      <trkpt lat="48.6903" lon="2.46782">
        <ele>82.5</ele>
        <time>2019-01-23T11:35:15Z</time>
      </trkpt>
      <trkpt lat="48.69035" lon="2.4678">
        <ele>82.5</ele>
        <time>2019-01-23T11:35:21Z</time>
      </trkpt>
      <trkpt lat="48.69039" lon="2.4678">
        <ele>82.5</ele>
        <time>2019-01-23T11:35:25Z</time>
      </trkpt>
      <trkpt lat="48.69045" lon="2.4678">
        <ele>82.6</ele>
        <time>2019-01-23T11:35:30Z</time>
      </trkpt>
      <trkpt lat="48.69049" lon="2.46785">
        <ele>82.7</ele>
        <time>2019-01-23T11:35:34Z</time>
      </trkpt>
      <trkpt lat="48.69053" lon="2.46788">
        <ele>82.7</ele>
        <time>2019-01-23T11:35:40Z</time>
      </trkpt>
      <trkpt lat="48.69059" lon="2.46788">
        <ele>82.8</ele>
        <time>2019-01-23T11:35:43Z</time>
      </trkpt>
      <trkpt lat="48.69064" lon="2.46788">
        <ele>82.9</ele>
        <time>2019-01-23T11:35:46Z</time>
      </trkpt>
      <trkpt lat="48.69069" lon="2.4679">
        <ele>83</ele>
        <time>2019-01-23T11:35:54Z</time>
      </trkpt>
      <trkpt lat="48.69072" lon="2.46796">
        <ele>83.1</ele>
        <time>2019-01-23T11:36:00Z</time>
      </trkpt>
      <trkpt lat="48.69076" lon="2.468">
        <ele>83.1</ele>
        <time>2019-01-23T11:36:04Z</time>
      </trkpt>
      <trkpt lat="48.6908" lon="2.46805">
        <ele>83.2</ele>
        <time>2019-01-23T11:36:09Z</time>
      </trkpt>
      <trkpt lat="48.69084" lon="2.4681">
        <ele>83.2</ele>
        <time>2019-01-23T11:36:13Z</time>
      </trkpt>
      <trkpt lat="48.69089" lon="2.46812">
        <ele>83.3</ele>
        <time>2019-01-23T11:36:17Z</time>
      </trkpt>
      <trkpt lat="48.69093" lon="2.46815">
        <ele>83.3</ele>
        <time>2019-01-23T11:36:24Z</time>
      </trkpt>
      <trkpt lat="48.69098" lon="2.46816">
        <ele>83.4</ele>
        <time>2019-01-23T11:36:30Z</time>
      </trkpt>
      <trkpt lat="48.69102" lon="2.4682">
        <ele>83.4</ele>
        <time>2019-01-23T11:36:34Z</time>
      </trkpt>
      <trkpt lat="48.69107" lon="2.46822">
        <ele>83.4</ele>
        <time>2019-01-23T11:36:40Z</time>
      </trkpt>
      <trkpt lat="48.69112" lon="2.46824">
        <ele>83.5</ele>
        <time>2019-01-23T11:36:45Z</time>
      </trkpt>
      <trkpt lat="48.69116" lon="2.46827">
        <ele>83.5</ele>
        <time>2019-01-23T11:36:49Z</time>
      </trkpt>
      <trkpt lat="48.69122" lon="2.46828">
        <ele>83.5</ele>
        <time>2019-01-23T11:36:55Z</time>
      </trkpt>
      <trkpt lat="48.69127" lon="2.46828">
        <ele>83.5</ele>
        <time>2019-01-23T11:36:59Z</time>
      </trkpt>
      <trkpt lat="48.69132" lon="2.46827">
        <ele>83.6</ele>
        <time>2019-01-23T11:37:05Z</time>
      </trkpt>
      <trkpt lat="48.69137" lon="2.46829">
        <ele>83.6</ele>
        <time>2019-01-23T11:37:13Z</time>
      </trkpt>
      <trkpt lat="48.69141" lon="2.46833">
        <ele>83.6</ele>
        <time>2019-01-23T11:37:21Z</time>
      </trkpt>
      <trkpt lat="48.69145" lon="2.46836">
        <ele>83.6</ele>
        <time>2019-01-23T11:37:24Z</time>
      </trkpt>
      <trkpt lat="48.69149" lon="2.4684">
        <ele>83.6</ele>
        <time>2019-01-23T11:37:27Z</time>
      </trkpt>
      <trkpt lat="48.69154" lon="2.46843">
        <ele>83.6</ele>
        <time>2019-01-23T11:37:31Z</time>
      </trkpt>
      <trkpt lat="48.69158" lon="2.46847">
        <ele>83.6</ele>
        <time>2019-01-23T11:37:37Z</time>
      </trkpt>
      <trkpt lat="48.69162" lon="2.46851">
        <ele>83.6</ele>
        <time>2019-01-23T11:37:40Z</time>
      </trkpt>
      <trkpt lat="48.69167" lon="2.46853">
        <ele>83.7</ele>
        <time>2019-01-23T11:37:43Z</time>
      </trkpt>
      <trkpt lat="48.69171" lon="2.46857">
        <ele>83.7</ele>
        <time>2019-01-23T11:37:46Z</time>
      </trkpt>
      <trkpt lat="48.69174" lon="2.46863">
        <ele>83.7</ele>
        <time>2019-01-23T11:37:52Z</time>
      </trkpt>
      <trkpt lat="48.69179" lon="2.46868">
        <ele>83.7</ele>
        <time>2019-01-23T11:37:59Z</time>
      </trkpt>
      <trkpt lat="48.69183" lon="2.46872">
        <ele>83.7</ele>
        <time>2019-01-23T11:38:03Z</time>
      </trkpt>
      <trkpt lat="48.69187" lon="2.46876">
        <ele>83.7</ele>
        <time>2019-01-23T11:38:08Z</time>
      </trkpt>
      <trkpt lat="48.69192" lon="2.4688">
        <ele>83.6</ele>
        <time>2019-01-23T11:38:13Z</time>
      </trkpt>
      <trkpt lat="48.69196" lon="2.46884">
        <ele>83.6</ele>
        <time>2019-01-23T11:38:17Z</time>
      </trkpt>
      <trkpt lat="48.692" lon="2.46887">
        <ele>83.7</ele>
        <time>2019-01-23T11:38:25Z</time>
      </trkpt>
      <trkpt lat="48.69205" lon="2.46889">
        <ele>83.7</ele>
        <time>2019-01-23T11:38:29Z</time>
      </trkpt>
      <trkpt lat="48.69209" lon="2.46892">
        <ele>83.7</ele>
        <time>2019-01-23T11:38:34Z</time>
      </trkpt>
      <trkpt lat="48.69214" lon="2.46892">
        <ele>83.7</ele>
        <time>2019-01-23T11:38:41Z</time>
      </trkpt>
      <trkpt lat="48.69219" lon="2.46894">
        <ele>83.7</ele>
        <time>2019-01-23T11:38:47Z</time>
      </trkpt>
      <trkpt lat="48.69224" lon="2.46896">
        <ele>83.7</ele>
        <time>2019-01-23T11:38:51Z</time>
      </trkpt>
      <trkpt lat="48.69228" lon="2.46899">
        <ele>83.7</ele>
        <time>2019-01-23T11:38:56Z</time>
      </trkpt>
      <trkpt lat="48.69233" lon="2.46901">
        <ele>83.7</ele>
        <time>2019-01-23T11:39:00Z</time>
      </trkpt>
      <trkpt lat="48.69238" lon="2.46904">
        <ele>83.7</ele>
        <time>2019-01-23T11:39:07Z</time>
      </trkpt>
      <trkpt lat="48.69243" lon="2.46906">
        <ele>83.7</ele>
        <time>2019-01-23T11:39:11Z</time>
      </trkpt>
      <trkpt lat="48.69247" lon="2.4691">
        <ele>83.7</ele>
        <time>2019-01-23T11:39:15Z</time>
      </trkpt>
      <trkpt lat="48.69252" lon="2.46912">
        <ele>83.7</ele>
        <time>2019-01-23T11:39:20Z</time>
      </trkpt>
      <trkpt lat="48.69257" lon="2.46912">
        <ele>83.8</ele>
        <time>2019-01-23T11:39:26Z</time>
      </trkpt>
      <trkpt lat="48.69259" lon="2.46919">
        <ele>83.8</ele>
        <time>2019-01-23T11:39:30Z</time>
      </trkpt>
      <trkpt lat="48.69263" lon="2.46924">
        <ele>83.8</ele>
        <time>2019-01-23T11:39:34Z</time>
      </trkpt>
      <trkpt lat="48.69267" lon="2.46927">
        <ele>83.8</ele>
        <time>2019-01-23T11:39:38Z</time>
      </trkpt>
      <trkpt lat="48.69272" lon="2.46929">
        <ele>83.9</ele>
        <time>2019-01-23T11:39:46Z</time>
      </trkpt>
      <trkpt lat="48.69276" lon="2.46932">
        <ele>83.9</ele>
        <time>2019-01-23T11:39:50Z</time>
      </trkpt>
      <trkpt lat="48.69281" lon="2.46939">
        <ele>83.9</ele>
        <time>2019-01-23T11:39:54Z</time>
      </trkpt>
      <trkpt lat="48.69285" lon="2.46942">
        <ele>83.9</ele>
        <time>2019-01-23T11:39:58Z</time>
      </trkpt>
      <trkpt lat="48.6929" lon="2.46944">
        <ele>83.9</ele>
        <time>2019-01-23T11:40:04Z</time>
      </trkpt>
      <trkpt lat="48.69295" lon="2.46947">
        <ele>83.9</ele>
        <time>2019-01-23T11:40:07Z</time>
      </trkpt>
      <trkpt lat="48.69299" lon="2.46951">
        <ele>83.8</ele>
        <time>2019-01-23T11:40:10Z</time>
      </trkpt>
      <trkpt lat="48.69304" lon="2.46955">
        <ele>83.8</ele>
        <time>2019-01-23T11:40:14Z</time>
      </trkpt>
      <trkpt lat="48.69308" lon="2.46959">
        <ele>83.8</ele>
        <time>2019-01-23T11:40:21Z</time>
      </trkpt>
      <trkpt lat="48.69311" lon="2.46964">
        <ele>83.8</ele>
        <time>2019-01-23T11:40:27Z</time>
      </trkpt>
      <trkpt lat="48.69315" lon="2.46969">
        <ele>83.8</ele>
        <time>2019-01-23T11:40:34Z</time>
      </trkpt>
      <trkpt lat="48.69319" lon="2.46974">
        <ele>83.7</ele>
        <time>2019-01-23T11:40:44Z</time>
      </trkpt>
      <trkpt lat="48.69324" lon="2.46979">
        <ele>83.7</ele>
        <time>2019-01-23T11:40:48Z</time>
      </trkpt>
      <trkpt lat="48.69327" lon="2.46986">
        <ele>83.7</ele>
        <time>2019-01-23T11:40:55Z</time>
      </trkpt>
      <trkpt lat="48.6933" lon="2.46993">
        <ele>83.7</ele>
        <time>2019-01-23T11:40:59Z</time>
      </trkpt>
      <trkpt lat="48.69335" lon="2.46995">
        <ele>83.7</ele>
        <time>2019-01-23T11:41:04Z</time>
      </trkpt>
      <trkpt lat="48.69338" lon="2.47">
        <ele>83.7</ele>
        <time>2019-01-23T11:41:07Z</time>
      </trkpt>
      <trkpt lat="48.69343" lon="2.47003">
        <ele>83.7</ele>
        <time>2019-01-23T11:41:10Z</time>
      </trkpt>
      <trkpt lat="48.69346" lon="2.47008">
        <ele>83.7</ele>
        <time>2019-01-23T11:41:14Z</time>
      </trkpt>
      <trkpt lat="48.69351" lon="2.47012">
        <ele>83.7</ele>
        <time>2019-01-23T11:41:18Z</time>
      </trkpt>
      <trkpt lat="48.69353" lon="2.47019">
        <ele>83.7</ele>
        <time>2019-01-23T11:41:24Z</time>
      </trkpt>
      <trkpt lat="48.69354" lon="2.47028">
        <ele>83.6</ele>
        <time>2019-01-23T11:41:29Z</time>
      </trkpt>
      <trkpt lat="48.69357" lon="2.47035">
        <ele>83.6</ele>
        <time>2019-01-23T11:41:34Z</time>
      </trkpt>
      <trkpt lat="48.69358" lon="2.47043">
        <ele>83.6</ele>
        <time>2019-01-23T11:41:40Z</time>
      </trkpt>
      <trkpt lat="48.69363" lon="2.47046">
        <ele>83.6</ele>
        <time>2019-01-23T11:41:43Z</time>
      </trkpt>
      <trkpt lat="48.69366" lon="2.47052">
        <ele>83.6</ele>
        <time>2019-01-23T11:41:47Z</time>
      </trkpt>
      <trkpt lat="48.69369" lon="2.47058">
        <ele>83.6</ele>
        <time>2019-01-23T11:41:56Z</time>
      </trkpt>
      <trkpt lat="48.69371" lon="2.47066">
        <ele>83.5</ele>
        <time>2019-01-23T11:41:59Z</time>
      </trkpt>
      <trkpt lat="48.69372" lon="2.47073">
        <ele>83.5</ele>
        <time>2019-01-23T11:42:03Z</time>
      </trkpt>
      <trkpt lat="48.69371" lon="2.47081">
        <ele>83.5</ele>
        <time>2019-01-23T11:42:08Z</time>
      </trkpt>
      <trkpt lat="48.69371" lon="2.47088">
        <ele>83.5</ele>
        <time>2019-01-23T11:42:13Z</time>
      </trkpt>
      <trkpt lat="48.69372" lon="2.47097">
        <ele>83.5</ele>
        <time>2019-01-23T11:42:19Z</time>
      </trkpt>
      <trkpt lat="48.69376" lon="2.47101">
        <ele>83.5</ele>
        <time>2019-01-23T11:42:25Z</time>
      </trkpt>
      <trkpt lat="48.6938" lon="2.47104">
        <ele>83.5</ele>
        <time>2019-01-23T11:42:31Z</time>
      </trkpt>
      <trkpt lat="48.69381" lon="2.47112">
        <ele>83.5</ele>
        <time>2019-01-23T11:42:36Z</time>
      </trkpt>
      <trkpt lat="48.69381" lon="2.47119">
        <ele>83.5</ele>
        <time>2019-01-23T11:42:41Z</time>
      </trkpt>
      <trkpt lat="48.6938" lon="2.47128">
        <ele>83.5</ele>
        <time>2019-01-23T11:42:45Z</time>
      </trkpt>
      <trkpt lat="48.69381" lon="2.47135">
        <ele>83.4</ele>
        <time>2019-01-23T11:42:48Z</time>
      </trkpt>
      <trkpt lat="48.69382" lon="2.47142">
        <ele>83.4</ele>
        <time>2019-01-23T11:42:55Z</time>
      </trkpt>
      <trkpt lat="48.69383" lon="2.4715">
        <ele>83.4</ele>
        <time>2019-01-23T11:43:00Z</time>
      </trkpt>
      <trkpt lat="48.69386" lon="2.47157">
        <ele>83.4</ele>
        <time>2019-01-23T11:43:06Z</time>
      </trkpt>
      <trkpt lat="48.69386" lon="2.47164">
        <ele>83.3</ele>
        <time>2019-01-23T11:43:13Z</time>
      </trkpt>
      <trkpt lat="48.69386" lon="2.47171">
        <ele>83.3</ele>
        <time>2019-01-23T11:43:18Z</time>
      </trkpt>
      <trkpt lat="48.69386" lon="2.47179">
        <ele>83.3</ele>
        <time>2019-01-23T11:43:22Z</time>
      </trkpt>
      <trkpt lat="48.69389" lon="2.47184">
        <ele>83.3</ele>
        <time>2019-01-23T11:43:26Z</time>
      </trkpt>
      <trkpt lat="48.6939" lon="2.47192">
        <ele>83.2</ele>
        <time>2019-01-23T11:43:31Z</time>
      </trkpt>
      <trkpt lat="48.69393" lon="2.47199">
        <ele>83.2</ele>
        <time>2019-01-23T11:43:35Z</time>
      </trkpt>
      <trkpt lat="48.69396" lon="2.47205">
        <ele>83.1</ele>
        <time>2019-01-23T11:43:39Z</time>
      </trkpt>
      <trkpt lat="48.694" lon="2.47211">
        <ele>83.1</ele>
        <time>2019-01-23T11:43:43Z</time>
      </trkpt>
      <trkpt lat="48.69403" lon="2.47216">
        <ele>83.1</ele>
        <time>2019-01-23T11:43:49Z</time>
      </trkpt>
      <trkpt lat="48.69407" lon="2.4722">
        <ele>83.1</ele>
        <time>2019-01-23T11:43:53Z</time>
      </trkpt>
      <trkpt lat="48.6941" lon="2.47227">
        <ele>83.1</ele>
        <time>2019-01-23T11:43:57Z</time>
      </trkpt>
      <trkpt lat="48.69412" lon="2.47233">
        <ele>83.1</ele>
        <time>2019-01-23T11:44:01Z</time>
      </trkpt>
      <trkpt lat="48.69413" lon="2.4724">
        <ele>83.1</ele>
        <time>2019-01-23T11:44:07Z</time>
      </trkpt>
      <trkpt lat="48.69415" lon="2.47249">
        <ele>83</ele>
        <time>2019-01-23T11:44:12Z</time>
      </trkpt>
      <trkpt lat="48.69417" lon="2.47257">
        <ele>83</ele>
        <time>2019-01-23T11:44:15Z</time>
      </trkpt>
      <trkpt lat="48.69418" lon="2.47264">
        <ele>83</ele>
        <time>2019-01-23T11:44:21Z</time>
      </trkpt>
      <trkpt lat="48.69422" lon="2.47269">
        <ele>82.9</ele>
        <time>2019-01-23T11:44:28Z</time>
      </trkpt>
      <trkpt lat="48.69427" lon="2.47271">
        <ele>82.9</ele>
        <time>2019-01-23T11:44:32Z</time>
      </trkpt>
      <trkpt lat="48.69432" lon="2.47272">
        <ele>82.9</ele>
        <time>2019-01-23T11:44:37Z</time>
      </trkpt>
      <trkpt lat="48.69437" lon="2.4727">
        <ele>82.9</ele>
        <time>2019-01-23T11:44:40Z</time>
      </trkpt>
      <trkpt lat="48.69443" lon="2.47268">
        <ele>82.8</ele>
        <time>2019-01-23T11:44:44Z</time>
      </trkpt>
      <trkpt lat="48.69448" lon="2.47265">
        <ele>82.8</ele>
        <time>2019-01-23T11:44:49Z</time>
      </trkpt>
      <trkpt lat="48.69453" lon="2.47262">
        <ele>82.8</ele>
        <time>2019-01-23T11:44:53Z</time>
      </trkpt>
      <trkpt lat="48.69457" lon="2.4726">
        <ele>82.7</ele>
        <time>2019-01-23T11:44:59Z</time>
      </trkpt>
      <trkpt lat="48.69462" lon="2.47255">
        <ele>82.7</ele>
        <time>2019-01-23T11:45:05Z</time>
      </trkpt>
      <trkpt lat="48.69466" lon="2.47252">
        <ele>82.6</ele>
        <time>2019-01-23T11:45:09Z</time>
      </trkpt>
      <trkpt lat="48.69469" lon="2.47247">
        <ele>82.6</ele>
        <time>2019-01-23T11:45:13Z</time>
      </trkpt>
      <trkpt lat="48.69473" lon="2.47242">
        <ele>82.6</ele>
        <time>2019-01-23T11:45:18Z</time>
      </trkpt>
      <trkpt lat="48.69476" lon="2.47237">
        <ele>82.6</ele>
        <time>2019-01-23T11:45:23Z</time>
      </trkpt>
      <trkpt lat="48.69482" lon="2.47239">
        <ele>82.5</ele>
        <time>2019-01-23T11:45:29Z</time>
      </trkpt>
      <trkpt lat="48.69486" lon="2.47238">
        <ele>82.5</ele>
        <time>2019-01-23T11:45:32Z</time>
      </trkpt>
      <trkpt lat="48.69491" lon="2.47236">
        <ele>82.5</ele>
        <time>2019-01-23T11:45:35Z</time>
      </trkpt>
      <trkpt lat="48.69497" lon="2.47236">
        <ele>82.5</ele>
        <time>2019-01-23T11:45:39Z</time>
      </trkpt>
      <trkpt lat="48.69502" lon="2.47235">
        <ele>82.4</ele>
        <time>2019-01-23T11:45:44Z</time>
      </trkpt>
      <trkpt lat="48.69507" lon="2.47235">
        <ele>82.4</ele>
        <time>2019-01-23T11:45:48Z</time>
      </trkpt>
      <trkpt lat="48.69511" lon="2.47231">
        <ele>82.4</ele>
        <time>2019-01-23T11:45:54Z</time>
      </trkpt>
      <trkpt lat="48.69518" lon="2.4723">
        <ele>82.4</ele>
        <time>2019-01-23T11:45:57Z</time>
      </trkpt>
      <trkpt lat="48.69523" lon="2.47231">
        <ele>82.4</ele>
        <time>2019-01-23T11:46:00Z</time>
      </trkpt>
      <trkpt lat="48.69528" lon="2.47231">
        <ele>82.3</ele>
        <time>2019-01-23T11:46:05Z</time>
      </trkpt>
      <trkpt lat="48.69533" lon="2.4723">
        <ele>82.3</ele>
        <time>2019-01-23T11:46:12Z</time>
      </trkpt>
      <trkpt lat="48.69537" lon="2.47229">
        <ele>82.3</ele>
        <time>2019-01-23T11:46:18Z</time>
      </trkpt>
      <trkpt lat="48.69543" lon="2.4723">
        <ele>82.3</ele>
        <time>2019-01-23T11:46:23Z</time>
      </trkpt>
      <trkpt lat="48.69547" lon="2.47227">
        <ele>82.3</ele>
        <time>2019-01-23T11:46:28Z</time>
      </trkpt>
      <trkpt lat="48.69552" lon="2.47224">
        <ele>82.2</ele>
        <time>2019-01-23T11:46:33Z</time>
      </trkpt>
      <trkpt lat="48.69557" lon="2.47226">
        <ele>82.2</ele>
        <time>2019-01-23T11:46:36Z</time>
      </trkpt>
      <trkpt lat="48.69562" lon="2.47223">
        <ele>82.2</ele>
        <time>2019-01-23T11:46:41Z</time>
      </trkpt>
      <trkpt lat="48.69567" lon="2.47222">
        <ele>82.2</ele>
        <time>2019-01-23T11:46:45Z</time>
      </trkpt>
      <trkpt lat="48.69572" lon="2.47221">
        <ele>82.2</ele>
        <time>2019-01-23T11:46:54Z</time>
      </trkpt>
      <trkpt lat="48.69577" lon="2.4722">
        <ele>82.2</ele>
        <time>2019-01-23T11:46:59Z</time>
      </trkpt>
      <trkpt lat="48.69582" lon="2.47218">
        <ele>82.1</ele>
        <time>2019-01-23T11:47:04Z</time>
      </trkpt>
      <trkpt lat="48.69584" lon="2.47212">
        <ele>82.1</ele>
        <time>2019-01-23T11:47:09Z</time>
      </trkpt>
      <trkpt lat="48.69588" lon="2.47207">
        <ele>82.1</ele>
        <time>2019-01-23T11:47:14Z</time>
      </trkpt>
      <trkpt lat="48.69593" lon="2.47202">
        <ele>82.1</ele>
        <time>2019-01-23T11:47:19Z</time>
      </trkpt>
      <trkpt lat="48.69597" lon="2.47197">
        <ele>82.1</ele>
        <time>2019-01-23T11:47:23Z</time>
      </trkpt>
      <trkpt lat="48.69602" lon="2.47193">
        <ele>82.1</ele>
        <time>2019-01-23T11:47:27Z</time>
      </trkpt>
      <trkpt lat="48.69608" lon="2.47193">
        <ele>82.1</ele>
        <time>2019-01-23T11:47:30Z</time>
      </trkpt>
      <trkpt lat="48.69614" lon="2.47195">
        <ele>82.1</ele>
        <time>2019-01-23T11:47:37Z</time>
      </trkpt>
      <trkpt lat="48.69619" lon="2.47195">
        <ele>82</ele>
        <time>2019-01-23T11:47:42Z</time>
      </trkpt>
      <trkpt lat="48.69623" lon="2.47192">
        <ele>82</ele>
        <time>2019-01-23T11:47:54Z</time>
      </trkpt>
      <trkpt lat="48.69628" lon="2.47188">
        <ele>82</ele>
        <time>2019-01-23T11:48:07Z</time>
      </trkpt>
      <trkpt lat="48.69631" lon="2.47182">
        <ele>82</ele>
        <time>2019-01-23T11:48:11Z</time>
      </trkpt>
      <trkpt lat="48.69637" lon="2.47178">
        <ele>82</ele>
        <time>2019-01-23T11:48:14Z</time>
      </trkpt>
      <trkpt lat="48.69642" lon="2.47179">
        <ele>82</ele>
        <time>2019-01-23T11:48:22Z</time>
      </trkpt>
      <trkpt lat="48.69646" lon="2.47175">
        <ele>82</ele>
        <time>2019-01-23T11:48:25Z</time>
      </trkpt>
      <trkpt lat="48.6965" lon="2.47171">
        <ele>81.9</ele>
        <time>2019-01-23T11:48:30Z</time>
      </trkpt>
      <trkpt lat="48.69655" lon="2.47169">
        <ele>81.9</ele>
        <time>2019-01-23T11:48:34Z</time>
      </trkpt>
      <trkpt lat="48.69659" lon="2.47169">
        <ele>81.9</ele>
        <time>2019-01-23T11:48:37Z</time>
      </trkpt>
      <trkpt lat="48.69664" lon="2.47171">
        <ele>81.9</ele>
        <time>2019-01-23T11:48:43Z</time>
      </trkpt>
      <trkpt lat="48.6967" lon="2.47166">
        <ele>81.9</ele>
        <time>2019-01-23T11:48:47Z</time>
      </trkpt>
      <trkpt lat="48.69674" lon="2.47164">
        <ele>81.9</ele>
        <time>2019-01-23T11:48:49Z</time>
      </trkpt>
      <trkpt lat="48.6968" lon="2.47165">
        <ele>81.9</ele>
        <time>2019-01-23T11:48:52Z</time>
      </trkpt>
      <trkpt lat="48.69683" lon="2.47159">
        <ele>81.9</ele>
        <time>2019-01-23T11:48:57Z</time>
      </trkpt>
      <trkpt lat="48.69687" lon="2.47157">
        <ele>81.9</ele>
        <time>2019-01-23T11:49:02Z</time>
      </trkpt>
      <trkpt lat="48.69692" lon="2.47155">
        <ele>81.9</ele>
        <time>2019-01-23T11:49:07Z</time>
      </trkpt>
      <trkpt lat="48.69697" lon="2.47152">
        <ele>81.8</ele>
        <time>2019-01-23T11:49:11Z</time>
      </trkpt>
      <trkpt lat="48.69701" lon="2.47147">
        <ele>81.8</ele>
        <time>2019-01-23T11:49:16Z</time>
      </trkpt>
      <trkpt lat="48.69705" lon="2.47145">
        <ele>81.8</ele>
        <time>2019-01-23T11:49:26Z</time>
      </trkpt>
      <trkpt lat="48.6971" lon="2.47142">
        <ele>81.8</ele>
        <time>2019-01-23T11:49:30Z</time>
      </trkpt>
      <trkpt lat="48.69714" lon="2.47137">
        <ele>81.8</ele>
        <time>2019-01-23T11:49:34Z</time>
      </trkpt>
      <trkpt lat="48.69718" lon="2.47129">
        <ele>81.8</ele>
        <time>2019-01-23T11:49:39Z</time>
      </trkpt>
      <trkpt lat="48.69721" lon="2.47121">
        <ele>81.7</ele>
        <time>2019-01-23T11:49:42Z</time>
      </trkpt>
      <trkpt lat="48.69725" lon="2.47118">
        <ele>81.7</ele>
        <time>2019-01-23T11:49:45Z</time>
      </trkpt>
      <trkpt lat="48.69728" lon="2.47112">
        <ele>81.7</ele>
        <time>2019-01-23T11:49:50Z</time>
      </trkpt>
      <trkpt lat="48.69732" lon="2.47108">
        <ele>81.7</ele>
        <time>2019-01-23T11:49:53Z</time>
      </trkpt>
      <trkpt lat="48.69737" lon="2.47105">
        <ele>81.7</ele>
        <time>2019-01-23T11:49:59Z</time>
      </trkpt>
      <trkpt lat="48.69741" lon="2.47102">
        <ele>81.6</ele>
        <time>2019-01-23T11:50:03Z</time>
      </trkpt>
      <trkpt lat="48.69746" lon="2.471">
        <ele>81.6</ele>
        <time>2019-01-23T11:50:07Z</time>
      </trkpt>
      <trkpt lat="48.6975" lon="2.47095">
        <ele>81.5</ele>
        <time>2019-01-23T11:50:11Z</time>
      </trkpt>
      <trkpt lat="48.69755" lon="2.4709">
        <ele>81.5</ele>
        <time>2019-01-23T11:50:15Z</time>
      </trkpt>
      <trkpt lat="48.69758" lon="2.47086">
        <ele>81.4</ele>
        <time>2019-01-23T11:50:21Z</time>
      </trkpt>
      <trkpt lat="48.69762" lon="2.4708">
        <ele>81.4</ele>
        <time>2019-01-23T11:50:26Z</time>
      </trkpt>
      <trkpt lat="48.69766" lon="2.47076">
        <ele>81.3</ele>
        <time>2019-01-23T11:50:30Z</time>
      </trkpt>
      <trkpt lat="48.69771" lon="2.47074">
        <ele>81.2</ele>
        <time>2019-01-23T11:50:34Z</time>
      </trkpt>
      <trkpt lat="48.69775" lon="2.47069">
        <ele>81.1</ele>
        <time>2019-01-23T11:50:41Z</time>
      </trkpt>
      <trkpt lat="48.6978" lon="2.47065">
        <ele>81</ele>
        <time>2019-01-23T11:50:48Z</time>
      </trkpt>
      <trkpt lat="48.69782" lon="2.47058">
        <ele>80.9</ele>
        <time>2019-01-23T11:50:54Z</time>
      </trkpt>
      <trkpt lat="48.69786" lon="2.47056">
        <ele>80.8</ele>
        <time>2019-01-23T11:51:21Z</time>
      </trkpt>
      <trkpt lat="48.69792" lon="2.47058">
        <ele>80.7</ele>
        <time>2019-01-23T11:51:24Z</time>
      </trkpt>
      <trkpt lat="48.69797" lon="2.47059">
        <ele>80.6</ele>
        <time>2019-01-23T11:51:28Z</time>
      </trkpt>
      <trkpt lat="48.69802" lon="2.47061">
        <ele>80.4</ele>
        <time>2019-01-23T11:51:32Z</time>
      </trkpt>
      <trkpt lat="48.69807" lon="2.47063">
        <ele>80.3</ele>
        <time>2019-01-23T11:51:38Z</time>
      </trkpt>
      <trkpt lat="48.69812" lon="2.47065">
        <ele>80.2</ele>
        <time>2019-01-23T11:51:42Z</time>
      </trkpt>
      <trkpt lat="48.69817" lon="2.47064">
        <ele>80.1</ele>
        <time>2019-01-23T11:51:48Z</time>
      </trkpt>
      <trkpt lat="48.69823" lon="2.47062">
        <ele>80</ele>
        <time>2019-01-23T11:51:52Z</time>
      </trkpt>
      <trkpt lat="48.69827" lon="2.47062">
        <ele>79.9</ele>
        <time>2019-01-23T11:51:56Z</time>
      </trkpt>
      <trkpt lat="48.69832" lon="2.4706">
        <ele>79.8</ele>
        <time>2019-01-23T11:52:02Z</time>
      </trkpt>
      <trkpt lat="48.69836" lon="2.47058">
        <ele>79.7</ele>
        <time>2019-01-23T11:52:06Z</time>
      </trkpt>
      <trkpt lat="48.6984" lon="2.47055">
        <ele>79.6</ele>
        <time>2019-01-23T11:52:15Z</time>
      </trkpt>
      <trkpt lat="48.69843" lon="2.47049">
        <ele>79.6</ele>
        <time>2019-01-23T11:52:21Z</time>
      </trkpt>
      <trkpt lat="48.69847" lon="2.47045">
        <ele>79.5</ele>
        <time>2019-01-23T11:52:27Z</time>
      </trkpt>
      <trkpt lat="48.69849" lon="2.47039">
        <ele>79.4</ele>
        <time>2019-01-23T11:52:34Z</time>
      </trkpt>
      <trkpt lat="48.69852" lon="2.47032">
        <ele>79.4</ele>
        <time>2019-01-23T11:52:40Z</time>
      </trkpt>
      <trkpt lat="48.69855" lon="2.47025">
        <ele>79.3</ele>
        <time>2019-01-23T11:52:44Z</time>
      </trkpt>
      <trkpt lat="48.69859" lon="2.47019">
        <ele>79.3</ele>
        <time>2019-01-23T11:52:48Z</time>
      </trkpt>
      <trkpt lat="48.69863" lon="2.47015">
        <ele>79.3</ele>
        <time>2019-01-23T11:52:52Z</time>
      </trkpt>
      <trkpt lat="48.69866" lon="2.47009">
        <ele>79.2</ele>
        <time>2019-01-23T11:52:57Z</time>
      </trkpt>
      <trkpt lat="48.69868" lon="2.47002">
        <ele>79.2</ele>
        <time>2019-01-23T11:53:02Z</time>
      </trkpt>
      <trkpt lat="48.69872" lon="2.46996">
        <ele>79.2</ele>
        <time>2019-01-23T11:53:08Z</time>
      </trkpt>
      <trkpt lat="48.69876" lon="2.46989">
        <ele>79.1</ele>
        <time>2019-01-23T11:53:12Z</time>
      </trkpt>
      <trkpt lat="48.69879" lon="2.46982">
        <ele>79.1</ele>
        <time>2019-01-23T11:53:16Z</time>
      </trkpt>
      <trkpt lat="48.69882" lon="2.46977">
        <ele>79.1</ele>
        <time>2019-01-23T11:53:20Z</time>
      </trkpt>
      <trkpt lat="48.69886" lon="2.46972">
        <ele>79</ele>
        <time>2019-01-23T11:53:24Z</time>
      </trkpt>
      <trkpt lat="48.69889" lon="2.46966">
        <ele>79</ele>
        <time>2019-01-23T11:53:29Z</time>
      </trkpt>
      <trkpt lat="48.69892" lon="2.4696">
        <ele>79</ele>
        <time>2019-01-23T11:53:35Z</time>
      </trkpt>
      <trkpt lat="48.69896" lon="2.46955">
        <ele>78.9</ele>
        <time>2019-01-23T11:53:42Z</time>
      </trkpt>
      <trkpt lat="48.699" lon="2.46959">
        <ele>78.8</ele>
        <time>2019-01-23T11:54:27Z</time>
      </trkpt>
      <trkpt lat="48.69902" lon="2.46965">
        <ele>78.8</ele>
        <time>2019-01-23T11:54:33Z</time>
      </trkpt>
      <trkpt lat="48.69906" lon="2.4697">
        <ele>78.7</ele>
        <time>2019-01-23T11:54:37Z</time>
      </trkpt>
      <trkpt lat="48.69909" lon="2.46965">
        <ele>78.7</ele>
        <time>2019-01-23T11:54:47Z</time>
      </trkpt>
      <trkpt lat="48.69911" lon="2.46958">
        <ele>78.6</ele>
        <time>2019-01-23T11:54:51Z</time>
      </trkpt>
      <trkpt lat="48.69915" lon="2.46952">
        <ele>78.6</ele>
        <time>2019-01-23T11:54:55Z</time>
      </trkpt>
      <trkpt lat="48.6992" lon="2.46949">
        <ele>78.5</ele>
        <time>2019-01-23T11:54:58Z</time>
      </trkpt>
      <trkpt lat="48.69924" lon="2.46946">
        <ele>78.5</ele>
        <time>2019-01-23T11:55:04Z</time>
      </trkpt>
      <trkpt lat="48.69927" lon="2.4694">
        <ele>78.4</ele>
        <time>2019-01-23T11:55:09Z</time>
      </trkpt>
      <trkpt lat="48.69931" lon="2.46936">
        <ele>78.4</ele>
        <time>2019-01-23T11:55:14Z</time>
      </trkpt>
      <trkpt lat="48.69936" lon="2.46931">
        <ele>78.3</ele>
        <time>2019-01-23T11:55:19Z</time>
      </trkpt>
      <trkpt lat="48.6994" lon="2.46936">
        <ele>78.3</ele>
        <time>2019-01-23T11:55:26Z</time>
      </trkpt>
      <trkpt lat="48.69943" lon="2.46942">
        <ele>78.2</ele>
        <time>2019-01-23T11:55:35Z</time>
      </trkpt>
      <trkpt lat="48.69947" lon="2.46945">
        <ele>78.2</ele>
        <time>2019-01-23T11:55:40Z</time>
      </trkpt>
      <trkpt lat="48.69952" lon="2.4695">
        <ele>78.2</ele>
        <time>2019-01-23T11:55:48Z</time>
      </trkpt>
      <trkpt lat="48.69956" lon="2.46955">
        <ele>78.1</ele>
        <time>2019-01-23T11:55:51Z</time>
      </trkpt>
      <trkpt lat="48.69962" lon="2.4696">
        <ele>78.1</ele>
        <time>2019-01-23T11:55:54Z</time>
      </trkpt>
      <trkpt lat="48.69966" lon="2.46964">
        <ele>78</ele>
        <time>2019-01-23T11:55:58Z</time>
      </trkpt>
      <trkpt lat="48.6997" lon="2.4697">
        <ele>78</ele>
        <time>2019-01-23T11:56:03Z</time>
      </trkpt>
      <trkpt lat="48.69974" lon="2.46974">
        <ele>78</ele>
        <time>2019-01-23T11:56:08Z</time>
      </trkpt>
      <trkpt lat="48.69978" lon="2.46979">
        <ele>77.9</ele>
        <time>2019-01-23T11:56:12Z</time>
      </trkpt>
      <trkpt lat="48.69982" lon="2.46983">
        <ele>77.9</ele>
        <time>2019-01-23T11:56:18Z</time>
      </trkpt>
      <trkpt lat="48.69987" lon="2.46985">
        <ele>77.9</ele>
        <time>2019-01-23T11:56:29Z</time>
      </trkpt>
      <trkpt lat="48.69991" lon="2.4699">
        <ele>77.8</ele>
        <time>2019-01-23T11:56:33Z</time>
      </trkpt>
      <trkpt lat="48.69995" lon="2.46994">
        <ele>77.8</ele>
        <time>2019-01-23T11:56:37Z</time>
      </trkpt>
      <trkpt lat="48.7" lon="2.46998">
        <ele>77.7</ele>
        <time>2019-01-23T11:56:40Z</time>
      </trkpt>
      <trkpt lat="48.70004" lon="2.47003">
        <ele>77.7</ele>
        <time>2019-01-23T11:56:44Z</time>
      </trkpt>
      <trkpt lat="48.70008" lon="2.47007">
        <ele>77.6</ele>
        <time>2019-01-23T11:56:48Z</time>
      </trkpt>
      <trkpt lat="48.70012" lon="2.47013">
        <ele>77.6</ele>
        <time>2019-01-23T11:56:52Z</time>
      </trkpt>
      <trkpt lat="48.70015" lon="2.47018">
        <ele>77.6</ele>
        <time>2019-01-23T11:56:56Z</time>
      </trkpt>
      <trkpt lat="48.70019" lon="2.47023">
        <ele>77.5</ele>
        <time>2019-01-23T11:57:01Z</time>
      </trkpt>
      <trkpt lat="48.70023" lon="2.47028">
        <ele>77.5</ele>
        <time>2019-01-23T11:57:06Z</time>
      </trkpt>
      <trkpt lat="48.70026" lon="2.47033">
        <ele>77.4</ele>
        <time>2019-01-23T11:57:10Z</time>
      </trkpt>
      <trkpt lat="48.7003" lon="2.47037">
        <ele>77.4</ele>
        <time>2019-01-23T11:57:15Z</time>
      </trkpt>
      <trkpt lat="48.70033" lon="2.47042">
        <ele>77.3</ele>
        <time>2019-01-23T11:57:19Z</time>
      </trkpt>
      <trkpt lat="48.70037" lon="2.47047">
        <ele>77.2</ele>
        <time>2019-01-23T11:57:23Z</time>
      </trkpt>
      <trkpt lat="48.70041" lon="2.47051">
        <ele>77.2</ele>
        <time>2019-01-23T11:57:27Z</time>
      </trkpt>
      <trkpt lat="48.70045" lon="2.47054">
        <ele>77.1</ele>
        <time>2019-01-23T11:57:31Z</time>
      </trkpt>
      <trkpt lat="48.70049" lon="2.47058">
        <ele>77.1</ele>
        <time>2019-01-23T11:57:35Z</time>
      </trkpt>
      <trkpt lat="48.70053" lon="2.47063">
        <ele>77</ele>
        <time>2019-01-23T11:57:39Z</time>
      </trkpt>
      <trkpt lat="48.70056" lon="2.47069">
        <ele>76.9</ele>
        <time>2019-01-23T11:57:43Z</time>
      </trkpt>
      <trkpt lat="48.70059" lon="2.47075">
        <ele>76.8</ele>
        <time>2019-01-23T11:57:49Z</time>
      </trkpt>
      <trkpt lat="48.70063" lon="2.47079">
        <ele>76.7</ele>
        <time>2019-01-23T11:57:53Z</time>
      </trkpt>
      <trkpt lat="48.70067" lon="2.47085">
        <ele>76.6</ele>
        <time>2019-01-23T11:57:59Z</time>
      </trkpt>
      <trkpt lat="48.70071" lon="2.47089">
        <ele>76.5</ele>
        <time>2019-01-23T11:58:04Z</time>
      </trkpt>
      <trkpt lat="48.70075" lon="2.47094">
        <ele>76.4</ele>
        <time>2019-01-23T11:58:09Z</time>
      </trkpt>
      <trkpt lat="48.70079" lon="2.47099">
        <ele>76.3</ele>
        <time>2019-01-23T11:58:14Z</time>
      </trkpt>
      <trkpt lat="48.70083" lon="2.47104">
        <ele>76.2</ele>
        <time>2019-01-23T11:58:20Z</time>
      </trkpt>
      <trkpt lat="48.70088" lon="2.47107">
        <ele>76.1</ele>
        <time>2019-01-23T11:58:25Z</time>
      </trkpt>
      <trkpt lat="48.70092" lon="2.47109">
        <ele>76</ele>
        <time>2019-01-23T11:58:30Z</time>
      </trkpt>
      <trkpt lat="48.70095" lon="2.47115">
        <ele>76</ele>
        <time>2019-01-23T11:58:39Z</time>
      </trkpt>
      <trkpt lat="48.701" lon="2.47119">
        <ele>75.9</ele>
        <time>2019-01-23T11:58:45Z</time>
      </trkpt>
      <trkpt lat="48.70105" lon="2.4712">
        <ele>75.9</ele>
        <time>2019-01-23T11:58:50Z</time>
      </trkpt>
      <trkpt lat="48.70108" lon="2.47125">
        <ele>75.8</ele>
        <time>2019-01-23T11:58:55Z</time>
      </trkpt>
      <trkpt lat="48.70113" lon="2.4713">
        <ele>75.7</ele>
        <time>2019-01-23T11:58:59Z</time>
      </trkpt>
      <trkpt lat="48.70117" lon="2.47132">
        <ele>75.7</ele>
        <time>2019-01-23T11:59:02Z</time>
      </trkpt>
      <trkpt lat="48.70122" lon="2.47135">
        <ele>75.6</ele>
        <time>2019-01-23T11:59:06Z</time>
      </trkpt>
      <trkpt lat="48.70127" lon="2.47138">
        <ele>75.5</ele>
        <time>2019-01-23T11:59:11Z</time>
      </trkpt>
      <trkpt lat="48.70132" lon="2.47142">
        <ele>75.4</ele>
        <time>2019-01-23T11:59:17Z</time>
      </trkpt>
      <trkpt lat="48.70138" lon="2.47145">
        <ele>75.3</ele>
        <time>2019-01-23T11:59:23Z</time>
      </trkpt>
      <trkpt lat="48.70142" lon="2.47147">
        <ele>75.2</ele>
        <time>2019-01-23T11:59:27Z</time>
      </trkpt>
      <trkpt lat="48.70146" lon="2.47151">
        <ele>75.1</ele>
        <time>2019-01-23T11:59:35Z</time>
      </trkpt>
      <trkpt lat="48.70151" lon="2.47156">
        <ele>75.1</ele>
        <time>2019-01-23T11:59:42Z</time>
      </trkpt>
      <trkpt lat="48.70155" lon="2.47158">
        <ele>75</ele>
        <time>2019-01-23T11:59:46Z</time>
      </trkpt>
      <trkpt lat="48.70159" lon="2.47162">
        <ele>74.9</ele>
        <time>2019-01-23T11:59:52Z</time>
      </trkpt>
      <trkpt lat="48.70164" lon="2.47164">
        <ele>74.9</ele>
        <time>2019-01-23T11:59:55Z</time>
      </trkpt>
      <trkpt lat="48.70169" lon="2.47167">
        <ele>74.8</ele>
        <time>2019-01-23T11:59:58Z</time>
      </trkpt>
      <trkpt lat="48.70175" lon="2.47168">
        <ele>74.8</ele>
        <time>2019-01-23T12:00:03Z</time>
      </trkpt>
      <trkpt lat="48.70179" lon="2.47172">
        <ele>74.7</ele>
        <time>2019-01-23T12:00:07Z</time>
      </trkpt>
      <trkpt lat="48.70183" lon="2.47176">
        <ele>74.7</ele>
        <time>2019-01-23T12:00:11Z</time>
      </trkpt>
      <trkpt lat="48.70188" lon="2.47178">
        <ele>74.6</ele>
        <time>2019-01-23T12:00:16Z</time>
      </trkpt>
      <trkpt lat="48.70193" lon="2.47181">
        <ele>74.5</ele>
        <time>2019-01-23T12:00:20Z</time>
      </trkpt>
      <trkpt lat="48.70197" lon="2.47183">
        <ele>74.5</ele>
        <time>2019-01-23T12:00:25Z</time>
      </trkpt>
      <trkpt lat="48.70202" lon="2.47186">
        <ele>74.4</ele>
        <time>2019-01-23T12:00:32Z</time>
      </trkpt>
      <trkpt lat="48.70207" lon="2.47189">
        <ele>74.4</ele>
        <time>2019-01-23T12:00:36Z</time>
      </trkpt>
      <trkpt lat="48.70211" lon="2.47193">
        <ele>74.3</ele>
        <time>2019-01-23T12:00:40Z</time>
      </trkpt>
      <trkpt lat="48.70216" lon="2.47197">
        <ele>74.2</ele>
        <time>2019-01-23T12:00:44Z</time>
      </trkpt>
      <trkpt lat="48.70221" lon="2.472">
        <ele>74.1</ele>
        <time>2019-01-23T12:00:47Z</time>
      </trkpt>
      <trkpt lat="48.70225" lon="2.47203">
        <ele>74</ele>
        <time>2019-01-23T12:00:51Z</time>
      </trkpt>
      <trkpt lat="48.7023" lon="2.47206">
        <ele>73.9</ele>
        <time>2019-01-23T12:00:56Z</time>
      </trkpt>
      <trkpt lat="48.70234" lon="2.47208">
        <ele>73.8</ele>
        <time>2019-01-23T12:00:59Z</time>
      </trkpt>
      <trkpt lat="48.70239" lon="2.4721">
        <ele>73.7</ele>
        <time>2019-01-23T12:01:06Z</time>
      </trkpt>
      <trkpt lat="48.70244" lon="2.47212">
        <ele>73.6</ele>
        <time>2019-01-23T12:01:11Z</time>
      </trkpt>
      <trkpt lat="48.70246" lon="2.47218">
        <ele>73.4</ele>
        <time>2019-01-23T12:01:18Z</time>
      </trkpt>
      <trkpt lat="48.70247" lon="2.47226">
        <ele>73.3</ele>
        <time>2019-01-23T12:01:24Z</time>
      </trkpt>
      <trkpt lat="48.70248" lon="2.47233">
        <ele>73.2</ele>
        <time>2019-01-23T12:01:30Z</time>
      </trkpt>
      <trkpt lat="48.70251" lon="2.4724">
        <ele>73.2</ele>
        <time>2019-01-23T12:01:35Z</time>
      </trkpt>
      <trkpt lat="48.70254" lon="2.47245">
        <ele>73.1</ele>
        <time>2019-01-23T12:01:39Z</time>
      </trkpt>
      <trkpt lat="48.70259" lon="2.47247">
        <ele>73</ele>
        <time>2019-01-23T12:01:42Z</time>
      </trkpt>
      <trkpt lat="48.70263" lon="2.47251">
        <ele>72.9</ele>
        <time>2019-01-23T12:01:45Z</time>
      </trkpt>
      <trkpt lat="48.70268" lon="2.47254">
        <ele>72.8</ele>
        <time>2019-01-23T12:01:50Z</time>
      </trkpt>
      <trkpt lat="48.70274" lon="2.47251">
        <ele>72.7</ele>
        <time>2019-01-23T12:01:55Z</time>
      </trkpt>
      <trkpt lat="48.70278" lon="2.47247">
        <ele>72.6</ele>
        <time>2019-01-23T12:01:59Z</time>
      </trkpt>
      <trkpt lat="48.70282" lon="2.47244">
        <ele>72.5</ele>
        <time>2019-01-23T12:02:07Z</time>
      </trkpt>
      <trkpt lat="48.70287" lon="2.47248">
        <ele>72.4</ele>
        <time>2019-01-23T12:02:13Z</time>
      </trkpt>
      <trkpt lat="48.70292" lon="2.47252">
        <ele>72.3</ele>
        <time>2019-01-23T12:02:18Z</time>
      </trkpt>
      <trkpt lat="48.70297" lon="2.47255">
        <ele>72.2</ele>
        <time>2019-01-23T12:02:22Z</time>
      </trkpt>
      <trkpt lat="48.70301" lon="2.47258">
        <ele>72.1</ele>
        <time>2019-01-23T12:02:27Z</time>
      </trkpt>
      <trkpt lat="48.70307" lon="2.47259">
        <ele>72</ele>
        <time>2019-01-23T12:02:30Z</time>
      </trkpt>
      <trkpt lat="48.70311" lon="2.47261">
        <ele>72</ele>
        <time>2019-01-23T12:02:34Z</time>
      </trkpt>
      <trkpt lat="48.70316" lon="2.47263">
        <ele>71.9</ele>
        <time>2019-01-23T12:02:40Z</time>
      </trkpt>
      <trkpt lat="48.70321" lon="2.47266">
        <ele>71.8</ele>
        <time>2019-01-23T12:02:44Z</time>
      </trkpt>
      <trkpt lat="48.70325" lon="2.4727">
        <ele>71.7</ele>
        <time>2019-01-23T12:02:48Z</time>
      </trkpt>
      <trkpt lat="48.70329" lon="2.47273">
        <ele>71.6</ele>
        <time>2019-01-23T12:02:52Z</time>
      </trkpt>
      <trkpt lat="48.70334" lon="2.47276">
        <ele>71.5</ele>
        <time>2019-01-23T12:02:55Z</time>
      </trkpt>
      <trkpt lat="48.70339" lon="2.4728">
        <ele>71.4</ele>
        <time>2019-01-23T12:02:59Z</time>
      </trkpt>
      <trkpt lat="48.70343" lon="2.47285">
        <ele>71.3</ele>
        <time>2019-01-23T12:03:04Z</time>
      </trkpt>
      <trkpt lat="48.70346" lon="2.47292">
        <ele>71.2</ele>
        <time>2019-01-23T12:03:10Z</time>
      </trkpt>
      <trkpt lat="48.70349" lon="2.47297">
        <ele>71.1</ele>
        <time>2019-01-23T12:03:14Z</time>
      </trkpt>
      <trkpt lat="48.70354" lon="2.47302">
        <ele>71</ele>
        <time>2019-01-23T12:03:20Z</time>
      </trkpt>
      <trkpt lat="48.70358" lon="2.47305">
        <ele>70.9</ele>
        <time>2019-01-23T12:03:24Z</time>
      </trkpt>
      <trkpt lat="48.70363" lon="2.4731">
        <ele>70.8</ele>
        <time>2019-01-23T12:03:28Z</time>
      </trkpt>
      <trkpt lat="48.70367" lon="2.47314">
        <ele>70.7</ele>
        <time>2019-01-23T12:03:31Z</time>
      </trkpt>
      <trkpt lat="48.70372" lon="2.47318">
        <ele>70.6</ele>
        <time>2019-01-23T12:03:35Z</time>
      </trkpt>
      <trkpt lat="48.70377" lon="2.47321">
        <ele>70.5</ele>
        <time>2019-01-23T12:03:39Z</time>
      </trkpt>
      <trkpt lat="48.70381" lon="2.47326">
        <ele>70.4</ele>
        <time>2019-01-23T12:03:43Z</time>
      </trkpt>
      <trkpt lat="48.70386" lon="2.47327">
        <ele>70.3</ele>
        <time>2019-01-23T12:03:48Z</time>
      </trkpt>
      <trkpt lat="48.70391" lon="2.4733">
        <ele>70.2</ele>
        <time>2019-01-23T12:03:51Z</time>
      </trkpt>
      <trkpt lat="48.70395" lon="2.47334">
        <ele>70</ele>
        <time>2019-01-23T12:03:55Z</time>
      </trkpt>
      <trkpt lat="48.704" lon="2.47336">
        <ele>69.9</ele>
        <time>2019-01-23T12:03:59Z</time>
      </trkpt>
      <trkpt lat="48.70404" lon="2.47339">
        <ele>69.8</ele>
        <time>2019-01-23T12:04:03Z</time>
      </trkpt>
      <trkpt lat="48.70409" lon="2.47343">
        <ele>69.6</ele>
        <time>2019-01-23T12:04:09Z</time>
      </trkpt>
      <trkpt lat="48.70413" lon="2.47348">
        <ele>69.4</ele>
        <time>2019-01-23T12:04:14Z</time>
      </trkpt>
      <trkpt lat="48.70417" lon="2.47353">
        <ele>69.2</ele>
        <time>2019-01-23T12:04:18Z</time>
      </trkpt>
      <trkpt lat="48.7042" lon="2.47359">
        <ele>68.9</ele>
        <time>2019-01-23T12:04:22Z</time>
      </trkpt>
      <trkpt lat="48.70423" lon="2.47364">
        <ele>68.6</ele>
        <time>2019-01-23T12:04:27Z</time>
      </trkpt>
      <trkpt lat="48.70428" lon="2.47363">
        <ele>68.3</ele>
        <time>2019-01-23T12:04:57Z</time>
      </trkpt>
      <trkpt lat="48.70432" lon="2.47365">
        <ele>68.1</ele>
        <time>2019-01-23T12:05:07Z</time>
      </trkpt>
      <trkpt lat="48.70435" lon="2.4737">
        <ele>67.9</ele>
        <time>2019-01-23T12:05:21Z</time>
      </trkpt>
      <trkpt lat="48.70438" lon="2.47375">
        <ele>67.7</ele>
        <time>2019-01-23T12:05:27Z</time>
      </trkpt>
      <trkpt lat="48.70443" lon="2.47379">
        <ele>67.6</ele>
        <time>2019-01-23T12:05:32Z</time>
      </trkpt>
      <trkpt lat="48.70447" lon="2.47385">
        <ele>67.4</ele>
        <time>2019-01-23T12:05:36Z</time>
      </trkpt>
      <trkpt lat="48.70452" lon="2.4739">
        <ele>67.3</ele>
        <time>2019-01-23T12:05:41Z</time>
      </trkpt>
      <trkpt lat="48.70455" lon="2.47395">
        <ele>67.1</ele>
        <time>2019-01-23T12:05:45Z</time>
      </trkpt>
      <trkpt lat="48.7046" lon="2.47399">
        <ele>67</ele>
        <time>2019-01-23T12:05:51Z</time>
      </trkpt>
      <trkpt lat="48.70464" lon="2.47402">
        <ele>66.9</ele>
        <time>2019-01-23T12:05:57Z</time>
      </trkpt>
      <trkpt lat="48.70468" lon="2.47406">
        <ele>66.8</ele>
        <time>2019-01-23T12:06:01Z</time>
      </trkpt>
      <trkpt lat="48.70472" lon="2.4741">
        <ele>66.6</ele>
        <time>2019-01-23T12:06:08Z</time>
      </trkpt>
      <trkpt lat="48.70478" lon="2.47413">
        <ele>66.6</ele>
        <time>2019-01-23T12:06:12Z</time>
      </trkpt>
      <trkpt lat="48.70482" lon="2.47416">
        <ele>66.4</ele>
        <time>2019-01-23T12:06:15Z</time>
      </trkpt>
      <trkpt lat="48.70486" lon="2.47421">
        <ele>66.3</ele>
        <time>2019-01-23T12:06:18Z</time>
      </trkpt>
      <trkpt lat="48.70491" lon="2.47425">
        <ele>66.2</ele>
        <time>2019-01-23T12:06:22Z</time>
      </trkpt>
      <trkpt lat="48.70496" lon="2.47429">
        <ele>66</ele>
        <time>2019-01-23T12:06:25Z</time>
      </trkpt>
      <trkpt lat="48.70501" lon="2.47433">
        <ele>65.8</ele>
        <time>2019-01-23T12:06:30Z</time>
      </trkpt>
      <trkpt lat="48.70505" lon="2.47438">
        <ele>65.7</ele>
        <time>2019-01-23T12:06:34Z</time>
      </trkpt>
      <trkpt lat="48.70509" lon="2.47443">
        <ele>65.5</ele>
        <time>2019-01-23T12:06:39Z</time>
      </trkpt>
      <trkpt lat="48.70514" lon="2.47445">
        <ele>65.3</ele>
        <time>2019-01-23T12:06:43Z</time>
      </trkpt>
      <trkpt lat="48.70519" lon="2.47449">
        <ele>65</ele>
        <time>2019-01-23T12:06:47Z</time>
      </trkpt>
      <trkpt lat="48.70524" lon="2.47454">
        <ele>64.7</ele>
        <time>2019-01-23T12:06:51Z</time>
      </trkpt>
      <trkpt lat="48.70529" lon="2.47457">
        <ele>64.4</ele>
        <time>2019-01-23T12:06:57Z</time>
      </trkpt>
      <trkpt lat="48.70534" lon="2.47458">
        <ele>64.2</ele>
        <time>2019-01-23T12:07:03Z</time>
      </trkpt>
      <trkpt lat="48.70538" lon="2.47456">
        <ele>63.9</ele>
        <time>2019-01-23T12:07:22Z</time>
      </trkpt>
      <trkpt lat="48.70543" lon="2.47457">
        <ele>63.5</ele>
        <time>2019-01-23T12:07:26Z</time>
      </trkpt>
      <trkpt lat="48.70548" lon="2.47461">
        <ele>63</ele>
        <time>2019-01-23T12:07:32Z</time>
      </trkpt>
      <trkpt lat="48.70552" lon="2.47465">
        <ele>62.5</ele>
        <time>2019-01-23T12:07:38Z</time>
      </trkpt>
      <trkpt lat="48.70556" lon="2.47469">
        <ele>62</ele>
        <time>2019-01-23T12:07:45Z</time>
      </trkpt>
      <trkpt lat="48.70565" lon="2.47466">
        <ele>61.6</ele>
        <time>2019-01-23T12:08:07Z</time>
      </trkpt>
      <trkpt lat="48.70571" lon="2.47468">
        <ele>61.4</ele>
        <time>2019-01-23T12:08:13Z</time>
      </trkpt>
      <trkpt lat="48.70576" lon="2.47465">
        <ele>61.4</ele>
        <time>2019-01-23T12:08:21Z</time>
      </trkpt>
      <trkpt lat="48.70582" lon="2.47471">
        <ele>61.4</ele>
        <time>2019-01-23T12:08:25Z</time>
      </trkpt>
      <trkpt lat="48.70587" lon="2.47473">
        <ele>61.3</ele>
        <time>2019-01-23T12:08:27Z</time>
      </trkpt>
      <trkpt lat="48.70591" lon="2.47473">
        <ele>61.3</ele>
        <time>2019-01-23T12:08:30Z</time>
      </trkpt>
      <trkpt lat="48.70596" lon="2.47474">
        <ele>61.2</ele>
        <time>2019-01-23T12:08:33Z</time>
      </trkpt>
      <trkpt lat="48.70602" lon="2.47473">
        <ele>61.2</ele>
        <time>2019-01-23T12:08:36Z</time>
      </trkpt>
      <trkpt lat="48.70607" lon="2.47472">
        <ele>61.1</ele>
        <time>2019-01-23T12:08:41Z</time>
      </trkpt>
      <trkpt lat="48.70612" lon="2.47471">
        <ele>61.1</ele>
        <time>2019-01-23T12:08:44Z</time>
      </trkpt>
      <trkpt lat="48.70618" lon="2.47472">
        <ele>61</ele>
        <time>2019-01-23T12:08:48Z</time>
      </trkpt>
      <trkpt lat="48.70623" lon="2.47471">
        <ele>61</ele>
        <time>2019-01-23T12:08:53Z</time>
      </trkpt>
      <trkpt lat="48.70628" lon="2.47472">
        <ele>60.9</ele>
        <time>2019-01-23T12:08:57Z</time>
      </trkpt>
      <trkpt lat="48.70633" lon="2.47473">
        <ele>60.8</ele>
        <time>2019-01-23T12:09:01Z</time>
      </trkpt>
      <trkpt lat="48.70638" lon="2.47474">
        <ele>60.8</ele>
        <time>2019-01-23T12:09:07Z</time>
      </trkpt>
      <trkpt lat="48.70643" lon="2.47478">
        <ele>60.7</ele>
        <time>2019-01-23T12:09:09Z</time>
      </trkpt>
      <trkpt lat="48.70647" lon="2.47481">
        <ele>60.6</ele>
        <time>2019-01-23T12:09:12Z</time>
      </trkpt>
      <trkpt lat="48.70651" lon="2.47485">
        <ele>60.5</ele>
        <time>2019-01-23T12:09:18Z</time>
      </trkpt>
      <trkpt lat="48.70653" lon="2.47492">
        <ele>60.4</ele>
        <time>2019-01-23T12:09:25Z</time>
      </trkpt>
      <trkpt lat="48.70658" lon="2.47492">
        <ele>60.3</ele>
        <time>2019-01-23T12:09:31Z</time>
      </trkpt>
      <trkpt lat="48.70663" lon="2.47493">
        <ele>60.2</ele>
        <time>2019-01-23T12:09:37Z</time>
      </trkpt>
      <trkpt lat="48.70669" lon="2.47495">
        <ele>60.1</ele>
        <time>2019-01-23T12:09:42Z</time>
      </trkpt>
      <trkpt lat="48.70673" lon="2.47498">
        <ele>60</ele>
        <time>2019-01-23T12:09:45Z</time>
      </trkpt>
      <trkpt lat="48.70678" lon="2.47498">
        <ele>59.8</ele>
        <time>2019-01-23T12:09:49Z</time>
      </trkpt>
      <trkpt lat="48.70683" lon="2.475">
        <ele>59.7</ele>
        <time>2019-01-23T12:09:53Z</time>
      </trkpt>
      <trkpt lat="48.70688" lon="2.47501">
        <ele>59.5</ele>
        <time>2019-01-23T12:09:57Z</time>
      </trkpt>
      <trkpt lat="48.70693" lon="2.47497">
        <ele>59.4</ele>
        <time>2019-01-23T12:10:07Z</time>
      </trkpt>
      <trkpt lat="48.70697" lon="2.47497">
        <ele>59.2</ele>
        <time>2019-01-23T12:10:10Z</time>
      </trkpt>
      <trkpt lat="48.70701" lon="2.47493">
        <ele>59</ele>
        <time>2019-01-23T12:10:15Z</time>
      </trkpt>
      <trkpt lat="48.70704" lon="2.47487">
        <ele>58.9</ele>
        <time>2019-01-23T12:10:19Z</time>
      </trkpt>
      <trkpt lat="48.70706" lon="2.47481">
        <ele>58.7</ele>
        <time>2019-01-23T12:10:23Z</time>
      </trkpt>
      <trkpt lat="48.70707" lon="2.47473">
        <ele>58.5</ele>
        <time>2019-01-23T12:10:30Z</time>
      </trkpt>
      <trkpt lat="48.70711" lon="2.47472">
        <ele>58.4</ele>
        <time>2019-01-23T12:10:37Z</time>
      </trkpt>
      <trkpt lat="48.70716" lon="2.47473">
        <ele>58.2</ele>
        <time>2019-01-23T12:10:42Z</time>
      </trkpt>
      <trkpt lat="48.70721" lon="2.47475">
        <ele>58.1</ele>
        <time>2019-01-23T12:10:48Z</time>
      </trkpt>
      <trkpt lat="48.70727" lon="2.47478">
        <ele>58</ele>
        <time>2019-01-23T12:10:52Z</time>
      </trkpt>
      <trkpt lat="48.70732" lon="2.47479">
        <ele>57.9</ele>
        <time>2019-01-23T12:10:54Z</time>
      </trkpt>
      <trkpt lat="48.70737" lon="2.47479">
        <ele>57.7</ele>
        <time>2019-01-23T12:10:57Z</time>
      </trkpt>
      <trkpt lat="48.70741" lon="2.47483">
        <ele>57.6</ele>
        <time>2019-01-23T12:11:00Z</time>
      </trkpt>
      <trkpt lat="48.70746" lon="2.47484">
        <ele>57.4</ele>
        <time>2019-01-23T12:11:04Z</time>
      </trkpt>
      <trkpt lat="48.70751" lon="2.47486">
        <ele>57.3</ele>
        <time>2019-01-23T12:11:10Z</time>
      </trkpt>
      <trkpt lat="48.70756" lon="2.47487">
        <ele>57.1</ele>
        <time>2019-01-23T12:11:14Z</time>
      </trkpt>
      <trkpt lat="48.70762" lon="2.4749">
        <ele>57</ele>
        <time>2019-01-23T12:11:18Z</time>
      </trkpt>
      <trkpt lat="48.70766" lon="2.47491">
        <ele>56.9</ele>
        <time>2019-01-23T12:11:22Z</time>
      </trkpt>
      <trkpt lat="48.70771" lon="2.47493">
        <ele>56.8</ele>
        <time>2019-01-23T12:11:26Z</time>
      </trkpt>
      <trkpt lat="48.70775" lon="2.47496">
        <ele>56.6</ele>
        <time>2019-01-23T12:11:30Z</time>
      </trkpt>
      <trkpt lat="48.7078" lon="2.47499">
        <ele>56.5</ele>
        <time>2019-01-23T12:11:34Z</time>
      </trkpt>
      <trkpt lat="48.70785" lon="2.47501">
        <ele>56.4</ele>
        <time>2019-01-23T12:11:39Z</time>
      </trkpt>
      <trkpt lat="48.7079" lon="2.47502">
        <ele>56.3</ele>
        <time>2019-01-23T12:11:42Z</time>
      </trkpt>
      <trkpt lat="48.70795" lon="2.47505">
        <ele>56.1</ele>
        <time>2019-01-23T12:11:46Z</time>
      </trkpt>
      <trkpt lat="48.708" lon="2.47508">
        <ele>56</ele>
        <time>2019-01-23T12:11:50Z</time>
      </trkpt>
      <trkpt lat="48.70805" lon="2.47509">
        <ele>55.8</ele>
        <time>2019-01-23T12:11:54Z</time>
      </trkpt>
      <trkpt lat="48.7081" lon="2.47509">
        <ele>55.6</ele>
        <time>2019-01-23T12:12:01Z</time>
      </trkpt>
      <trkpt lat="48.70816" lon="2.4751">
        <ele>55.5</ele>
        <time>2019-01-23T12:12:08Z</time>
      </trkpt>
      <trkpt lat="48.70821" lon="2.47512">
        <ele>55.4</ele>
        <time>2019-01-23T12:12:15Z</time>
      </trkpt>
      <trkpt lat="48.70825" lon="2.47513">
        <ele>55.2</ele>
        <time>2019-01-23T12:12:21Z</time>
      </trkpt>
      <trkpt lat="48.70832" lon="2.47517">
        <ele>55.1</ele>
        <time>2019-01-23T12:12:25Z</time>
      </trkpt>
      <trkpt lat="48.70836" lon="2.4752">
        <ele>55</ele>
        <time>2019-01-23T12:12:27Z</time>
      </trkpt>
      <trkpt lat="48.70841" lon="2.47522">
        <ele>54.9</ele>
        <time>2019-01-23T12:12:31Z</time>
      </trkpt>
      <trkpt lat="48.70846" lon="2.47522">
        <ele>54.8</ele>
        <time>2019-01-23T12:12:35Z</time>
      </trkpt>
      <trkpt lat="48.70851" lon="2.47524">
        <ele>54.7</ele>
        <time>2019-01-23T12:12:38Z</time>
      </trkpt>
      <trkpt lat="48.70855" lon="2.47527">
        <ele>54.5</ele>
        <time>2019-01-23T12:12:43Z</time>
      </trkpt>
      <trkpt lat="48.7086" lon="2.47529">
        <ele>54.4</ele>
        <time>2019-01-23T12:12:47Z</time>
      </trkpt>
      <trkpt lat="48.70865" lon="2.47531">
        <ele>54.2</ele>
        <time>2019-01-23T12:12:52Z</time>
      </trkpt>
      <trkpt lat="48.7087" lon="2.47533">
        <ele>54</ele>
        <time>2019-01-23T12:12:56Z</time>
      </trkpt>
      <trkpt lat="48.70875" lon="2.47534">
        <ele>53.8</ele>
        <time>2019-01-23T12:13:03Z</time>
      </trkpt>
      <trkpt lat="48.7088" lon="2.47534">
        <ele>53.7</ele>
        <time>2019-01-23T12:13:09Z</time>
      </trkpt>
      <trkpt lat="48.70885" lon="2.47534">
        <ele>53.5</ele>
        <time>2019-01-23T12:13:20Z</time>
      </trkpt>
      <trkpt lat="48.70891" lon="2.47535">
        <ele>53.4</ele>
        <time>2019-01-23T12:13:26Z</time>
      </trkpt>
      <trkpt lat="48.70897" lon="2.47534">
        <ele>53.2</ele>
        <time>2019-01-23T12:13:30Z</time>
      </trkpt>
      <trkpt lat="48.70901" lon="2.47532">
        <ele>53.1</ele>
        <time>2019-01-23T12:13:33Z</time>
      </trkpt>
      <trkpt lat="48.70906" lon="2.4753">
        <ele>53</ele>
        <time>2019-01-23T12:13:37Z</time>
      </trkpt>
      <trkpt lat="48.70911" lon="2.4753">
        <ele>52.9</ele>
        <time>2019-01-23T12:13:43Z</time>
      </trkpt>
      <trkpt lat="48.70916" lon="2.47532">
        <ele>52.7</ele>
        <time>2019-01-23T12:13:50Z</time>
      </trkpt>
      <trkpt lat="48.7092" lon="2.47534">
        <ele>52.6</ele>
        <time>2019-01-23T12:13:57Z</time>
      </trkpt>
      <trkpt lat="48.70925" lon="2.47536">
        <ele>52.5</ele>
        <time>2019-01-23T12:14:00Z</time>
      </trkpt>
      <trkpt lat="48.70929" lon="2.47537">
        <ele>52.4</ele>
        <time>2019-01-23T12:14:04Z</time>
      </trkpt>
      <trkpt lat="48.70935" lon="2.47541">
        <ele>52.3</ele>
        <time>2019-01-23T12:14:09Z</time>
      </trkpt>
      <trkpt lat="48.70939" lon="2.47546">
        <ele>52.2</ele>
        <time>2019-01-23T12:14:14Z</time>
      </trkpt>
      <trkpt lat="48.70944" lon="2.47548">
        <ele>52.1</ele>
        <time>2019-01-23T12:14:18Z</time>
      </trkpt>
      <trkpt lat="48.70949" lon="2.47549">
        <ele>52</ele>
        <time>2019-01-23T12:14:22Z</time>
      </trkpt>
      <trkpt lat="48.70954" lon="2.47554">
        <ele>51.9</ele>
        <time>2019-01-23T12:14:26Z</time>
      </trkpt>
      <trkpt lat="48.70957" lon="2.47561">
        <ele>51.8</ele>
        <time>2019-01-23T12:14:30Z</time>
      </trkpt>
      <trkpt lat="48.70959" lon="2.47568">
        <ele>51.7</ele>
        <time>2019-01-23T12:14:34Z</time>
      </trkpt>
      <trkpt lat="48.70961" lon="2.47575">
        <ele>51.6</ele>
        <time>2019-01-23T12:14:38Z</time>
      </trkpt>
      <trkpt lat="48.70963" lon="2.47583">
        <ele>51.5</ele>
        <time>2019-01-23T12:14:43Z</time>
      </trkpt>
      <trkpt lat="48.70965" lon="2.4759">
        <ele>51.4</ele>
        <time>2019-01-23T12:14:47Z</time>
      </trkpt>
      <trkpt lat="48.70967" lon="2.47597">
        <ele>51.4</ele>
        <time>2019-01-23T12:14:51Z</time>
      </trkpt>
      <trkpt lat="48.70969" lon="2.47605">
        <ele>51.3</ele>
        <time>2019-01-23T12:14:55Z</time>
      </trkpt>
      <trkpt lat="48.7097" lon="2.47612">
        <ele>51.1</ele>
        <time>2019-01-23T12:14:59Z</time>
      </trkpt>
      <trkpt lat="48.70972" lon="2.47618">
        <ele>51</ele>
        <time>2019-01-23T12:15:04Z</time>
      </trkpt>
      <trkpt lat="48.70974" lon="2.47625">
        <ele>50.9</ele>
        <time>2019-01-23T12:15:08Z</time>
      </trkpt>
      <trkpt lat="48.70975" lon="2.47631">
        <ele>50.8</ele>
        <time>2019-01-23T12:15:13Z</time>
      </trkpt>
      <trkpt lat="48.70975" lon="2.47639">
        <ele>50.7</ele>
        <time>2019-01-23T12:15:18Z</time>
      </trkpt>
      <trkpt lat="48.70974" lon="2.47648">
        <ele>50.6</ele>
        <time>2019-01-23T12:15:22Z</time>
      </trkpt>
      <trkpt lat="48.70972" lon="2.47656">
        <ele>50.4</ele>
        <time>2019-01-23T12:15:26Z</time>
      </trkpt>
      <trkpt lat="48.7097" lon="2.47663">
        <ele>50.3</ele>
        <time>2019-01-23T12:15:30Z</time>
      </trkpt>
      <trkpt lat="48.70968" lon="2.47669">
        <ele>50.1</ele>
        <time>2019-01-23T12:15:34Z</time>
      </trkpt>
      <trkpt lat="48.70967" lon="2.47676">
        <ele>50</ele>
        <time>2019-01-23T12:15:40Z</time>
      </trkpt>
      <trkpt lat="48.70969" lon="2.47683">
        <ele>49.8</ele>
        <time>2019-01-23T12:15:52Z</time>
      </trkpt>
      <trkpt lat="48.70973" lon="2.47688">
        <ele>49.7</ele>
        <time>2019-01-23T12:15:58Z</time>
      </trkpt>
      <trkpt lat="48.70977" lon="2.47692">
        <ele>49.6</ele>
        <time>2019-01-23T12:16:02Z</time>
      </trkpt>
      <trkpt lat="48.70981" lon="2.47696">
        <ele>49.5</ele>
        <time>2019-01-23T12:16:07Z</time>
      </trkpt>
      <trkpt lat="48.70986" lon="2.477">
        <ele>49.4</ele>
        <time>2019-01-23T12:16:12Z</time>
      </trkpt>
      <trkpt lat="48.7099" lon="2.47705">
        <ele>49.3</ele>
        <time>2019-01-23T12:16:16Z</time>
      </trkpt>
      <trkpt lat="48.70994" lon="2.47711">
        <ele>49.2</ele>
        <time>2019-01-23T12:16:22Z</time>
      </trkpt>
      <trkpt lat="48.70998" lon="2.47716">
        <ele>49.1</ele>
        <time>2019-01-23T12:16:26Z</time>
      </trkpt>
      <trkpt lat="48.71001" lon="2.47721">
        <ele>49</ele>
        <time>2019-01-23T12:16:30Z</time>
      </trkpt>
      <trkpt lat="48.71005" lon="2.47725">
        <ele>48.9</ele>
        <time>2019-01-23T12:16:35Z</time>
      </trkpt>
      <trkpt lat="48.71009" lon="2.47731">
        <ele>48.8</ele>
        <time>2019-01-23T12:16:41Z</time>
      </trkpt>
      <trkpt lat="48.71013" lon="2.47735">
        <ele>48.7</ele>
        <time>2019-01-23T12:16:44Z</time>
      </trkpt>
      <trkpt lat="48.71017" lon="2.47741">
        <ele>48.6</ele>
        <time>2019-01-23T12:16:48Z</time>
      </trkpt>
      <trkpt lat="48.7102" lon="2.47748">
        <ele>48.5</ele>
        <time>2019-01-23T12:16:52Z</time>
      </trkpt>
      <trkpt lat="48.71023" lon="2.47753">
        <ele>48.4</ele>
        <time>2019-01-23T12:16:56Z</time>
      </trkpt>
      <trkpt lat="48.71027" lon="2.47759">
        <ele>48.3</ele>
        <time>2019-01-23T12:17:01Z</time>
      </trkpt>
      <trkpt lat="48.71031" lon="2.47763">
        <ele>48.2</ele>
        <time>2019-01-23T12:17:04Z</time>
      </trkpt>
      <trkpt lat="48.71035" lon="2.47769">
        <ele>48.1</ele>
        <time>2019-01-23T12:17:08Z</time>
      </trkpt>
      <trkpt lat="48.71038" lon="2.47776">
        <ele>48</ele>
        <time>2019-01-23T12:17:12Z</time>
      </trkpt>
      <trkpt lat="48.71041" lon="2.47781">
        <ele>47.9</ele>
        <time>2019-01-23T12:17:17Z</time>
      </trkpt>
      <trkpt lat="48.71045" lon="2.47787">
        <ele>47.7</ele>
        <time>2019-01-23T12:17:23Z</time>
      </trkpt>
      <trkpt lat="48.7105" lon="2.4779">
        <ele>47.6</ele>
        <time>2019-01-23T12:17:31Z</time>
      </trkpt>
      <trkpt lat="48.71056" lon="2.47788">
        <ele>47.5</ele>
        <time>2019-01-23T12:17:35Z</time>
      </trkpt>
      <trkpt lat="48.71061" lon="2.47787">
        <ele>47.5</ele>
        <time>2019-01-23T12:17:39Z</time>
      </trkpt>
      <trkpt lat="48.71066" lon="2.47786">
        <ele>47.4</ele>
        <time>2019-01-23T12:17:43Z</time>
      </trkpt>
      <trkpt lat="48.7107" lon="2.47785">
        <ele>47.3</ele>
        <time>2019-01-23T12:17:46Z</time>
      </trkpt>
      <trkpt lat="48.71075" lon="2.47782">
        <ele>47.2</ele>
        <time>2019-01-23T12:17:51Z</time>
      </trkpt>
      <trkpt lat="48.7108" lon="2.47781">
        <ele>47.2</ele>
        <time>2019-01-23T12:17:55Z</time>
      </trkpt>
      <trkpt lat="48.71083" lon="2.47785">
        <ele>47.1</ele>
        <time>2019-01-23T12:17:58Z</time>
      </trkpt>
      <trkpt lat="48.71086" lon="2.47792">
        <ele>47</ele>
        <time>2019-01-23T12:18:02Z</time>
      </trkpt>
      <trkpt lat="48.71088" lon="2.47799">
        <ele>46.9</ele>
        <time>2019-01-23T12:18:07Z</time>
      </trkpt>
      <trkpt lat="48.71091" lon="2.47806">
        <ele>46.8</ele>
        <time>2019-01-23T12:18:11Z</time>
      </trkpt>
      <trkpt lat="48.71091" lon="2.47813">
        <ele>46.7</ele>
        <time>2019-01-23T12:18:15Z</time>
      </trkpt>
      <trkpt lat="48.71092" lon="2.47821">
        <ele>46.7</ele>
        <time>2019-01-23T12:18:19Z</time>
      </trkpt>
      <trkpt lat="48.71092" lon="2.47828">
        <ele>46.6</ele>
        <time>2019-01-23T12:18:24Z</time>
      </trkpt>
      <trkpt lat="48.71092" lon="2.47835">
        <ele>46.5</ele>
        <time>2019-01-23T12:18:28Z</time>
      </trkpt>
      <trkpt lat="48.71093" lon="2.47843">
        <ele>46.4</ele>
        <time>2019-01-23T12:18:33Z</time>
      </trkpt>
      <trkpt lat="48.71094" lon="2.47851">
        <ele>46.3</ele>
        <time>2019-01-23T12:18:39Z</time>
      </trkpt>
      <trkpt lat="48.71096" lon="2.47857">
        <ele>46.3</ele>
        <time>2019-01-23T12:18:43Z</time>
      </trkpt>
      <trkpt lat="48.71096" lon="2.47865">
        <ele>46.2</ele>
        <time>2019-01-23T12:18:47Z</time>
      </trkpt>
      <trkpt lat="48.71097" lon="2.47874">
        <ele>46.1</ele>
        <time>2019-01-23T12:18:52Z</time>
      </trkpt>
      <trkpt lat="48.71098" lon="2.4788">
        <ele>46.1</ele>
        <time>2019-01-23T12:18:55Z</time>
      </trkpt>
      <trkpt lat="48.71099" lon="2.47887">
        <ele>46</ele>
        <time>2019-01-23T12:18:59Z</time>
      </trkpt>
      <trkpt lat="48.711" lon="2.47895">
        <ele>45.9</ele>
        <time>2019-01-23T12:19:04Z</time>
      </trkpt>
      <trkpt lat="48.711" lon="2.47904">
        <ele>45.9</ele>
        <time>2019-01-23T12:19:09Z</time>
      </trkpt>
      <trkpt lat="48.711" lon="2.47911">
        <ele>45.8</ele>
        <time>2019-01-23T12:19:13Z</time>
      </trkpt>
      <trkpt lat="48.71102" lon="2.47919">
        <ele>45.8</ele>
        <time>2019-01-23T12:19:19Z</time>
      </trkpt>
      <trkpt lat="48.71103" lon="2.47926">
        <ele>45.7</ele>
        <time>2019-01-23T12:19:23Z</time>
      </trkpt>
      <trkpt lat="48.71103" lon="2.47934">
        <ele>45.7</ele>
        <time>2019-01-23T12:19:26Z</time>
      </trkpt>
      <trkpt lat="48.71105" lon="2.47941">
        <ele>45.6</ele>
        <time>2019-01-23T12:19:29Z</time>
      </trkpt>
      <trkpt lat="48.71107" lon="2.47949">
        <ele>45.6</ele>
        <time>2019-01-23T12:19:33Z</time>
      </trkpt>
      <trkpt lat="48.71108" lon="2.47956">
        <ele>45.5</ele>
        <time>2019-01-23T12:19:38Z</time>
      </trkpt>
      <trkpt lat="48.71109" lon="2.47964">
        <ele>45.4</ele>
        <time>2019-01-23T12:19:43Z</time>
      </trkpt>
      <trkpt lat="48.7111" lon="2.47972">
        <ele>45.4</ele>
        <time>2019-01-23T12:19:47Z</time>
      </trkpt>
      <trkpt lat="48.71111" lon="2.47978">
        <ele>45.3</ele>
        <time>2019-01-23T12:19:51Z</time>
      </trkpt>
      <trkpt lat="48.71114" lon="2.47985">
        <ele>45.2</ele>
        <time>2019-01-23T12:19:57Z</time>
      </trkpt>
      <trkpt lat="48.71119" lon="2.47984">
        <ele>45.2</ele>
        <time>2019-01-23T12:20:03Z</time>
      </trkpt>
      <trkpt lat="48.71124" lon="2.47985">
        <ele>45.1</ele>
        <time>2019-01-23T12:20:09Z</time>
      </trkpt>
      <trkpt lat="48.7113" lon="2.47982">
        <ele>45.1</ele>
        <time>2019-01-23T12:20:14Z</time>
      </trkpt>
      <trkpt lat="48.71134" lon="2.47979">
        <ele>45.1</ele>
        <time>2019-01-23T12:20:18Z</time>
      </trkpt>
      <trkpt lat="48.71139" lon="2.47976">
        <ele>45</ele>
        <time>2019-01-23T12:20:23Z</time>
      </trkpt>
      <trkpt lat="48.71144" lon="2.47974">
        <ele>45</ele>
        <time>2019-01-23T12:20:27Z</time>
      </trkpt>
      <trkpt lat="48.71148" lon="2.47974">
        <ele>44.9</ele>
        <time>2019-01-23T12:20:30Z</time>
      </trkpt>
      <trkpt lat="48.71154" lon="2.47972">
        <ele>44.9</ele>
        <time>2019-01-23T12:20:34Z</time>
      </trkpt>
      <trkpt lat="48.71159" lon="2.47969">
        <ele>44.9</ele>
        <time>2019-01-23T12:20:37Z</time>
      </trkpt>
      <trkpt lat="48.71163" lon="2.47967">
        <ele>44.8</ele>
        <time>2019-01-23T12:20:42Z</time>
      </trkpt>
      <trkpt lat="48.71168" lon="2.47966">
        <ele>44.8</ele>
        <time>2019-01-23T12:20:47Z</time>
      </trkpt>
      <trkpt lat="48.71173" lon="2.47964">
        <ele>44.8</ele>
        <time>2019-01-23T12:20:53Z</time>
      </trkpt>
      <trkpt lat="48.71178" lon="2.4796">
        <ele>44.7</ele>
        <time>2019-01-23T12:20:57Z</time>
      </trkpt>
      <trkpt lat="48.71183" lon="2.47958">
        <ele>44.7</ele>
        <time>2019-01-23T12:21:02Z</time>
      </trkpt>
      <trkpt lat="48.71188" lon="2.47956">
        <ele>44.6</ele>
        <time>2019-01-23T12:21:07Z</time>
      </trkpt>
      <trkpt lat="48.71193" lon="2.47954">
        <ele>44.6</ele>
        <time>2019-01-23T12:21:13Z</time>
      </trkpt>
      <trkpt lat="48.71198" lon="2.47952">
        <ele>44.6</ele>
        <time>2019-01-23T12:21:17Z</time>
      </trkpt>
      <trkpt lat="48.71203" lon="2.47952">
        <ele>44.5</ele>
        <time>2019-01-23T12:21:22Z</time>
      </trkpt>
      <trkpt lat="48.71209" lon="2.4795">
        <ele>44.5</ele>
        <time>2019-01-23T12:21:26Z</time>
      </trkpt>
      <trkpt lat="48.71213" lon="2.47948">
        <ele>44.5</ele>
        <time>2019-01-23T12:21:30Z</time>
      </trkpt>
      <trkpt lat="48.71219" lon="2.47943">
        <ele>44.4</ele>
        <time>2019-01-23T12:21:35Z</time>
      </trkpt>
      <trkpt lat="48.71224" lon="2.47941">
        <ele>44.4</ele>
        <time>2019-01-23T12:21:39Z</time>
      </trkpt>
      <trkpt lat="48.71229" lon="2.4794">
        <ele>44.3</ele>
        <time>2019-01-23T12:21:42Z</time>
      </trkpt>
      <trkpt lat="48.71234" lon="2.47938">
        <ele>44.3</ele>
        <time>2019-01-23T12:21:44Z</time>
      </trkpt>
      <trkpt lat="48.7124" lon="2.47937">
        <ele>44.2</ele>
        <time>2019-01-23T12:21:49Z</time>
      </trkpt>
      <trkpt lat="48.71244" lon="2.47935">
        <ele>44.2</ele>
        <time>2019-01-23T12:21:53Z</time>
      </trkpt>
      <trkpt lat="48.71248" lon="2.47936">
        <ele>44.1</ele>
        <time>2019-01-23T12:21:59Z</time>
      </trkpt>
      <trkpt lat="48.71253" lon="2.47933">
        <ele>44</ele>
        <time>2019-01-23T12:22:04Z</time>
      </trkpt>
      <trkpt lat="48.71258" lon="2.47931">
        <ele>44</ele>
        <time>2019-01-23T12:22:10Z</time>
      </trkpt>
      <trkpt lat="48.71262" lon="2.47928">
        <ele>44</ele>
        <time>2019-01-23T12:22:14Z</time>
      </trkpt>
      <trkpt lat="48.71267" lon="2.47926">
        <ele>43.9</ele>
        <time>2019-01-23T12:22:20Z</time>
      </trkpt>
      <trkpt lat="48.71272" lon="2.47924">
        <ele>43.9</ele>
        <time>2019-01-23T12:22:25Z</time>
      </trkpt>
      <trkpt lat="48.71278" lon="2.47923">
        <ele>43.8</ele>
        <time>2019-01-23T12:22:30Z</time>
      </trkpt>
      <trkpt lat="48.71282" lon="2.4792">
        <ele>43.8</ele>
        <time>2019-01-23T12:22:35Z</time>
      </trkpt>
      <trkpt lat="48.71288" lon="2.47918">
        <ele>43.7</ele>
        <time>2019-01-23T12:22:40Z</time>
      </trkpt>
      <trkpt lat="48.71292" lon="2.47916">
        <ele>43.7</ele>
        <time>2019-01-23T12:22:46Z</time>
      </trkpt>
      <trkpt lat="48.71297" lon="2.47916">
        <ele>43.7</ele>
        <time>2019-01-23T12:22:51Z</time>
      </trkpt>
      <trkpt lat="48.71302" lon="2.47913">
        <ele>43.7</ele>
        <time>2019-01-23T12:22:55Z</time>
      </trkpt>
      <trkpt lat="48.71307" lon="2.47912">
        <ele>43.6</ele>
        <time>2019-01-23T12:22:59Z</time>
      </trkpt>
      <trkpt lat="48.71312" lon="2.47911">
        <ele>43.6</ele>
        <time>2019-01-23T12:23:03Z</time>
      </trkpt>
      <trkpt lat="48.71317" lon="2.4791">
        <ele>43.6</ele>
        <time>2019-01-23T12:23:05Z</time>
      </trkpt>
      <trkpt lat="48.71322" lon="2.47906">
        <ele>43.5</ele>
        <time>2019-01-23T12:23:09Z</time>
      </trkpt>
      <trkpt lat="48.71326" lon="2.47903">
        <ele>43.5</ele>
        <time>2019-01-23T12:23:13Z</time>
      </trkpt>
      <trkpt lat="48.71331" lon="2.47901">
        <ele>43.5</ele>
        <time>2019-01-23T12:23:18Z</time>
      </trkpt>
      <trkpt lat="48.71336" lon="2.47901">
        <ele>43.4</ele>
        <time>2019-01-23T12:23:24Z</time>
      </trkpt>
      <trkpt lat="48.71341" lon="2.47898">
        <ele>43.4</ele>
        <time>2019-01-23T12:23:29Z</time>
      </trkpt>
      <trkpt lat="48.71346" lon="2.47897">
        <ele>43.3</ele>
        <time>2019-01-23T12:23:33Z</time>
      </trkpt>
      <trkpt lat="48.71351" lon="2.47896">
        <ele>43.3</ele>
        <time>2019-01-23T12:23:38Z</time>
      </trkpt>
      <trkpt lat="48.71355" lon="2.47894">
        <ele>43.2</ele>
        <time>2019-01-23T12:23:42Z</time>
      </trkpt>
      <trkpt lat="48.7136" lon="2.47893">
        <ele>43.1</ele>
        <time>2019-01-23T12:23:48Z</time>
      </trkpt>
      <trkpt lat="48.71365" lon="2.4789">
        <ele>43</ele>
        <time>2019-01-23T12:23:54Z</time>
      </trkpt>
      <trkpt lat="48.7137" lon="2.47887">
        <ele>42.9</ele>
        <time>2019-01-23T12:24:08Z</time>
      </trkpt>
      <trkpt lat="48.71374" lon="2.47884">
        <ele>42.9</ele>
        <time>2019-01-23T12:24:15Z</time>
      </trkpt>
      <trkpt lat="48.7138" lon="2.47883">
        <ele>42.8</ele>
        <time>2019-01-23T12:24:18Z</time>
      </trkpt>
      <trkpt lat="48.71384" lon="2.47884">
        <ele>42.8</ele>
        <time>2019-01-23T12:24:21Z</time>
      </trkpt>
      <trkpt lat="48.7139" lon="2.47885">
        <ele>42.7</ele>
        <time>2019-01-23T12:24:25Z</time>
      </trkpt>
      <trkpt lat="48.71395" lon="2.47886">
        <ele>42.7</ele>
        <time>2019-01-23T12:24:32Z</time>
      </trkpt>
      <trkpt lat="48.71399" lon="2.47886">
        <ele>42.7</ele>
        <time>2019-01-23T12:24:36Z</time>
      </trkpt>
      <trkpt lat="48.71405" lon="2.47886">
        <ele>42.7</ele>
        <time>2019-01-23T12:24:42Z</time>
      </trkpt>
      <trkpt lat="48.71411" lon="2.47882">
        <ele>42.7</ele>
        <time>2019-01-23T12:24:45Z</time>
      </trkpt>
      <trkpt lat="48.71416" lon="2.47879">
        <ele>42.6</ele>
        <time>2019-01-23T12:24:49Z</time>
      </trkpt>
      <trkpt lat="48.71423" lon="2.47877">
        <ele>42.6</ele>
        <time>2019-01-23T12:24:52Z</time>
      </trkpt>
      <trkpt lat="48.71428" lon="2.47875">
        <ele>42.5</ele>
        <time>2019-01-23T12:24:55Z</time>
      </trkpt>
      <trkpt lat="48.71433" lon="2.47869">
        <ele>42.4</ele>
        <time>2019-01-23T12:25:22Z</time>
      </trkpt>
      <trkpt lat="48.71438" lon="2.47866">
        <ele>42.3</ele>
        <time>2019-01-23T12:25:31Z</time>
      </trkpt>
      <trkpt lat="48.71442" lon="2.47866">
        <ele>42.3</ele>
        <time>2019-01-23T12:25:35Z</time>
      </trkpt>
      <trkpt lat="48.71445" lon="2.47872">
        <ele>42.2</ele>
        <time>2019-01-23T12:25:39Z</time>
      </trkpt>
      <trkpt lat="48.7145" lon="2.47875">
        <ele>42.1</ele>
        <time>2019-01-23T12:25:42Z</time>
      </trkpt>
      <trkpt lat="48.71453" lon="2.47881">
        <ele>42.2</ele>
        <time>2019-01-23T12:25:46Z</time>
      </trkpt>
      <trkpt lat="48.71456" lon="2.47886">
        <ele>42.1</ele>
        <time>2019-01-23T12:25:50Z</time>
      </trkpt>
      <trkpt lat="48.71459" lon="2.47893">
        <ele>41.9</ele>
        <time>2019-01-23T12:25:56Z</time>
      </trkpt>
      <trkpt lat="48.71463" lon="2.47897">
        <ele>41.8</ele>
        <time>2019-01-23T12:26:03Z</time>
      </trkpt>
    </trkseg>
  </trk>
</gpx>